GFSCGP_850_spd_000.txt.gz
Wind_Speed
6 3 6 9 8 6 5 7 12 10 11 8 16 12 19 26 25 24 27 30 31 35 35 30 27 24 22 21 19 18 19 15 14 11 9 8 7 7 9 7 8 11 12 10
3 7 11 6 4 6 4 7 8 3 12 7 13 17 19 23 28 31 30 30 34 31 34 32 29 27 27 23 20 20 19 16 12 9 9 8 6 6 7 6 8 8 7 8
7 7 7 5 9 4 6 8 9 10 6 6 11 1 8 15 22 25 27 38 40 37 37 36 32 28 28 26 22 21 17 17 13 11 9 9 8 8 8 8 9 7 7 9
6 12 8 8 8 7 8 10 14 8 16 7 8 6 6 17 15 13 24 31 38 40 38 37 34 29 31 28 23 21 19 17 16 13 12 11 10 11 10 7 8 8 7 10
9 10 10 9 16 7 13 8 12 11 16 7 3 5 10 8 9 11 21 37 42 44 44 43 39 34 31 31 27 23 23 20 18 16 13 11 13 12 13 10 10 10 8 3
10 17 8 11 17 9 14 5 6 5 5 2 11 7 4 10 25 21 18 32 37 43 46 45 40 37 33 33 29 27 27 24 21 17 12 14 13 14 14 14 13 11 13 8
4 17 10 11 6 8 4 6 2 2 1 6 8 8 11 21 24 18 23 35 41 45 46 48 44 42 38 38 34 31 30 29 25 19 17 15 13 11 13 16 16 15 11 9
9 12 15 6 11 11 8 10 6 7 3 5 8 7 11 17 36 34 34 43 44 42 48 52 49 47 44 41 38 35 35 33 29 25 24 19 10 8 10 12 10 8 8 11
6 8 8 11 11 11 9 4 10 7 1 3 4 7 6 6 16 21 28 32 38 42 46 52 52 48 47 44 43 42 39 38 33 30 28 22 12 9 9 8 8 9 12 11
8 4 8 14 6 7 15 8 3 3 7 4 5 4 6 4 12 12 14 26 37 40 44 49 53 51 50 47 45 44 43 42 37 33 30 24 16 11 9 10 10 11 11 10
12 5 13 1 6 10 2 3 4 6 5 6 3 6 7 15 17 18 18 30 32 42 47 50 54 53 53 50 49 47 47 44 40 37 33 26 20 16 10 9 10 10 9 8
10 7 13 18 12 8 8 9 7 6 5 1 5 7 5 13 13 22 25 32 36 44 50 52 53 54 56 55 55 51 50 46 42 39 34 29 22 16 11 11 11 9 7 8
11 6 8 8 7 3 7 6 6 6 5 7 6 5 1 4 3 19 24 29 31 33 48 52 51 51 56 58 58 55 53 49 43 39 36 29 25 20 15 14 14 11 10 10
18 6 11 14 9 5 6 7 7 8 5 6 6 5 3 6 10 9 26 32 29 28 35 49 50 54 57 58 59 59 55 51 44 40 39 33 29 22 18 14 13 13 12 11
12 9 7 10 19 10 14 12 9 6 9 9 8 11 10 11 12 21 32 29 26 29 32 40 45 49 54 52 55 56 56 53 46 45 40 35 28 24 20 14 13 14 15 13
6 7 9 16 8 8 7 9 14 7 5 2 6 7 11 21 24 22 32 33 31 27 25 24 36 44 48 50 52 56 57 55 49 46 42 33 29 25 22 16 14 14 18 16
11 7 5 9 7 6 4 2 7 3 4 6 7 11 10 5 8 20 24 25 23 17 12 13 28 36 42 48 51 54 55 55 50 47 42 33 31 23 25 18 15 17 19 18
5 8 4 5 4 5 7 1 12 11 5 7 6 9 16 18 26 23 27 25 19 15 11 9 8 13 27 41 49 50 53 55 48 44 36 33 31 26 25 19 19 20 21 20
3 5 4 5 5 4 3 5 5 6 5 6 2 6 10 30 20 8 21 18 15 13 11 9 12 14 16 27 45 50 51 51 46 42 32 35 28 28 26 22 22 23 23 21
9 8 5 3 6 5 1 6 6 7 6 9 9 8 6 12 7 3 16 18 13 17 13 8 11 13 16 19 28 44 48 48 49 44 32 35 29 26 26 24 24 23 22 22
5 5 4 3 4 2 5 8 2 8 6 7 17 19 17 6 7 8 14 19 13 8 11 12 17 16 16 19 24 36 44 46 43 35 30 31 28 29 24 23 24 22 21 24
4 3 3 4 4 4 21 8 7 4 16 21 21 20 20 17 14 16 13 6 3 11 20 20 21 21 19 19 24 32 38 41 35 32 33 22 18 28 41 25 20 20 22 25
4 5 5 4 3 8 17 17 25 23 27 29 26 18 16 15 9 6 6 10 17 16 11 20 27 24 22 25 29 30 35 29 32 29 23 14 11 19 25 19 20 23 22 23
2 4 4 7 3 4 10 24 26 28 29 28 28 25 20 14 12 12 13 11 16 21 20 22 29 27 25 26 27 30 26 26 27 16 15 21 21 9 20 23 22 26 19 14
4 4 7 1 3 5 12 18 20 17 14 12 9 8 9 10 15 17 16 14 13 17 21 17 25 27 26 26 28 25 19 13 8 2 7 6 9 17 18 23 16 15 15 14
3 6 5 4 6 8 5 13 19 23 18 12 10 8 14 14 5 4 5 12 10 10 10 14 22 26 25 21 20 18 16 14 6 6 3 1 16 22 21 19 18 18 16 13

GFSCGP_850_spd_003.txt.gz
Wind_Speed
6 4 7 11 8 7 11 4 15 12 7 5 7 10 21 29 26 25 28 29 30 35 37 34 31 27 25 22 22 22 22 19 18 19 19 19 16 14 16 15 16 17 18 16
2 8 10 7 6 8 5 5 7 3 7 6 4 6 18 24 29 34 33 32 35 36 38 39 35 31 30 25 24 22 21 20 19 19 16 14 12 13 12 13 13 13 11 10
7 5 8 7 5 7 5 6 5 7 9 6 9 3 9 13 17 23 28 34 31 39 40 41 41 35 31 29 26 25 22 21 19 15 14 15 14 12 12 12 12 9 8 8
6 9 8 5 5 7 4 9 8 9 16 7 7 5 9 14 15 13 24 28 35 40 39 40 42 38 34 29 26 24 24 23 21 18 18 14 11 11 11 12 11 11 10 8
8 7 7 5 7 7 9 7 8 9 15 6 4 4 6 12 11 20 26 33 35 41 43 43 43 36 32 29 29 25 26 24 22 21 19 15 13 12 12 12 11 12 10 9
11 6 6 8 6 8 3 4 7 5 4 5 12 7 5 12 27 27 23 31 37 43 47 44 42 37 33 31 31 28 28 26 24 23 20 17 14 11 12 14 14 14 9 8
3 8 4 4 5 4 5 7 3 3 1 5 8 4 9 19 25 25 27 35 40 41 46 49 46 44 38 35 35 34 33 32 29 26 22 18 15 12 13 15 14 13 10 11
6 9 9 4 9 8 7 10 6 7 5 6 5 7 10 15 30 35 29 39 38 42 49 52 50 48 45 40 39 38 38 36 35 30 26 21 16 14 13 14 16 13 11 10
7 8 5 6 7 11 5 5 9 6 1 3 4 6 7 7 11 21 29 29 36 42 46 50 51 50 48 44 43 42 42 40 38 35 30 26 21 18 17 13 13 13 12 11
9 2 7 8 6 6 13 7 2 2 6 5 4 4 6 8 8 11 13 26 37 40 42 44 48 51 51 49 44 43 44 43 42 38 35 30 26 22 16 16 15 13 11 13
8 6 8 6 8 10 2 2 4 5 4 7 4 6 8 8 9 17 20 38 33 39 43 47 50 50 54 54 50 46 47 46 44 42 39 34 31 27 18 16 14 12 11 13
10 7 11 12 5 4 7 11 10 8 5 1 4 7 5 9 9 16 20 27 37 41 42 46 49 51 54 57 55 52 51 49 48 44 41 38 33 29 21 18 15 13 13 12
9 5 5 7 4 1 5 6 5 4 4 8 7 6 1 4 6 20 21 28 36 41 40 45 47 50 53 57 59 57 55 52 50 47 43 41 35 31 26 22 16 15 14 12
20 5 15 14 9 5 6 6 7 8 5 6 6 5 4 7 8 10 23 32 40 43 43 45 46 50 52 54 57 57 56 55 53 50 47 44 41 36 30 23 17 16 16 14
15 11 8 20 15 6 6 6 7 7 9 9 8 10 10 12 13 19 34 32 35 37 40 43 48 50 52 52 51 52 54 56 56 54 50 46 44 38 32 26 17 18 19 18
6 7 9 8 12 13 10 14 12 14 6 4 8 7 9 20 7 8 28 32 34 34 37 38 38 40 43 48 50 50 49 53 56 57 53 48 41 38 34 27 19 19 20 22
1 9 6 17 6 7 5 8 16 7 1 7 6 10 6 4 8 20 31 38 41 38 36 34 33 33 34 38 42 45 46 47 51 53 54 46 43 43 35 28 25 19 20 23
3 5 0 12 5 7 5 4 13 10 4 3 4 5 7 11 38 39 36 45 41 34 27 23 20 17 19 23 34 38 41 45 47 50 50 47 32 40 30 29 25 21 22 25
3 4 3 6 5 3 3 4 4 8 4 3 1 5 2 7 12 2 25 29 29 26 21 17 11 6 9 15 19 27 36 40 43 46 47 40 38 32 32 31 22 20 24 25
3 6 4 3 7 5 3 6 17 10 2 7 6 6 4 3 7 2 11 20 20 16 15 13 6 8 10 12 15 25 34 38 41 43 41 34 35 29 32 26 19 22 24 25
4 4 4 3 4 3 4 14 11 7 5 9 12 15 23 8 7 18 8 11 11 12 12 7 6 8 11 12 13 22 28 31 34 36 35 24 24 29 35 34 33 27 25 30
2 2 3 2 4 2 19 5 6 3 10 12 24 26 29 25 25 24 22 17 12 9 9 10 12 16 18 18 19 23 25 24 26 29 31 29 30 27 25 27 28 25 16 41
4 1 5 2 3 4 10 18 21 23 31 30 36 30 30 31 27 24 22 20 17 14 11 12 20 26 29 29 27 24 22 20 20 25 28 29 24 14 13 10 12 18 42 25
3 6 4 4 4 7 14 25 27 28 29 25 23 21 20 20 19 20 17 21 20 18 20 22 26 30 27 29 25 22 17 16 18 20 25 27 23 14 12 13 21 12 13 14
3 5 8 6 4 6 24 24 26 26 22 19 17 16 16 10 8 12 17 28 31 25 23 20 20 22 18 21 20 17 19 20 15 11 9 5 6 2 8 15 24 19 12 16
6 5 7 5 10 21 9 19 22 28 24 22 17 20 22 20 21 9 5 10 12 9 12 15 12 11 14 18 19 19 16 17 16 21 23 9 13 24 26 25 22 15 20 18

GFSCGP_850_spd_006.txt.gz
Wind_Speed
8 4 7 10 9 7 7 8 17 1 3 3 5 5 15 23 21 22 25 28 32 37 34 32 30 30 26 24 26 24 24 20 20 20 21 20 19 18 18 20 19 17 17 17
3 9 9 8 6 8 9 7 10 2 4 4 2 3 10 20 24 28 27 28 30 35 33 34 34 34 32 26 25 24 22 21 21 22 20 19 17 18 16 15 16 17 15 14
6 4 10 8 5 7 6 9 6 14 6 3 6 2 8 12 17 21 25 28 30 36 37 37 35 35 34 30 26 24 23 22 23 21 21 20 19 18 16 16 15 13 10 9
6 6 11 9 11 8 7 8 7 9 10 6 5 5 8 12 17 15 28 29 37 38 38 38 37 38 37 32 28 25 23 23 24 22 22 22 18 15 12 11 11 11 11 11
7 5 8 5 8 9 8 8 11 8 8 5 1 2 6 14 11 22 28 32 37 42 41 40 40 37 35 33 30 27 25 25 26 25 23 21 19 16 14 13 13 14 14 12
10 5 8 11 5 9 10 7 6 4 4 1 8 9 5 7 24 25 25 33 38 39 43 40 38 37 37 34 31 29 28 28 28 27 25 23 20 17 15 12 12 12 13 11
3 7 3 4 5 1 6 7 2 2 2 6 3 4 12 10 16 24 23 38 39 44 44 43 42 41 40 39 34 33 32 33 31 30 28 25 21 18 15 13 12 12 12 11
7 6 8 4 7 8 6 9 6 6 5 5 4 8 10 21 18 20 20 34 32 38 43 47 46 44 41 39 37 37 38 37 36 33 31 27 23 19 15 14 15 13 13 10
7 7 4 4 5 9 4 4 6 7 2 2 5 8 9 6 7 12 25 28 37 42 48 48 48 47 45 42 42 42 41 40 39 37 33 30 26 22 17 15 16 15 13 12
8 1 8 6 2 3 9 9 4 3 5 5 4 4 6 5 11 9 8 26 36 42 40 46 48 50 49 45 45 44 44 43 42 40 39 35 32 26 20 18 17 15 13 13
7 5 6 6 12 14 3 3 5 6 5 7 4 6 8 10 11 11 14 32 37 42 42 45 49 50 51 50 50 48 46 46 46 45 43 41 36 31 26 22 20 18 16 15
10 10 10 12 4 6 11 11 9 7 6 2 4 7 5 12 6 12 19 28 30 37 42 45 45 47 50 52 53 54 50 49 49 48 47 44 40 35 32 28 23 19 18 17
7 5 10 7 6 2 5 5 6 5 4 8 6 6 2 5 8 15 21 23 28 32 36 40 40 43 45 48 52 55 55 52 51 51 49 47 44 40 37 30 26 20 20 19
17 6 12 18 17 6 5 7 7 7 5 6 7 7 7 9 9 9 18 21 27 34 37 38 39 40 40 42 46 49 54 55 55 53 51 48 46 45 42 34 31 23 22 21
4 13 11 22 11 8 8 8 10 8 7 8 10 11 11 12 13 18 26 24 25 30 33 37 40 40 38 38 41 45 47 50 54 55 54 51 49 49 46 41 33 26 24 23
4 7 7 20 16 12 10 8 10 9 3 7 3 9 10 8 9 11 24 28 30 34 39 38 36 37 36 35 37 40 42 43 45 49 54 53 50 51 51 44 33 30 24 23
3 2 3 12 7 7 7 20 10 7 6 10 8 13 7 6 9 16 23 29 34 38 40 37 35 32 28 27 30 33 35 37 40 41 44 47 47 47 47 28 22 33 24 21
3 1 4 14 4 6 13 6 14 16 5 7 4 7 9 8 24 21 24 34 39 40 34 33 27 25 23 20 20 21 24 29 32 35 37 39 41 39 43 27 28 34 31 28
3 2 3 5 6 4 1 3 5 8 6 2 5 2 4 7 4 2 6 18 22 28 26 22 15 7 5 3 8 12 16 21 25 29 31 33 35 36 40 34 32 34 38 32
6 6 4 3 7 7 4 3 3 4 1 6 4 6 7 11 5 3 6 2 7 10 13 15 15 11 6 3 3 7 12 18 20 24 25 25 26 32 39 31 26 35 39 36
6 5 2 1 1 3 4 9 7 5 3 6 3 7 12 6 9 19 26 26 23 21 17 10 7 4 3 3 6 8 10 13 13 16 21 23 20 27 31 30 28 30 29 30
4 2 3 3 4 0 18 9 5 6 18 23 27 31 35 30 31 34 31 30 27 24 20 16 12 8 9 11 14 13 20 18 10 11 13 15 19 25 21 19 21 25 26 23
7 5 4 1 2 8 16 5 14 19 29 30 34 28 26 27 24 24 24 22 21 19 16 15 14 14 14 18 17 16 17 12 9 7 9 13 17 17 16 18 16 12 10 10
3 4 5 3 6 8 19 17 21 28 32 30 28 29 23 22 20 21 20 16 14 13 11 13 14 19 16 17 15 10 10 7 7 5 9 12 14 15 15 18 15 9 6 19
2 2 8 6 4 3 17 18 23 29 33 32 30 25 23 17 22 20 16 14 14 13 12 11 13 15 14 14 11 7 6 7 8 10 10 9 17 20 20 18 10 12 23 20
5 3 1 5 13 12 15 13 21 28 31 29 27 27 26 21 18 15 17 17 13 12 10 11 12 12 13 12 8 4 2 3 7 13 20 17 20 20 17 15 17 14 17 17

GFSCGP_850_spd_009.txt.gz
Wind_Speed
8 10 16 18 15 10 15 15 15 9 11 12 13 11 7 16 20 22 23 25 27 29 26 25 26 27 27 26 24 25 24 24 21 21 19 20 19 18 17 16 15 17 16 16
5 17 13 15 14 9 15 19 16 7 10 12 9 14 10 17 25 25 25 26 27 25 25 27 27 28 30 29 26 26 26 22 24 24 22 20 17 16 16 15 16 16 16 15
14 7 10 11 12 14 14 19 16 14 9 3 7 15 10 13 22 23 25 26 26 27 28 28 29 29 30 30 29 27 25 22 23 24 23 21 19 18 17 18 18 16 14 13
9 10 16 13 17 15 18 14 15 16 12 13 11 14 12 17 18 22 28 30 29 28 27 26 28 32 32 31 29 29 25 23 24 24 25 24 22 17 14 14 12 12 12 12
8 10 13 20 20 14 11 12 17 15 16 7 8 6 11 9 17 24 30 33 34 32 31 31 30 32 33 31 31 29 27 26 27 26 26 24 22 19 17 13 12 12 13 13
14 3 14 14 14 17 10 11 6 5 8 9 14 13 9 9 16 25 27 33 36 34 32 31 30 31 32 31 30 31 30 30 29 28 27 27 24 20 18 15 13 14 15 16
12 14 7 10 14 13 14 13 6 9 7 9 5 11 17 11 17 22 21 36 37 35 33 32 32 35 36 37 34 33 33 33 32 31 30 29 26 21 18 16 15 15 15 14
14 13 17 14 16 12 19 21 12 16 10 12 5 11 7 16 19 19 21 24 31 36 35 35 37 39 39 38 36 35 35 35 35 34 33 31 28 25 22 20 17 17 16 13
12 16 4 12 8 17 9 13 15 14 2 6 6 5 10 14 13 12 21 21 30 36 40 41 41 42 41 39 37 39 38 38 38 38 35 34 32 30 27 22 18 17 17 16
11 6 16 10 13 8 12 13 11 7 18 17 9 5 7 6 11 12 12 25 32 35 38 40 43 46 43 40 38 38 39 40 41 41 39 37 36 32 28 24 21 19 19 18
15 13 6 6 16 22 9 8 2 6 7 14 15 13 8 13 13 12 15 26 28 32 39 42 42 48 45 43 43 43 40 40 41 43 43 42 40 35 31 29 25 21 21 19
13 10 13 21 5 9 19 19 18 12 12 5 9 13 4 14 14 13 16 16 21 29 38 35 35 39 44 47 45 47 44 43 42 45 46 46 45 40 37 36 31 23 21 24
9 6 9 11 16 15 10 19 20 15 11 17 15 13 3 6 11 20 17 14 14 22 25 30 30 33 36 41 47 48 48 47 47 46 48 50 48 47 44 41 38 32 23 25
9 8 11 15 19 16 16 17 17 20 16 15 16 18 11 11 13 17 18 22 15 19 27 29 29 33 34 35 39 44 48 47 43 47 50 53 52 50 49 48 40 33 27 23
8 7 15 24 26 27 25 24 20 20 25 21 19 19 18 15 16 21 25 15 14 19 24 31 33 32 33 34 36 37 39 42 42 46 50 54 51 49 48 47 44 36 28 20
4 2 2 16 26 23 28 27 23 23 24 19 21 13 13 16 16 13 20 18 20 24 29 32 31 32 34 32 32 31 31 33 35 39 42 44 46 45 45 47 48 44 39 41
6 1 4 9 12 17 22 25 24 21 22 21 20 16 10 11 12 20 23 22 26 29 30 31 34 35 30 28 26 25 23 21 25 28 30 32 35 38 39 42 44 46 38 24
3 5 2 8 4 10 17 22 25 24 20 16 14 12 13 16 23 10 17 21 23 23 26 30 28 26 22 17 13 11 11 10 12 17 20 23 27 32 33 35 41 47 40 28
5 6 3 4 5 10 10 5 18 22 23 18 17 15 11 10 12 4 9 17 18 21 21 17 16 15 10 12 11 8 4 3 6 11 14 16 19 23 28 31 38 40 33 27
15 13 6 2 9 6 4 6 7 3 15 11 11 12 8 9 11 4 2 6 9 8 11 17 20 23 21 18 15 11 7 4 0 4 7 8 11 17 22 28 29 37 32 32
4 3 5 8 9 6 7 17 6 11 6 9 11 9 13 5 4 12 16 22 18 21 21 26 24 21 19 16 11 9 7 6 9 11 11 11 13 13 13 23 27 36 22 23
7 8 4 3 6 6 26 14 5 5 9 20 27 30 30 26 25 23 26 26 34 34 28 23 23 18 14 10 7 3 7 11 14 13 16 13 15 15 14 17 24 29 23 24
6 6 7 9 3 16 16 11 3 12 19 18 29 32 33 27 22 24 24 23 26 24 25 19 15 12 7 5 4 4 7 11 13 12 16 15 17 14 15 16 18 19 22 22
4 8 5 6 5 9 9 13 17 18 18 16 20 22 30 27 24 22 22 20 20 18 20 17 13 11 9 8 6 8 9 13 10 12 15 15 17 16 14 13 15 19 20 19
4 2 10 4 12 7 9 10 12 18 20 26 27 26 27 32 26 24 25 24 23 21 20 17 14 12 12 11 8 6 1 5 6 11 15 16 13 11 13 16 21 22 20 18
7 2 3 7 9 5 7 13 21 27 22 20 28 27 27 29 25 25 26 23 20 17 15 13 10 9 9 9 9 8 7 6 11 16 17 14 9 12 14 18 19 17 15 16

GFSCGP_850_spd_012.txt.gz
Wind_Speed
23 18 21 23 22 20 17 16 14 15 14 16 15 13 11 12 17 19 21 23 25 26 26 26 25 25 24 22 21 21 21 21 20 17 16 15 15 14 14 15 15 13 13 13
16 22 22 22 21 23 20 18 17 13 9 15 13 15 13 14 19 22 24 25 26 25 25 27 26 26 26 25 23 22 23 23 22 18 18 16 13 13 12 13 12 12 11 11
19 18 21 20 21 24 23 21 18 15 11 15 11 15 17 15 19 21 24 26 28 28 28 29 30 29 28 27 25 24 24 24 22 22 19 16 15 13 10 11 10 10 10 10
21 20 23 19 23 23 24 23 19 17 14 13 16 13 14 17 17 20 26 29 30 31 30 29 30 31 30 29 26 25 25 25 24 22 21 19 14 12 10 10 10 10 10 10
20 22 22 23 24 25 24 21 19 19 17 19 15 11 13 4 14 20 27 32 33 32 33 32 31 31 31 29 27 26 28 27 25 24 23 20 18 14 12 10 10 9 10 11
23 18 20 23 22 23 21 19 16 17 16 18 22 15 15 12 15 17 20 30 33 32 32 32 31 30 31 30 29 28 29 30 29 28 26 25 19 17 14 14 11 10 10 10
20 22 15 19 23 24 22 18 12 15 15 15 18 20 16 12 10 15 12 24 32 33 32 32 33 33 32 33 32 30 30 33 32 31 29 27 23 21 19 16 14 13 12 12
18 20 26 16 27 25 27 26 15 24 16 14 21 16 18 19 21 27 14 15 26 34 36 36 35 35 34 34 34 32 32 36 35 34 32 31 28 23 20 18 16 15 13 13
19 24 23 22 19 26 26 26 25 24 20 17 17 14 23 16 16 17 16 17 23 32 38 36 36 37 35 35 36 38 38 38 38 35 35 34 31 29 22 20 20 16 16 14
13 13 24 23 21 26 27 22 24 20 25 22 20 20 12 19 17 17 13 19 23 28 34 40 39 39 37 36 36 36 36 37 37 35 37 34 33 32 31 26 26 24 20 20
21 12 14 22 26 25 20 19 21 23 22 19 18 19 16 15 14 13 12 18 20 24 32 37 42 40 37 36 35 35 35 35 35 37 39 37 33 34 34 33 31 28 24 21
22 14 16 19 22 26 24 25 24 17 26 19 22 18 18 18 18 24 23 14 13 18 27 32 35 37 39 39 37 36 35 35 37 41 43 41 37 37 36 38 35 33 29 24
20 19 14 19 18 18 22 28 28 26 22 26 20 19 18 12 12 14 15 16 12 13 19 26 30 36 40 40 39 38 36 36 34 34 35 37 40 38 41 40 39 37 31 29
7 18 24 17 22 21 25 24 26 27 22 22 27 21 21 22 18 17 17 18 17 14 17 24 29 34 35 39 41 41 37 34 34 32 33 35 39 40 36 39 41 43 39 33
16 15 15 21 21 19 23 28 29 30 29 28 22 29 23 23 18 21 25 25 16 17 18 26 31 34 35 36 39 37 33 32 31 32 33 31 28 27 28 30 43 45 42 39
15 14 16 22 21 22 27 27 29 30 30 29 30 33 24 28 33 30 30 26 22 22 21 26 28 29 31 32 32 29 30 29 27 29 28 26 26 27 29 32 42 44 45 45
16 13 12 18 22 17 21 27 29 28 31 28 28 26 26 30 23 29 33 29 24 25 24 28 32 33 28 28 27 27 25 24 24 24 24 24 25 26 27 30 34 37 44 51
11 15 13 14 6 16 17 19 26 28 27 31 27 23 23 26 29 31 34 29 26 24 21 24 25 25 24 23 23 22 21 21 23 22 21 21 22 23 25 27 28 30 34 44
18 14 13 14 15 12 14 13 9 16 27 26 26 24 24 31 27 21 18 17 19 20 19 22 24 24 23 23 23 24 22 23 21 19 19 19 19 21 24 26 25 24 29 33
18 17 14 8 15 18 3 10 16 16 15 25 24 25 23 23 12 17 16 13 14 16 18 20 22 22 24 26 25 26 24 22 20 17 15 15 18 19 21 21 22 23 25 28
15 16 17 11 11 8 9 15 8 9 6 25 33 32 27 21 9 4 10 11 13 15 18 21 24 23 24 26 25 24 21 19 17 14 13 15 16 17 18 18 19 24 25 27
18 17 13 11 11 14 10 3 1 12 24 16 12 18 20 15 17 17 17 18 21 23 23 22 25 26 24 22 21 19 18 15 10 9 11 15 17 16 18 16 16 20 23 27
15 14 8 10 2 5 7 3 4 11 12 10 8 15 22 27 28 27 27 25 26 28 28 24 24 24 21 19 18 14 10 8 8 9 14 17 17 16 14 14 16 18 24 26
3 5 6 10 6 8 16 12 12 8 6 12 16 19 23 23 25 28 25 21 24 23 22 20 18 18 17 13 11 9 8 9 10 12 12 13 13 12 11 11 12 15 20 20
6 6 9 8 10 13 18 16 10 11 14 19 22 21 22 23 24 24 26 22 22 20 17 16 17 16 15 12 9 7 7 9 10 10 13 14 11 10 13 14 13 13 16 18
9 5 2 6 13 13 11 14 2 12 17 18 23 24 24 24 23 21 27 18 17 19 14 12 13 14 14 12 11 11 12 13 13 13 13 13 11 10 9 12 15 18 15 18

GFSCGP_850_spd_015.txt.gz
Wind_Speed
24 18 24 27 25 24 23 20 15 14 25 19 18 14 13 16 18 19 23 22 25 26 26 26 26 26 25 24 24 23 24 24 22 21 19 16 15 15 14 14 13 15 14 11
17 24 25 25 26 24 27 23 18 14 21 21 18 19 18 18 16 19 22 25 26 27 27 28 28 28 27 27 26 25 25 26 24 20 18 19 16 13 14 13 16 14 12 11
24 22 25 25 26 27 26 25 19 17 25 19 15 18 18 16 22 20 22 24 27 30 30 30 30 30 29 30 30 28 28 27 26 23 17 20 15 16 10 14 12 12 11 12
24 21 25 27 28 27 25 25 24 20 13 12 19 16 21 19 20 20 24 25 28 30 31 31 32 32 32 31 29 29 29 30 26 25 21 21 17 15 13 12 11 10 10 11
25 24 25 29 30 29 25 24 24 23 18 24 24 17 13 22 20 22 20 27 28 29 32 33 34 33 32 31 30 29 31 30 28 26 24 21 18 15 13 12 11 15 13 12
25 25 27 23 26 24 24 24 25 24 19 17 23 18 20 16 15 14 21 27 29 29 30 33 33 32 34 32 31 31 32 33 31 29 26 27 21 21 15 15 12 10 11 10
23 28 23 26 24 24 28 25 16 20 18 19 22 21 22 19 16 20 16 23 29 30 31 32 35 36 35 36 35 33 34 35 33 30 27 28 26 22 19 15 16 12 12 12
21 21 29 20 28 28 31 29 20 26 18 19 23 22 22 17 12 8 12 13 19 28 32 35 37 38 37 36 37 37 36 36 36 32 31 29 28 24 22 21 17 16 15 14
20 25 19 29 26 26 30 29 28 27 24 19 20 25 23 12 19 17 21 21 15 25 32 37 36 37 38 38 41 40 37 37 37 33 33 32 29 29 26 23 22 19 19 16
21 17 23 25 25 26 33 24 27 22 28 26 24 23 18 21 19 19 14 20 17 23 31 35 36 36 37 37 38 40 39 37 36 35 34 33 34 32 31 28 28 24 20 21
25 18 15 22 29 30 21 27 24 26 24 21 20 19 20 17 17 20 22 27 19 22 27 32 36 37 38 36 37 39 39 39 36 37 35 35 34 32 33 35 33 32 26 25
26 16 15 20 25 26 27 28 32 18 27 21 22 19 15 16 16 13 13 14 21 22 25 28 34 35 37 39 38 38 38 37 38 37 39 39 38 35 34 36 33 32 31 29
22 20 17 20 19 23 30 31 32 31 22 26 22 20 22 13 17 27 22 24 27 7 13 23 28 36 39 40 41 40 40 38 36 37 37 39 39 41 42 37 35 34 35 33
10 21 24 18 22 18 28 29 30 29 22 22 26 26 24 21 13 11 17 17 14 11 11 18 26 33 40 42 43 43 41 38 36 35 36 38 42 44 40 37 36 36 37 38
17 19 23 26 25 21 23 28 28 31 29 28 24 29 25 23 23 21 26 21 21 20 14 18 25 30 36 40 42 44 41 40 37 38 37 39 39 38 37 36 37 37 40 42
21 18 19 21 24 25 24 23 30 29 30 30 29 31 25 29 34 22 23 25 24 24 19 18 23 28 33 39 40 41 44 39 38 37 40 37 37 38 37 36 36 38 40 38
22 17 19 21 22 19 23 27 25 24 29 28 28 31 27 28 25 25 33 31 30 30 31 18 22 29 35 39 38 39 40 40 36 39 34 37 34 37 37 36 37 40 41 40
21 23 17 17 18 24 20 22 22 28 28 26 28 27 27 26 35 37 36 28 31 33 36 27 22 26 32 32 32 36 33 38 38 37 38 33 36 33 35 35 34 38 39 37
17 18 17 17 20 18 20 10 7 5 15 20 27 26 26 36 35 32 45 46 37 28 31 25 22 26 31 33 33 34 32 33 35 34 35 36 34 34 32 29 29 35 35 33
21 15 14 18 23 26 9 16 6 4 12 16 15 20 21 26 19 18 35 43 36 24 23 22 22 27 32 32 31 32 31 29 30 29 27 27 28 28 27 26 29 30 27 27
21 20 22 18 18 20 10 5 4 14 5 12 14 20 25 20 23 30 18 33 27 26 23 19 23 28 30 31 30 33 31 30 26 24 22 23 23 24 22 23 25 24 23 24
23 21 19 19 23 23 5 11 10 5 12 15 17 18 25 32 30 13 6 6 11 16 21 24 26 26 26 28 29 28 28 27 26 24 21 20 20 18 20 21 24 20 19 17
24 20 17 7 9 10 11 8 6 5 9 11 12 10 13 5 10 9 8 9 13 15 18 22 24 25 27 26 27 27 25 26 25 24 23 19 23 23 21 20 19 16 16 17
7 13 18 12 12 12 12 11 8 5 2 11 14 7 3 11 16 17 18 17 19 20 20 23 25 24 26 23 22 22 25 21 18 19 24 22 19 19 16 15 16 15 15 15
6 14 7 17 16 18 18 18 12 12 11 11 21 28 20 19 22 23 20 18 20 20 22 23 23 21 22 21 18 16 16 17 17 17 17 18 17 15 16 16 14 11 12 13
3 5 4 8 18 21 16 14 14 14 15 17 20 23 18 19 21 20 17 18 17 17 19 21 21 19 19 18 17 15 15 14 16 16 15 14 16 15 14 13 14 14 10 13

GFSCGP_850_spd_018.txt.gz
Wind_Speed
24 16 20 25 25 23 22 21 22 14 3 18 22 17 11 34 26 23 26 25 28 29 28 29 28 29 28 29 30 30 30 28 22 22 23 21 22 15 12 12 17 17 18 14
19 24 24 23 25 26 27 27 24 21 24 23 18 27 32 30 23 26 27 26 27 28 30 30 31 30 31 31 32 31 32 32 32 26 24 20 18 15 12 16 16 17 11 12
24 22 24 24 25 27 27 26 23 22 19 21 18 19 21 24 24 24 27 29 29 30 31 34 33 33 33 34 34 34 33 33 32 29 23 21 19 21 9 17 15 19 16 16
25 25 25 26 28 27 26 26 27 24 16 11 14 12 11 18 22 21 26 26 31 32 33 33 37 36 35 35 36 35 33 31 31 29 24 19 21 17 14 13 14 16 14 6
23 26 27 27 29 29 26 26 27 25 16 16 22 11 12 22 22 25 21 30 30 32 34 35 40 39 36 35 37 37 33 32 31 29 30 23 22 20 15 15 16 15 9 11
24 25 27 27 25 28 25 26 26 23 19 16 20 17 19 18 16 22 22 31 31 32 35 37 37 39 40 37 37 39 37 35 32 32 29 26 22 22 19 17 16 17 18 16
25 27 25 24 25 26 28 23 16 18 17 17 19 20 12 23 21 22 3 27 34 31 32 36 39 41 44 42 39 39 40 38 36 34 32 32 27 23 21 20 21 14 15 15
22 23 28 22 28 25 27 26 17 21 18 19 23 21 16 23 22 22 44 45 37 38 34 36 41 41 43 45 41 41 41 40 37 34 37 31 34 28 30 23 21 21 16 16
22 26 19 31 23 26 26 24 27 26 23 18 19 23 24 15 22 17 14 24 21 38 36 37 38 41 40 44 46 43 41 41 39 36 38 37 32 38 32 31 25 19 21 18
25 19 24 23 26 27 29 17 22 19 26 25 21 22 14 18 22 19 11 20 21 16 34 35 36 39 41 41 44 43 43 42 40 38 38 39 37 36 38 31 29 27 21 22
28 22 19 24 26 26 18 23 23 21 21 18 18 17 15 19 17 19 21 27 21 17 29 31 35 37 39 38 40 43 43 41 42 40 39 40 40 38 37 36 32 31 29 26
26 18 19 25 26 27 29 27 27 17 21 20 19 16 14 11 18 16 15 23 20 29 26 30 33 38 39 40 40 42 43 44 44 44 40 42 41 41 42 40 38 36 34 33
22 22 16 24 23 23 30 28 24 25 21 21 19 17 21 9 7 19 18 25 26 22 24 32 31 39 41 43 42 43 45 45 43 44 43 43 43 43 44 44 42 40 39 38
20 21 26 18 22 19 24 30 28 26 18 21 21 21 26 12 20 22 21 26 15 13 17 27 27 34 42 45 47 46 45 45 45 44 44 45 46 46 46 45 44 41 42 41
13 16 22 29 28 25 25 26 27 26 25 22 22 23 21 23 12 15 16 22 18 15 24 18 18 29 41 45 48 49 46 46 45 45 45 46 46 46 45 44 44 41 40 43
23 16 18 21 26 28 24 27 27 29 28 27 24 25 20 18 25 11 28 28 24 20 14 26 23 23 28 41 48 52 50 47 46 46 47 43 42 44 43 42 41 39 39 41
20 16 16 20 22 23 25 27 23 24 24 23 22 21 15 19 15 13 17 19 23 28 24 14 24 27 30 28 43 50 52 47 47 46 46 46 43 44 44 41 39 39 39 40
19 18 15 16 17 24 19 18 25 22 19 22 23 19 17 20 27 29 26 20 25 25 26 22 21 28 30 32 32 40 44 47 45 48 44 45 45 44 43 42 39 38 38 40
19 18 16 15 18 18 22 21 18 14 20 17 11 12 15 25 28 29 34 31 29 28 21 28 27 30 30 28 35 39 39 46 48 43 48 41 42 41 43 41 38 37 37 37
22 10 12 14 20 26 17 19 8 4 8 8 10 9 12 13 7 10 36 33 31 33 31 24 22 30 34 30 36 38 42 41 48 47 44 45 36 34 34 36 35 33 34 34
11 8 16 14 15 19 3 11 14 13 8 5 8 10 12 10 12 21 32 30 24 29 38 34 25 26 28 31 35 37 40 40 42 41 36 35 34 34 31 27 28 26 27 27
11 10 13 12 15 14 13 11 11 3 8 1 5 10 15 19 23 22 24 15 12 12 30 31 17 22 27 32 35 35 36 33 30 31 30 29 31 30 29 30 28 25 26 24
13 13 11 10 8 8 7 5 10 10 8 12 10 10 14 18 23 16 9 5 2 4 4 11 15 19 22 29 27 33 31 29 29 29 26 26 25 25 24 26 23 23 23 23
13 12 9 11 3 8 15 9 12 12 17 14 14 16 18 8 8 5 6 6 9 8 7 12 18 18 17 20 24 29 29 30 31 29 29 27 26 27 23 21 20 21 21 20
6 14 12 11 17 15 13 14 16 19 17 17 19 20 21 20 26 20 26 23 20 19 18 19 20 19 18 23 28 30 31 33 33 31 29 27 24 24 23 21 20 19 17 16
2 5 5 3 14 10 16 19 19 21 23 22 20 23 20 20 28 24 27 26 24 25 21 20 18 18 19 23 25 25 27 27 29 28 24 22 21 20 21 20 20 16 13 13

GFSCGP_850_spd_021.txt.gz
Wind_Speed
22 8 16 13 14 11 14 15 16 19 9 7 5 14 10 20 15 16 34 36 39 41 37 38 35 34 32 32 34 33 31 26 24 23 20 18 18 14 14 15 14 13 12 14
10 18 12 12 11 18 20 19 20 14 12 12 13 16 14 11 20 22 31 36 41 42 41 40 40 39 37 37 37 36 34 31 25 26 24 21 21 20 15 14 15 15 15 13
17 9 16 18 17 18 21 20 16 10 9 9 10 3 4 14 11 26 32 41 42 46 46 44 45 42 42 40 40 39 36 34 34 26 26 24 19 21 21 21 17 16 14 17
14 17 18 22 21 19 18 22 20 19 10 14 15 7 9 15 14 15 28 36 41 43 48 49 49 46 45 44 40 39 37 35 36 34 29 28 24 25 24 12 16 17 12 13
19 18 20 21 23 19 21 13 19 21 15 9 12 4 10 19 18 21 22 38 41 45 48 52 52 52 48 46 46 42 39 37 33 36 37 32 23 24 19 16 15 16 18 16
18 18 19 20 16 21 16 14 17 17 12 10 15 16 6 14 28 22 23 32 42 43 50 49 54 52 50 48 47 46 42 39 35 31 32 32 27 21 24 20 20 21 21 17
19 22 19 20 18 14 19 8 12 12 11 9 12 13 9 21 16 26 24 30 35 42 45 49 50 53 54 51 48 48 45 42 39 33 30 33 32 28 22 24 22 23 20 18
15 18 23 13 20 15 16 16 12 13 14 9 9 12 13 18 17 35 40 31 42 39 51 52 55 57 57 54 50 48 49 45 41 37 32 30 37 30 29 23 23 24 23 20
15 18 8 24 20 18 11 21 14 5 8 6 8 9 11 15 19 16 25 31 38 38 37 51 55 56 58 56 53 50 49 47 42 38 33 32 37 38 32 33 25 26 25 21
10 7 20 21 22 17 19 6 11 14 15 19 16 10 12 8 18 14 12 20 32 33 45 49 54 56 57 58 55 51 49 48 45 40 36 32 37 40 37 35 35 30 26 24
25 17 18 15 19 23 12 17 12 7 13 12 10 16 8 10 16 16 18 32 37 51 46 48 55 57 57 56 55 54 51 48 47 43 39 36 35 40 38 39 39 39 30 28
24 15 16 25 17 24 24 13 11 9 6 4 8 15 9 13 7 25 31 36 37 26 51 49 54 53 55 54 55 57 54 51 47 44 41 38 37 38 40 42 42 41 39 34
16 19 11 17 17 19 26 19 14 15 5 12 5 14 18 17 3 6 4 14 29 26 33 47 50 51 56 54 54 56 56 52 49 45 43 41 39 39 42 42 44 44 42 40
12 19 27 19 19 5 9 22 20 17 13 16 22 14 18 5 7 14 25 30 18 32 23 46 48 55 56 56 53 54 56 53 49 47 45 44 44 42 42 43 44 46 45 41
5 19 20 26 19 14 24 14 25 22 21 16 13 16 14 10 9 9 23 25 28 12 16 37 47 53 53 54 54 53 53 53 48 46 46 46 45 44 42 44 45 45 48 47
12 8 12 17 26 25 26 19 20 25 22 19 17 19 6 7 26 18 21 26 29 18 24 34 41 50 53 53 54 55 54 54 50 46 46 45 45 45 45 45 46 45 43 44
10 5 3 8 7 5 20 28 18 11 17 18 17 18 7 9 6 8 11 12 11 18 21 31 35 40 48 51 50 55 55 55 52 48 46 45 45 44 44 45 45 44 42 40
19 15 10 6 6 8 7 10 15 15 8 12 10 9 11 11 20 15 12 6 7 16 22 34 33 29 32 46 51 49 55 57 55 51 49 46 45 44 42 42 43 42 40 38
17 12 6 5 11 2 7 7 5 7 13 2 5 5 6 15 11 9 11 19 26 25 32 18 26 30 30 34 38 51 54 58 57 55 52 51 47 44 46 45 42 40 38 37
16 13 10 3 7 15 3 5 6 5 3 7 10 9 8 9 3 4 21 15 6 14 32 30 25 28 38 35 38 40 49 56 60 58 56 54 50 47 48 47 43 40 38 36
5 3 8 5 5 5 3 13 5 7 6 7 15 10 10 4 0 13 19 21 18 15 18 33 46 36 26 27 38 42 45 52 56 59 54 52 48 47 47 44 40 41 36 34
4 4 6 4 3 4 4 5 7 7 12 12 13 10 5 6 10 14 17 19 22 18 10 21 33 41 38 31 36 46 46 46 49 49 43 46 40 41 40 38 38 33 31 31
3 3 5 9 3 1 18 11 12 21 24 17 18 12 8 19 20 20 25 17 6 2 3 12 21 30 32 35 38 42 41 40 36 39 39 33 34 34 34 34 29 30 28 27
3 9 5 7 8 10 6 5 27 25 26 20 18 18 19 22 18 21 21 19 15 11 13 16 22 24 21 31 35 35 36 36 32 35 36 35 37 33 29 28 28 26 25 21
4 9 7 7 8 25 19 21 27 25 19 19 21 22 25 25 24 20 18 17 15 15 16 20 23 25 24 19 22 28 32 35 35 37 35 32 32 32 31 27 24 22 20 16
3 3 2 3 13 8 18 21 20 26 23 23 23 25 25 24 25 25 24 19 14 9 7 12 25 28 28 27 29 31 33 33 35 33 26 28 29 29 27 25 22 19 15 15

GFSCGP_850_spd_024.txt.gz
Wind_Speed
11 6 13 10 8 6 5 6 8 7 4 7 13 14 21 38 35 34 36 37 38 43 42 37 34 34 44 39 37 37 38 33 28 27 25 31 30 28 22 18 15 15 15 13
4 12 7 8 7 10 10 12 18 8 6 4 9 16 19 26 33 41 37 38 40 41 43 41 40 37 43 42 40 38 37 33 30 28 25 22 19 25 26 20 18 17 16 14
12 8 13 9 11 10 14 16 15 10 7 3 6 2 3 9 10 28 37 44 44 47 47 49 47 46 43 45 44 41 37 34 32 30 26 24 19 22 24 22 20 16 14 13
9 13 12 19 14 12 11 15 16 10 2 5 7 4 7 12 8 17 33 36 41 45 47 51 53 54 51 48 44 42 39 37 36 33 30 30 29 27 26 25 22 18 17 16
10 18 20 16 16 16 13 9 10 11 7 4 10 2 7 8 15 12 21 39 41 46 49 52 56 58 57 53 50 47 44 43 40 36 35 34 33 27 21 25 21 19 20 20
15 14 15 15 13 17 14 6 7 5 8 9 14 12 6 8 14 17 22 36 44 44 50 55 57 57 59 57 54 51 49 46 43 40 36 37 36 30 26 28 25 21 21 21
8 17 5 12 8 9 10 7 6 6 8 11 9 8 11 15 17 24 26 35 43 48 49 52 53 54 57 60 58 56 52 50 47 43 38 35 33 32 28 30 27 24 24 24
13 12 13 10 14 19 9 13 9 9 4 5 6 8 13 15 23 40 45 41 41 44 50 55 59 62 62 61 60 59 56 52 50 46 41 35 31 31 32 28 30 28 25 24
7 14 4 19 10 15 10 8 13 7 3 1 5 6 8 11 13 22 34 29 39 47 50 57 58 62 64 62 62 60 58 54 51 48 42 38 34 32 35 29 29 30 26 24
12 4 11 21 10 21 12 8 3 1 14 16 5 5 10 7 12 11 22 34 43 51 57 56 56 63 61 63 63 61 58 56 52 49 44 40 34 33 35 32 35 31 27 25
20 11 11 5 14 18 10 11 4 5 8 11 4 16 8 11 9 9 18 41 47 51 56 50 56 59 63 61 61 61 60 57 54 51 46 42 37 35 35 36 38 38 31 29
13 14 15 26 11 14 20 13 11 8 8 8 17 24 5 9 9 10 20 35 45 51 47 54 53 53 54 57 58 60 60 59 56 51 47 44 39 35 36 38 40 41 39 35
9 5 10 8 9 8 8 14 19 6 4 16 9 6 6 7 6 12 10 19 14 28 34 45 46 47 56 57 59 59 60 60 56 53 48 45 43 40 37 38 41 43 43 43
13 6 14 19 16 6 6 16 16 19 14 13 21 8 5 4 4 7 22 31 35 35 32 34 44 52 57 59 60 59 60 59 57 54 50 47 45 42 39 38 42 43 45 44
8 6 4 15 16 21 14 11 21 23 23 22 21 10 10 10 9 12 26 24 30 27 21 26 35 42 55 57 57 59 59 59 58 57 52 50 46 42 41 40 42 44 45 47
6 5 8 7 13 24 24 21 22 22 23 20 7 7 10 15 21 14 23 23 22 35 32 26 45 50 60 60 60 59 59 57 58 58 55 49 47 47 46 44 43 43 45 45
4 4 8 6 6 20 20 30 15 13 11 15 14 9 10 8 10 11 17 18 27 30 38 40 49 52 56 64 60 59 59 58 58 57 56 52 49 48 48 46 45 45 44 44
9 8 3 6 8 20 13 19 20 9 7 10 12 13 12 16 29 30 18 20 20 15 7 19 39 50 56 59 58 56 57 58 58 56 56 53 51 49 47 47 46 45 43 42
18 11 4 4 4 6 4 6 13 9 12 8 9 8 8 12 11 5 9 15 16 20 25 12 21 39 46 54 57 56 55 56 56 56 55 55 52 49 49 47 46 43 40 39
21 19 10 6 4 6 5 4 11 7 2 3 9 9 8 9 5 4 8 8 8 19 23 21 19 27 44 46 52 56 56 56 56 56 55 55 56 52 47 46 44 40 36 34
2 3 10 12 8 9 4 4 4 9 7 3 6 9 8 6 6 8 4 2 3 6 12 17 25 30 28 30 44 47 50 55 50 50 55 58 58 55 48 44 42 40 37 36
4 4 3 2 6 7 28 20 8 7 7 18 15 13 21 19 17 16 11 6 5 6 8 12 17 27 38 35 36 39 52 47 49 54 53 54 57 57 50 47 44 42 40 36
7 5 6 6 5 11 31 15 13 23 25 12 19 18 22 22 20 15 14 14 10 7 10 14 18 21 35 40 42 42 44 45 49 53 50 52 48 50 50 48 48 44 40 39
7 4 3 5 2 12 29 30 21 23 27 22 22 22 24 28 24 21 16 11 5 3 3 13 20 25 31 37 45 47 45 45 52 50 47 48 47 46 47 47 46 43 42 38
3 6 4 2 5 14 22 29 17 21 24 24 23 26 24 25 24 22 20 16 10 2 1 4 13 19 20 28 45 47 48 50 52 47 44 43 44 44 45 44 42 42 38 31
2 2 5 3 6 3 7 22 21 27 25 24 25 26 22 21 21 18 18 14 11 6 2 3 5 11 10 8 7 40 39 41 43 45 47 45 43 41 42 42 36 30 18 15

GFSCGP_850_spd_027.txt.gz
Wind_Speed
13 8 10 10 7 6 3 4 6 5 5 5 11 7 20 28 26 27 31 34 36 41 49 45 44 42 42 42 39 36 36 33 32 31 30 31 29 25 23 20 17 15 14 14
3 16 9 9 8 9 7 8 12 0 7 5 6 13 19 22 32 39 37 37 41 43 37 44 44 44 45 44 43 41 40 36 34 31 29 31 29 29 28 25 21 16 15 15
12 6 9 9 7 8 6 9 10 8 2 0 5 3 10 21 18 26 31 40 39 42 44 46 45 45 46 49 47 43 42 41 38 34 29 28 25 28 32 32 29 22 18 16
7 9 12 8 8 9 8 6 8 3 4 3 5 4 6 16 21 20 29 33 37 40 41 42 49 46 46 46 45 45 43 42 42 39 34 32 30 29 27 27 29 23 18 19
9 14 16 12 19 8 11 5 6 4 5 1 5 1 6 17 18 20 24 35 39 42 44 49 52 54 53 47 46 45 45 44 43 42 38 35 34 30 25 25 26 24 22 21
16 8 15 10 8 14 5 1 4 3 3 5 16 9 9 12 22 23 24 38 44 44 48 52 57 56 54 52 50 48 48 47 45 43 41 38 35 32 29 27 27 27 25 23
7 20 5 7 10 6 5 7 4 3 4 10 9 6 15 8 22 28 27 40 49 49 50 52 50 50 52 57 56 54 53 51 49 47 44 40 38 32 30 29 27 27 28 26
9 6 17 6 10 11 9 11 6 7 4 9 5 9 8 17 17 31 41 48 44 43 47 50 58 59 59 59 60 59 58 56 53 50 46 42 40 35 29 29 28 30 31 26
10 11 4 15 8 15 7 10 13 2 1 2 5 8 6 8 11 11 21 26 35 43 47 55 56 60 61 60 62 63 62 59 57 53 49 46 42 39 32 27 29 31 33 28
7 2 8 9 8 8 15 8 4 2 11 12 5 7 5 8 15 10 11 19 32 40 48 58 54 57 60 62 63 63 63 63 60 56 52 49 44 40 36 29 31 32 35 32
3 4 6 7 9 18 6 7 3 7 6 9 4 10 9 10 10 11 12 25 34 41 51 55 58 53 56 59 58 62 61 62 63 60 54 51 48 44 40 33 32 35 34 33
6 3 15 19 7 17 14 16 9 5 12 9 12 11 1 13 15 10 13 23 36 48 55 57 57 50 49 52 56 60 60 60 61 60 57 51 49 47 44 38 34 37 37 35
7 4 2 6 5 3 9 13 16 12 3 20 10 7 6 9 8 13 17 14 17 33 42 40 39 39 49 53 55 59 59 59 59 58 58 55 51 49 48 42 38 38 39 38
3 3 3 7 5 2 7 11 16 16 13 16 19 7 4 8 10 9 14 12 15 20 35 39 39 43 48 52 56 57 58 57 57 57 56 58 52 48 49 44 40 39 41 41
4 2 3 6 12 15 14 12 26 20 23 17 16 12 12 10 11 12 22 20 18 20 35 42 47 50 49 50 52 54 54 54 55 56 56 57 52 48 48 47 46 41 41 43
4 3 6 5 9 13 17 17 23 28 25 14 15 8 9 17 22 8 24 30 27 25 23 44 49 52 49 52 55 54 53 53 53 53 56 56 52 50 51 49 49 46 44 43
3 1 5 5 9 12 9 29 20 15 15 18 17 10 9 9 10 14 29 34 33 32 31 36 47 41 43 45 44 53 53 54 53 53 54 55 53 52 52 52 50 50 48 45
4 2 2 5 6 8 12 11 16 20 17 9 5 10 10 12 30 36 34 26 21 19 21 35 43 40 40 36 44 45 53 54 54 52 53 55 53 52 53 53 53 52 50 49
18 6 3 3 4 9 14 8 7 11 10 7 15 11 8 17 11 9 25 28 26 25 22 30 42 36 35 41 43 48 50 54 55 52 54 56 53 53 54 54 54 54 53 51
20 18 8 3 4 7 1 15 26 17 19 14 13 12 10 11 6 10 19 20 17 20 20 18 20 22 28 37 45 46 49 51 55 54 52 52 54 55 55 53 53 54 54 52
8 9 12 9 5 8 6 23 15 5 11 6 18 15 11 7 13 22 21 17 15 15 14 16 20 22 18 28 42 45 47 51 52 53 51 54 55 55 55 55 53 53 52 50
10 8 7 10 9 10 14 11 8 10 32 18 18 20 20 20 19 18 14 11 11 11 10 8 8 13 20 25 35 42 46 40 47 55 53 52 53 53 55 55 55 51 49 46
5 6 8 10 8 3 5 4 25 27 21 19 27 27 33 28 22 18 14 11 7 4 2 4 6 4 9 22 26 39 40 40 46 52 53 52 53 53 53 53 53 53 48 42
7 6 6 3 5 5 14 22 24 22 14 10 15 29 24 29 22 19 15 12 8 5 2 3 9 12 13 13 10 23 32 38 43 50 54 53 54 55 51 48 46 48 47 43
9 10 11 3 3 3 15 23 17 14 16 19 19 23 24 27 23 21 17 14 12 10 6 4 4 10 15 18 20 19 19 31 36 42 48 51 53 47 43 46 46 45 44 43
10 11 10 6 7 9 7 16 9 16 25 28 29 28 25 23 21 17 17 14 12 10 9 7 8 8 11 15 18 22 21 19 23 23 36 38 39 42 44 42 40 38 34 38

GFSCGP_850_spd_030.txt.gz
Wind_Speed
11 4 14 11 7 5 5 5 4 3 3 6 10 3 6 22 23 25 30 31 34 42 43 39 37 37 35 35 35 34 32 30 28 27 31 30 29 25 21 20 20 16 14 12
4 20 11 9 8 9 6 5 7 4 7 2 3 9 9 14 27 35 33 32 36 40 33 42 40 40 40 38 37 36 35 34 32 30 29 31 30 28 25 22 22 19 14 13
19 7 12 13 7 11 6 12 6 4 3 1 4 6 5 13 9 23 27 35 35 36 41 43 44 44 43 44 43 41 38 37 36 34 32 32 31 30 31 28 26 22 17 15
7 8 19 8 13 10 9 8 5 7 4 4 4 5 5 8 20 16 24 31 35 38 39 41 45 47 48 46 43 43 42 41 38 37 36 35 33 31 30 31 29 26 24 18
11 12 14 16 11 8 8 9 9 6 5 3 4 1 6 7 11 17 22 31 36 42 45 47 47 48 51 48 46 44 43 44 41 40 39 37 37 31 27 24 26 27 27 23
8 7 13 11 7 10 7 4 5 5 4 6 9 8 5 7 14 17 21 29 35 39 46 45 48 46 47 48 48 46 47 46 46 45 43 42 39 36 30 27 25 24 25 24
6 13 3 7 7 5 6 8 2 2 4 9 8 7 14 9 14 20 24 35 39 43 42 47 46 48 49 51 52 49 48 47 47 47 46 45 42 40 34 29 28 25 28 28
11 7 17 6 10 10 8 10 6 8 5 5 7 9 6 13 17 28 32 43 43 40 46 48 55 54 54 53 55 55 51 50 49 48 47 45 44 43 38 33 30 28 28 28
8 10 4 10 5 17 6 10 9 4 1 2 5 7 6 6 9 14 26 29 29 38 43 49 53 57 59 57 56 58 55 52 51 50 48 48 45 44 42 37 31 29 29 27
4 1 6 18 7 9 11 9 4 1 6 6 4 4 6 8 14 14 10 22 34 38 44 49 49 52 56 60 59 58 59 54 52 49 51 50 47 43 41 39 34 29 30 28
6 3 3 9 11 19 4 6 3 6 6 6 0 7 8 10 13 15 17 30 38 40 45 48 51 55 56 55 58 58 58 58 56 56 54 53 51 47 44 42 37 33 29 31
2 2 7 6 2 7 22 12 8 6 10 5 4 9 3 10 9 13 18 29 37 36 38 41 46 50 50 53 54 57 57 56 56 55 54 55 53 50 48 45 39 36 33 32
6 2 2 5 6 2 5 10 8 14 2 16 8 8 14 3 8 15 19 23 20 26 32 36 36 39 46 50 52 54 55 56 55 54 54 54 55 53 50 47 43 39 36 34
2 2 3 4 1 4 6 5 9 15 13 15 18 11 4 6 8 9 21 28 26 22 19 24 34 40 45 49 51 52 52 52 53 53 53 54 54 53 51 47 44 42 39 37
4 0 2 2 11 6 11 14 12 12 21 15 17 21 11 8 10 17 34 29 22 20 21 17 21 33 43 47 49 51 49 49 50 50 52 54 54 50 48 49 45 41 41 41
4 1 1 3 9 12 11 13 15 14 11 8 20 14 8 19 27 18 27 25 28 29 28 26 22 30 39 45 47 50 48 48 47 46 49 51 53 50 48 50 49 44 43 45
3 3 2 4 4 10 13 9 14 8 8 11 16 10 8 9 11 18 32 37 36 38 39 38 30 28 34 44 45 47 48 49 46 47 46 48 51 50 48 47 50 49 46 46
2 2 3 4 4 7 4 8 8 17 18 15 9 7 12 16 32 39 42 43 42 40 40 37 29 32 34 40 46 46 46 48 49 49 49 48 48 47 47 48 50 51 49 48
15 4 3 4 5 11 18 4 5 2 8 8 15 10 9 29 22 21 26 32 38 32 31 19 22 23 27 34 40 44 46 46 46 48 50 48 46 46 47 48 50 53 53 51
12 15 4 1 6 7 1 2 10 3 6 10 8 16 17 9 7 9 38 31 32 31 29 23 23 21 29 33 37 40 41 42 48 47 46 46 46 47 47 46 49 51 53 53
4 6 15 12 6 7 4 9 8 7 7 17 14 19 18 10 20 37 24 19 23 21 19 20 14 10 21 29 33 36 39 43 41 43 43 45 45 46 44 47 47 48 52 52
8 8 5 7 6 18 2 7 4 4 14 18 24 28 27 30 28 28 14 14 15 17 14 11 11 11 12 16 19 22 28 29 34 36 37 42 43 45 48 46 45 45 44 46
8 9 4 10 7 6 12 13 14 15 16 18 24 30 25 28 24 20 18 15 13 13 12 10 8 8 8 3 8 14 19 23 24 28 32 35 39 43 44 45 46 41 39 41
6 6 6 9 9 9 15 8 8 9 11 14 14 8 10 21 21 25 25 24 21 21 21 18 16 16 16 12 9 6 6 15 20 24 25 28 34 37 38 40 42 44 47 50
7 9 7 8 17 4 8 4 4 6 1 3 9 13 18 28 28 28 27 26 23 24 22 19 18 17 16 14 12 9 8 9 9 9 17 20 23 31 34 36 40 44 44 41
8 10 6 9 12 7 3 3 6 2 8 11 21 27 24 27 31 30 29 26 21 19 16 15 16 14 15 13 13 14 14 15 14 15 16 15 17 23 30 34 38 39 38 36

GFSCGP_850_spd_033.txt.gz
Wind_Speed
18 12 22 22 18 14 7 15 11 4 3 6 12 13 9 18 23 25 27 30 32 34 32 30 31 30 33 35 34 32 30 29 30 31 30 30 29 28 26 21 19 16 14 13
8 24 21 13 15 17 16 17 16 8 10 4 6 10 9 15 24 31 34 34 35 32 29 31 31 31 33 35 36 36 33 30 31 32 30 32 30 31 27 23 19 19 17 14
26 6 20 19 15 18 20 22 19 14 3 4 7 13 6 11 19 22 28 30 30 33 35 34 34 36 35 37 38 38 36 34 33 32 30 30 31 31 30 27 23 22 20 16
22 20 22 23 26 22 23 17 16 15 8 11 5 12 6 11 16 18 24 30 32 34 33 31 36 35 39 41 39 37 37 37 35 34 34 32 33 33 31 30 27 24 21 18
18 23 18 25 25 20 16 11 16 17 14 11 13 8 12 4 12 19 24 32 34 36 36 36 38 46 45 40 42 40 38 38 38 37 37 35 35 32 28 28 26 27 25 23
19 9 24 16 20 23 13 7 9 6 9 15 20 14 17 15 15 14 21 29 32 35 37 36 37 37 38 42 44 43 42 41 41 41 39 39 37 35 32 30 26 25 27 27
20 14 12 20 17 19 20 16 7 9 11 15 12 14 21 9 18 20 18 31 35 36 38 39 36 36 43 43 47 46 45 44 43 43 44 43 40 38 35 31 28 26 25 24
19 16 20 19 21 14 26 22 9 14 14 12 8 13 13 15 23 25 24 24 27 31 36 39 43 46 49 49 47 48 49 46 45 44 45 45 44 42 39 36 33 28 27 24
19 19 9 17 12 22 15 23 22 8 1 5 13 14 10 8 18 18 23 20 24 30 34 39 42 46 51 51 50 49 48 47 48 45 43 45 46 45 43 39 34 32 30 27
6 7 13 25 20 23 14 18 11 13 15 13 8 9 13 18 19 17 18 22 26 28 29 33 37 43 50 51 52 52 50 47 46 47 45 44 44 44 44 41 37 33 32 29
2 5 4 16 21 22 11 19 12 13 9 9 7 10 8 15 17 20 22 30 28 28 30 32 36 41 45 44 47 53 54 53 51 47 47 45 47 47 46 45 40 35 33 31
3 4 11 17 14 22 23 19 22 11 14 12 7 7 1 10 10 13 20 25 21 24 30 30 31 31 32 42 45 49 51 53 54 52 50 48 46 47 47 46 42 38 35 33
4 3 12 12 10 10 21 23 22 21 12 17 11 6 11 4 3 7 13 17 21 21 25 27 23 28 35 41 45 47 47 49 49 53 55 54 53 51 50 47 45 41 38 36
4 1 10 14 11 3 6 11 24 24 17 18 20 17 9 6 6 7 11 17 16 17 21 18 21 26 30 36 41 44 46 46 46 47 50 53 54 54 52 49 46 44 41 39
4 2 5 5 7 6 9 10 10 18 24 22 21 27 21 17 18 13 13 13 19 21 23 21 19 19 23 30 37 41 44 45 45 46 47 47 48 50 50 49 46 44 44 42
7 1 4 8 9 9 11 13 14 15 17 16 22 26 11 8 19 25 29 28 29 24 26 24 23 21 20 22 28 37 41 45 46 48 46 45 45 47 48 47 46 44 45 44
5 3 2 5 7 13 15 21 17 14 13 15 21 18 14 16 16 18 25 30 30 30 26 28 29 29 28 27 29 32 36 43 46 47 46 46 45 46 44 45 44 45 45 45
4 3 3 5 3 10 6 5 6 13 17 20 23 19 16 16 24 27 33 34 37 39 39 40 38 38 37 36 33 35 38 40 42 45 45 45 46 46 45 44 44 46 46 47
16 8 4 5 12 16 18 7 2 4 12 6 13 19 19 25 26 24 24 33 41 45 47 46 38 34 22 25 29 34 37 42 42 42 44 45 45 46 47 46 45 47 47 48
13 14 8 5 8 11 1 7 4 3 14 6 5 9 14 20 17 13 27 32 34 37 35 34 29 27 27 25 24 28 33 37 39 39 41 42 44 45 46 45 47 46 47 47
5 8 16 14 11 9 10 5 1 10 1 6 6 11 15 11 17 23 28 22 25 26 26 24 24 24 23 22 21 24 27 31 31 30 32 36 39 39 40 41 42 41 42 41
7 7 7 11 10 20 7 17 13 4 8 14 18 20 21 23 28 30 33 25 24 20 17 18 20 20 18 14 17 21 24 24 25 25 27 29 31 33 33 36 37 36 37 40
8 11 7 10 10 12 14 19 25 13 20 22 21 26 22 27 30 26 21 14 13 13 13 13 15 16 12 10 12 16 17 17 15 14 17 21 23 25 28 30 32 35 40 44
8 12 10 15 20 23 33 36 32 21 22 22 21 27 25 29 26 21 18 14 14 18 21 20 21 22 19 14 12 10 9 9 10 11 12 14 17 21 25 26 27 26 27 45
11 8 9 16 20 24 33 34 32 29 25 26 24 24 24 21 19 19 17 17 18 21 26 25 23 23 22 18 15 13 10 8 6 4 4 8 13 17 22 26 28 35 44 50
19 21 13 13 18 17 23 24 24 22 26 20 22 15 8 14 14 16 19 22 23 22 23 24 20 19 17 14 10 7 6 4 2 3 5 7 9 13 18 25 28 33 37 40

GFSCGP_850_spd_036.txt.gz
Wind_Speed
28 20 26 27 23 18 14 18 18 17 13 11 15 14 8 14 20 22 24 27 29 31 30 31 31 30 29 28 28 28 28 28 27 26 23 22 21 19 18 17 18 17 14 12
18 28 24 23 21 20 20 17 20 16 10 8 12 12 9 12 18 21 25 29 30 28 28 30 32 32 32 32 30 29 30 30 32 26 25 22 21 19 18 18 17 18 16 14
24 16 23 24 22 23 24 24 20 16 9 12 14 15 15 12 15 19 23 24 27 29 30 32 33 34 33 34 34 33 33 32 32 27 24 22 19 20 19 20 18 17 18 17
27 18 24 24 25 24 25 23 19 17 15 15 16 14 18 19 17 16 22 26 28 31 31 31 34 35 36 35 32 33 35 35 32 31 25 28 25 23 21 21 18 17 20 18
22 26 23 28 28 25 22 18 16 21 17 17 20 11 17 14 16 18 20 25 29 32 34 35 36 38 38 33 32 31 33 36 34 34 31 29 26 22 18 20 20 22 19 20
27 16 24 23 19 22 17 16 15 16 16 19 23 20 18 18 18 18 19 23 28 31 35 35 35 33 34 34 33 32 34 38 38 37 36 36 30 26 22 21 20 19 19 19
26 28 19 17 23 19 23 18 10 14 17 20 20 20 19 9 20 20 17 23 25 31 33 36 35 35 36 37 37 34 34 40 40 40 39 39 38 34 31 24 21 18 18 19
21 21 29 24 27 20 28 24 12 18 15 17 18 18 21 24 24 11 22 24 23 27 32 34 38 39 38 40 44 42 41 44 43 43 42 41 39 36 32 30 24 20 20 19
22 26 30 21 22 25 24 25 26 11 6 9 16 20 16 10 18 24 28 22 24 27 31 35 38 40 39 39 43 46 48 47 46 45 45 44 43 42 34 34 32 28 23 20
17 17 19 25 27 25 20 24 21 15 17 17 14 19 13 22 22 19 21 25 23 28 30 31 33 37 40 40 42 44 46 45 46 47 47 46 46 44 43 42 39 34 29 28
15 15 23 23 26 27 22 18 23 18 16 14 12 14 16 19 17 21 21 26 26 26 28 30 31 32 35 36 37 40 42 47 47 47 48 48 46 45 44 45 44 42 37 35
16 10 12 26 23 25 29 24 28 13 23 19 13 8 5 9 17 18 21 25 25 24 23 23 25 26 29 34 36 39 41 41 44 47 45 46 47 46 44 45 43 42 40 38
5 14 15 15 20 21 30 29 25 26 15 21 17 5 10 9 3 4 9 10 10 15 13 18 19 24 27 30 34 36 38 41 40 43 46 46 46 47 49 47 46 44 41 40
6 11 22 19 18 19 26 29 28 27 20 18 18 15 12 4 11 5 6 5 5 10 12 14 17 23 25 27 31 38 36 36 37 38 40 47 52 51 48 47 47 46 45 43
6 14 7 16 4 6 14 28 30 30 27 25 19 21 17 8 8 8 8 12 12 7 5 8 14 17 19 22 27 32 33 35 36 41 39 45 48 52 53 53 52 49 47 45
6 4 5 14 10 8 11 13 15 23 30 27 26 23 11 7 9 20 18 18 19 21 22 18 15 16 16 19 22 26 30 34 37 41 46 44 44 44 48 52 54 52 50 47
6 5 6 15 11 10 15 21 21 19 19 18 23 16 16 18 14 18 18 19 18 18 21 19 15 17 16 17 21 22 25 25 35 41 44 45 45 44 44 46 48 49 51 48
7 7 8 7 7 16 13 8 22 23 20 20 18 16 14 15 20 22 22 24 26 28 28 21 20 20 17 18 20 23 22 27 32 36 41 41 45 45 42 42 43 44 47 49
12 8 7 11 13 9 5 4 8 11 18 18 18 12 16 22 24 26 26 25 27 27 28 28 26 24 24 24 24 22 25 27 30 36 39 41 41 38 35 42 44 38 35 39
14 12 9 8 16 18 4 20 3 2 9 9 4 7 4 8 13 13 20 23 23 23 22 24 26 25 25 27 21 18 22 26 33 34 35 35 37 37 39 39 37 35 32 34
13 11 15 14 14 9 10 9 2 12 5 7 1 3 6 7 9 19 28 28 24 21 21 22 23 24 25 23 23 23 22 28 28 24 26 30 32 34 35 35 36 35 36 33
10 11 12 15 18 24 11 12 13 9 13 10 12 15 15 18 18 20 24 30 28 30 27 24 21 20 21 23 23 22 25 22 23 22 23 27 28 26 25 32 33 34 33 35
14 13 11 12 12 10 10 12 16 19 22 22 24 22 21 25 28 24 26 28 27 23 21 18 16 16 19 20 21 20 20 21 21 21 22 23 23 23 25 27 27 28 31 32
18 19 14 17 20 24 28 24 28 24 26 26 26 30 26 29 30 33 28 25 20 16 15 12 11 13 13 15 15 16 17 19 19 19 20 21 21 21 21 22 24 26 29 31
14 13 17 21 22 27 31 28 30 34 30 33 33 32 30 30 36 34 29 20 16 13 11 10 10 9 9 11 11 12 15 16 15 15 15 16 16 20 20 23 24 27 30 31
22 24 18 20 25 24 23 24 26 33 35 29 29 32 32 29 32 26 21 15 13 13 11 10 10 9 10 13 14 15 17 12 10 9 9 10 11 13 15 17 21 30 30 30

GFSCGP_850_spd_039.txt.gz
Wind_Speed
31 20 27 30 28 23 21 21 23 24 14 21 18 20 17 16 17 24 28 29 31 31 30 32 31 30 30 29 29 30 30 29 26 24 21 20 19 17 16 15 15 15 13 10
20 28 27 26 28 27 27 24 23 20 14 16 15 15 14 15 18 23 27 29 30 28 29 31 32 33 33 32 32 32 32 32 32 25 23 21 19 17 16 15 16 16 13 12
29 21 28 27 26 28 28 27 20 19 19 15 15 16 16 12 17 22 26 28 30 33 34 34 34 35 34 34 35 34 35 34 32 26 24 23 20 20 18 17 17 16 15 14
29 28 28 28 29 27 28 26 23 21 20 18 20 16 21 17 18 19 25 27 30 31 32 34 35 36 37 36 35 34 36 36 33 33 25 26 24 22 20 18 17 17 16 15
31 25 22 30 27 28 26 21 25 23 19 19 23 17 17 27 25 24 21 29 29 32 33 35 37 37 37 35 35 35 36 35 32 33 32 28 28 22 18 18 19 21 19 16
29 26 24 23 25 24 22 19 21 24 20 21 25 21 19 17 19 24 26 27 29 30 33 35 35 33 33 33 33 33 37 39 37 35 35 33 29 26 21 21 19 19 19 16
28 32 24 22 23 25 20 21 13 17 18 20 25 24 21 20 21 20 21 29 28 28 34 34 34 35 35 37 37 37 38 40 39 39 36 40 36 31 26 24 22 19 19 19
22 24 34 21 28 25 27 26 15 23 19 18 25 28 25 25 16 18 26 30 30 28 32 35 37 37 39 41 43 41 41 41 42 42 42 39 40 32 31 28 23 22 20 19
25 32 30 34 25 28 23 27 27 23 23 16 21 29 25 20 27 18 15 29 27 30 30 35 38 40 40 42 45 47 46 46 46 46 44 43 41 41 34 32 30 24 23 20
29 19 32 30 25 29 29 23 23 17 23 19 18 17 18 23 17 25 24 21 30 29 31 35 37 39 40 42 45 48 49 49 48 48 47 46 44 43 42 37 36 30 28 26
33 26 15 26 29 27 25 22 26 21 18 15 12 12 17 20 22 20 21 34 30 28 31 33 35 38 39 38 39 44 47 47 48 49 50 48 47 47 45 45 43 39 34 33
35 14 20 30 28 26 26 29 27 17 24 18 14 3 9 18 15 19 23 26 32 29 33 32 32 31 35 38 39 41 43 44 47 45 49 51 50 48 48 47 46 45 43 40
2 16 17 23 24 28 31 30 26 27 19 21 16 7 8 5 4 17 20 21 22 24 29 29 30 32 32 35 38 39 41 42 41 43 44 47 51 52 51 49 46 45 43 42
10 17 23 19 25 23 28 30 30 25 20 18 20 14 11 10 10 6 9 11 13 8 6 13 20 25 29 29 33 37 37 37 38 40 41 44 49 53 51 51 49 45 45 44
7 16 20 26 18 13 30 29 30 31 24 25 16 19 18 16 13 12 16 12 8 11 10 11 14 19 20 24 29 35 36 36 37 41 43 47 46 46 47 48 47 46 48 47
11 12 19 23 24 6 13 20 31 30 28 23 24 15 17 19 11 11 11 10 8 7 7 10 13 15 19 24 26 29 34 36 35 38 45 42 43 43 45 46 50 48 47 49
11 9 11 16 21 10 18 21 18 25 24 25 23 20 14 10 9 7 8 8 10 9 11 13 15 15 17 20 20 24 30 32 36 42 40 43 43 45 45 45 45 52 54 51
12 10 8 10 17 22 12 17 17 15 15 16 15 11 14 10 10 11 11 11 12 13 14 14 15 15 16 18 18 20 22 29 34 37 44 43 46 43 45 46 47 46 47 52
14 10 6 10 14 7 18 15 19 18 21 16 15 13 10 11 10 13 15 16 19 21 20 16 17 18 18 19 16 16 18 23 29 34 43 43 41 44 43 48 47 47 45 46
14 12 11 8 14 17 7 13 2 5 10 14 21 17 14 12 10 12 11 10 11 12 10 12 12 16 18 18 22 23 25 26 33 36 36 39 41 42 45 45 44 43 43 44
12 13 14 13 9 11 5 10 6 12 4 9 8 4 7 6 8 14 14 15 15 17 18 18 15 15 18 19 19 23 25 26 32 31 30 34 37 41 43 41 41 40 40 36
10 14 13 14 18 20 13 2 7 8 9 16 16 11 6 8 12 17 18 19 20 20 21 21 21 22 19 17 19 23 28 30 26 28 31 32 34 35 34 40 40 37 35 36
12 11 9 14 12 13 9 13 15 5 7 10 11 11 12 15 16 17 19 20 23 24 22 20 19 19 18 14 15 21 26 23 26 28 31 29 29 34 32 33 35 32 34 34
15 14 13 17 18 19 21 21 19 18 17 20 18 18 20 22 23 23 22 22 24 24 20 14 12 14 13 12 13 16 14 17 21 24 25 25 26 27 27 25 25 27 27 28
15 20 18 21 24 27 31 29 26 26 28 28 27 26 28 28 26 26 26 23 24 23 18 13 11 9 8 6 6 7 10 13 16 17 18 18 19 21 21 23 21 22 23 23
22 21 17 18 23 22 24 26 25 29 33 34 33 31 29 28 29 27 27 25 23 21 13 10 9 6 4 4 5 7 9 11 13 14 16 17 16 16 17 17 19 22 22 20

GFSCGP_850_spd_042.txt.gz
Wind_Speed
31 18 25 30 26 24 23 21 24 21 21 19 21 18 16 21 18 30 31 34 34 33 33 34 32 32 31 33 32 33 34 31 29 26 25 22 18 17 16 15 13 14 15 11
22 28 28 27 25 27 28 25 24 23 21 19 22 20 19 21 24 27 36 36 34 32 34 36 36 36 35 38 36 36 37 34 31 30 26 23 20 18 17 17 16 20 19 15
29 20 26 28 27 28 29 27 24 21 12 11 19 17 21 18 31 19 36 36 35 36 37 39 41 40 39 38 41 39 38 38 37 32 27 22 20 20 21 19 18 20 20 13
28 31 30 28 29 28 27 28 27 25 19 17 23 15 17 18 15 21 29 27 36 38 36 38 39 39 40 40 41 41 39 40 39 37 29 30 30 27 25 22 20 20 16 15
30 26 28 29 28 28 26 27 25 26 19 19 18 15 15 20 20 24 23 34 33 40 40 42 42 43 42 41 42 42 40 38 39 38 32 30 29 28 23 22 20 22 22 19
31 33 27 25 23 28 26 23 24 24 18 17 22 20 20 18 23 19 23 34 36 38 41 44 43 40 40 39 40 41 40 38 39 37 39 31 32 29 26 24 24 23 22 21
28 33 28 27 23 26 24 22 14 17 17 16 22 21 15 17 23 22 24 28 35 35 40 41 44 42 43 42 43 43 42 41 40 41 39 40 34 31 29 26 24 25 25 24
24 28 35 21 30 25 28 26 15 24 18 17 22 23 21 22 22 24 35 36 35 36 39 40 45 44 45 44 46 45 46 43 41 41 42 38 42 37 33 31 26 28 25 24
23 29 25 31 24 25 24 26 24 21 20 16 18 28 24 23 24 21 22 32 35 37 37 41 44 45 46 46 47 49 48 46 43 42 44 43 40 44 39 37 33 27 28 23
30 17 30 31 26 29 30 22 22 17 21 21 19 22 19 24 23 24 18 18 33 37 35 42 44 45 48 49 48 48 48 48 44 43 43 45 43 43 43 37 35 34 26 27
30 26 21 29 31 28 21 22 25 20 17 15 15 14 16 26 24 20 23 23 22 33 38 39 43 45 47 46 46 47 47 46 47 44 44 46 45 43 42 43 38 37 34 26
19 23 20 27 29 31 28 27 25 13 22 16 14 11 10 3 24 19 15 32 27 24 34 37 39 42 43 45 45 48 46 46 48 46 43 45 46 45 44 44 44 41 38 36
12 14 19 26 24 30 32 30 27 21 17 20 15 11 8 9 20 23 22 19 33 26 26 36 38 40 43 45 45 45 47 47 43 43 43 44 47 48 48 47 46 45 44 43
6 8 20 19 21 18 29 30 28 28 17 16 18 7 7 6 5 11 18 18 17 25 26 34 34 39 39 43 46 44 43 45 44 43 44 45 46 48 49 48 47 47 48 46
7 13 17 25 23 23 28 26 30 30 21 22 18 19 15 10 7 7 14 15 20 16 11 20 29 38 43 41 45 46 44 43 43 45 46 47 45 46 46 46 48 48 47 48
17 8 13 19 22 19 22 32 30 29 29 22 24 17 20 15 16 12 15 13 14 11 9 6 6 8 13 26 38 44 45 41 43 44 48 46 45 44 46 47 48 46 47 47
13 11 9 16 17 21 20 13 25 26 24 25 20 17 18 19 18 16 16 12 7 0 3 1 5 8 12 15 20 31 40 41 39 42 43 46 46 47 47 47 47 47 50 48
11 13 9 10 13 17 13 10 14 12 24 23 18 15 10 15 20 17 12 10 11 7 5 6 10 14 15 17 21 25 24 32 41 38 42 41 43 46 48 48 48 49 49 51
11 10 7 5 8 8 12 14 18 13 10 11 21 17 7 15 13 11 9 6 3 6 9 10 14 17 15 19 23 30 31 33 35 38 41 43 41 45 46 50 50 48 48 50
11 10 7 9 7 11 5 17 8 10 12 13 9 2 4 7 5 9 17 14 10 8 10 7 10 8 6 6 17 22 28 32 31 31 35 42 42 47 48 49 50 49 48 49
11 8 10 10 6 3 9 19 11 9 6 18 25 9 5 3 12 13 12 12 11 11 12 13 13 14 13 11 13 16 12 26 28 29 31 33 35 40 46 47 45 47 47 46
7 12 11 11 14 12 20 13 9 8 16 20 22 25 24 18 15 15 15 14 15 16 17 14 15 17 20 16 15 21 25 22 27 27 32 34 33 34 39 43 43 42 43 43
6 6 7 7 11 14 21 16 16 15 11 14 15 16 17 16 17 17 20 20 19 20 21 18 20 18 18 17 20 25 23 27 28 26 26 33 33 32 32 34 40 38 38 39
18 23 11 13 16 19 18 17 14 16 15 13 13 15 14 16 18 22 22 23 25 25 26 23 23 16 10 12 12 19 22 27 24 26 28 29 31 31 31 33 32 36 35 36
15 21 18 20 18 21 25 25 24 22 22 20 18 18 17 18 19 20 23 22 25 25 28 23 24 9 11 9 9 9 10 12 19 21 24 26 26 25 28 29 24 27 29 28
17 17 13 15 31 29 31 34 27 24 26 24 21 23 21 18 18 19 21 23 23 23 25 28 16 11 11 8 8 11 10 10 14 16 17 19 19 22 23 22 30 21 24 23

GFSCGP_850_spd_045.txt.gz
Wind_Speed
26 11 21 23 18 12 13 17 15 13 15 10 14 11 29 37 28 34 34 33 36 35 40 47 45 40 41 44 41 37 32 28 26 23 25 28 30 25 22 18 13 14 12 9
12 24 19 15 15 19 19 21 19 14 16 11 10 12 14 33 36 44 34 30 34 37 37 42 41 42 42 45 43 41 38 34 29 26 23 24 22 23 21 22 14 14 14 13
24 12 20 20 21 23 22 22 18 15 15 17 16 16 10 23 35 37 53 59 44 46 44 41 45 41 42 44 44 43 41 39 36 31 26 22 22 18 21 18 22 16 18 17
25 20 25 25 25 22 21 19 21 21 13 6 2 3 7 14 23 26 40 43 46 43 44 44 48 45 44 45 44 42 41 39 37 36 32 29 29 30 26 23 19 22 22 19
24 23 28 26 26 23 16 14 22 23 15 7 18 11 13 10 16 29 30 50 44 43 45 47 53 52 49 45 47 44 41 39 39 39 36 32 30 29 26 23 23 21 20 17
25 20 19 27 23 19 15 17 15 17 13 14 11 17 17 13 12 26 35 45 48 41 41 47 55 52 50 48 47 47 44 41 39 42 40 37 34 31 29 29 23 22 21 20
19 30 24 18 21 21 19 11 9 12 13 13 10 7 10 11 13 18 29 44 52 53 49 50 50 49 50 50 48 48 47 44 41 41 43 40 36 33 31 29 28 25 23 25
20 20 31 22 22 16 22 20 10 15 9 10 8 10 9 12 8 24 36 49 54 51 49 53 56 56 55 52 50 50 50 48 45 42 41 42 40 35 33 30 30 25 28 26
14 28 16 28 20 20 19 20 12 3 6 3 3 7 13 17 15 9 15 38 51 53 52 54 56 56 57 55 53 52 51 49 46 43 41 41 42 42 38 33 32 28 26 25
26 17 20 21 25 21 18 12 13 9 9 10 10 12 15 15 20 13 11 24 42 48 55 55 56 56 57 55 53 51 50 49 45 43 42 42 42 44 42 37 32 32 27 29
20 13 30 16 25 28 12 12 15 6 6 6 6 10 11 22 22 21 12 23 35 43 52 54 56 57 56 53 53 51 51 50 47 44 42 41 41 43 43 42 36 36 33 29
18 8 17 27 15 24 16 15 15 10 11 5 4 11 6 7 26 22 19 26 32 45 49 53 58 57 55 54 52 51 51 52 50 44 41 41 40 40 42 43 40 36 38 37
15 6 5 18 16 20 28 22 18 8 6 9 10 10 4 11 15 27 20 29 26 43 44 50 54 53 51 54 54 51 51 50 49 47 44 41 41 41 41 41 41 40 40 40
28 13 17 11 15 7 12 24 21 16 10 10 16 5 10 11 10 9 17 21 35 31 44 47 49 50 51 53 53 51 49 49 47 46 45 44 42 41 42 41 41 42 42 42
10 10 16 14 12 9 15 25 23 20 16 15 12 8 8 1 7 7 17 18 22 27 40 45 47 49 51 52 52 49 48 48 46 44 44 45 43 41 40 42 43 43 44 45
16 8 15 5 9 11 17 18 26 20 19 16 10 9 8 8 21 21 25 24 25 20 33 34 39 46 53 56 53 50 50 48 46 46 44 41 40 41 41 42 42 42 44 44
14 9 9 4 4 5 5 17 17 20 18 19 17 8 7 6 10 15 25 24 23 22 23 19 18 21 42 48 52 50 49 48 47 47 47 45 43 41 40 38 41 43 44 43
22 18 4 5 5 2 7 8 9 16 13 14 12 9 15 9 12 19 28 27 19 21 19 18 15 11 10 10 38 50 50 50 46 46 49 47 48 46 43 42 43 42 43 44
17 11 5 3 0 3 4 13 13 2 11 24 17 4 11 28 37 28 34 34 31 26 21 15 14 12 10 11 15 24 36 49 49 46 46 48 48 48 47 47 46 44 44 44
15 8 3 4 4 3 18 26 37 15 11 21 21 24 18 23 13 5 27 28 26 23 21 14 8 7 4 7 4 16 32 34 42 49 46 42 41 44 45 46 47 47 47 46
7 4 3 5 3 6 19 28 21 8 5 19 27 27 31 20 14 25 28 29 24 19 16 10 3 4 12 7 5 2 14 26 32 33 35 40 41 42 43 43 44 46 47 48
5 2 1 2 4 4 21 19 18 4 18 22 26 30 30 31 31 30 29 27 27 23 14 10 6 6 8 12 14 10 9 9 18 29 35 29 31 34 39 41 43 45 45 46
5 2 3 7 5 5 11 21 26 28 21 25 24 25 24 25 25 24 25 24 21 22 18 13 14 11 7 9 11 13 14 17 18 19 22 25 30 31 33 35 37 42 42 42
10 13 3 11 12 17 25 20 27 35 35 23 21 21 20 19 19 19 19 19 21 21 21 17 18 17 18 12 5 10 17 17 20 21 23 26 28 27 30 30 30 32 37 41
8 14 17 14 10 29 16 27 29 35 35 32 32 23 15 15 12 14 14 18 17 20 19 19 20 21 17 15 9 9 13 18 21 19 23 27 30 30 29 29 30 31 31 34
10 8 5 9 32 25 37 43 38 35 36 30 30 29 25 18 14 13 12 15 17 17 20 18 18 20 17 19 20 19 17 15 15 14 18 21 24 26 27 27 28 29 24 25

GFSCGP_850_spd_048.txt.gz
Wind_Speed
19 10 16 23 12 6 6 7 10 6 10 25 21 22 20 37 32 33 37 36 39 42 44 45 42 46 42 40 40 41 44 40 33 33 31 30 28 29 24 18 15 14 11 9
4 18 18 6 9 11 14 11 14 15 12 10 17 19 23 26 33 44 39 38 40 39 43 43 42 50 47 47 45 43 45 41 36 30 27 34 33 30 28 23 16 14 14 13
19 7 15 15 14 15 15 16 16 11 6 8 7 6 19 24 32 35 38 47 46 44 49 48 46 48 49 50 50 47 46 42 36 31 28 25 32 34 30 29 24 19 15 15
16 20 19 17 21 18 16 20 18 17 7 5 6 12 9 23 19 24 36 38 42 43 44 48 51 52 51 53 49 51 48 43 38 35 31 29 31 34 35 31 29 23 18 16
17 21 24 22 26 20 19 14 14 17 5 2 15 6 11 28 23 23 28 40 37 46 46 45 52 54 57 53 54 56 49 45 41 38 35 32 30 31 29 27 24 21 22 18
15 19 21 27 17 20 13 11 9 6 4 10 16 6 9 21 29 29 35 37 42 41 44 47 49 51 56 56 55 56 52 48 44 40 37 35 34 30 30 27 25 24 23 20
18 22 23 14 19 14 13 7 7 4 7 9 9 6 13 26 29 35 36 38 44 43 48 51 50 50 52 56 55 56 53 51 47 43 40 38 37 32 31 30 29 25 25 23
15 19 23 21 12 19 14 11 6 9 5 7 6 9 12 12 22 53 59 54 51 47 44 47 53 55 56 59 56 56 55 52 50 46 42 38 37 35 33 31 30 31 26 24
9 16 4 20 19 15 11 18 11 5 2 4 4 5 9 12 7 24 36 39 42 48 48 47 50 57 59 59 61 59 57 54 51 48 44 40 39 38 37 34 32 30 29 27
5 9 12 28 11 20 18 9 9 4 12 5 5 6 10 11 12 14 29 40 48 49 47 47 51 56 57 63 63 60 58 55 52 49 45 42 40 40 39 37 33 32 31 27
9 5 13 4 10 23 4 15 6 7 6 10 4 10 8 11 12 10 20 48 51 53 52 53 49 55 60 61 61 60 58 54 52 48 45 44 43 42 42 41 37 33 30 31
9 6 7 10 12 4 21 8 10 9 10 3 4 12 6 12 12 11 17 46 53 56 55 55 47 55 50 51 56 59 57 55 51 46 47 45 43 40 42 43 41 36 35 34
8 3 8 10 4 3 5 12 10 7 6 10 13 15 6 6 8 20 26 34 53 56 55 56 46 49 50 52 56 57 57 53 49 46 44 43 43 41 40 42 42 40 37 36
9 4 9 8 9 10 5 12 9 17 8 10 11 11 7 15 14 16 18 33 43 52 53 52 49 51 52 56 58 57 55 50 46 46 43 42 42 41 39 37 38 40 38 38
2 8 11 20 27 25 24 12 13 14 14 14 11 7 9 9 12 8 13 29 35 45 51 53 51 49 53 54 56 55 53 49 46 45 43 40 37 37 36 36 36 37 38 38
3 5 15 23 18 18 18 6 7 13 17 6 8 8 8 7 18 8 14 29 31 41 51 54 55 56 57 57 56 56 53 49 46 44 42 38 38 38 38 36 35 35 37 38
5 4 6 6 6 6 5 13 7 6 7 9 11 10 4 8 9 17 11 27 27 30 44 49 53 57 60 58 54 52 51 49 47 44 42 40 39 40 39 38 38 38 37 36
8 9 4 5 8 6 8 20 15 19 21 20 12 10 14 18 25 36 32 31 36 31 24 27 36 39 41 44 48 47 46 47 46 44 41 40 39 37 35 36 36 35 37 37
12 8 4 3 4 4 11 18 13 6 17 22 19 5 17 26 42 30 32 32 33 34 34 34 28 28 38 34 36 38 40 41 43 45 44 42 41 39 36 38 36 32 33 35
11 10 7 4 2 4 13 27 38 4 17 21 23 21 17 13 14 5 27 28 29 30 30 29 30 31 28 19 29 37 40 44 45 44 44 42 41 42 40 38 37 36 37 37
4 7 5 4 3 5 21 29 20 10 5 18 24 24 25 14 8 17 27 30 29 27 27 23 22 22 21 20 17 15 29 36 38 42 42 43 42 41 39 40 39 40 41 41
3 1 4 7 5 5 22 13 8 6 16 26 26 24 25 27 27 29 32 31 30 29 26 25 23 20 14 11 12 12 11 9 13 23 35 39 44 42 39 37 37 38 40 41
5 4 1 3 2 5 4 7 8 16 18 27 28 33 24 22 24 25 26 28 28 29 28 27 22 22 22 13 6 6 3 4 5 6 13 23 28 34 35 36 36 37 37 38
10 19 4 7 4 12 22 17 11 23 27 29 25 27 31 23 21 21 22 23 24 26 27 24 23 20 18 16 11 8 2 3 7 9 11 15 20 21 27 32 35 36 37 37
7 7 10 8 7 18 3 5 23 38 39 36 26 24 22 25 26 21 23 23 22 22 22 22 22 20 15 11 10 9 9 10 10 12 16 18 22 25 27 29 32 35 34 33
13 6 4 4 20 21 30 39 35 31 37 37 31 27 20 19 18 18 18 20 22 20 21 18 15 15 13 9 9 9 11 14 17 17 16 16 17 19 24 26 29 32 33 32

GFSCGP_850_spd_051.txt.gz
Wind_Speed
15 5 17 28 17 4 4 5 6 6 7 15 17 11 18 28 26 28 30 33 34 38 43 44 44 39 41 39 37 35 35 33 32 31 29 27 24 21 17 13 13 12 8 5
6 18 19 6 8 11 7 5 6 7 5 14 16 17 18 21 31 40 38 38 40 37 40 45 48 43 44 42 42 40 38 37 36 35 30 28 27 27 22 17 13 13 12 8
9 3 14 10 10 14 13 13 9 8 2 8 6 17 14 22 19 25 32 36 34 41 44 46 47 50 49 47 47 46 41 40 40 37 35 32 29 29 29 25 21 16 14 12
13 14 17 18 17 12 13 13 15 11 3 5 8 5 14 20 20 20 32 35 37 40 42 44 47 50 52 53 51 47 46 43 43 42 37 33 30 35 33 32 26 21 16 14
14 14 18 16 20 17 13 6 8 8 4 2 13 2 6 17 18 24 28 36 42 43 44 50 52 52 54 54 53 50 48 47 43 45 40 35 31 32 35 34 29 26 21 17
10 17 16 26 11 14 4 4 3 2 4 10 16 7 5 17 22 27 33 39 42 43 45 52 54 51 50 55 55 54 52 50 47 48 44 39 34 30 31 32 34 31 27 24
8 20 15 7 16 10 10 9 4 4 5 12 8 6 13 21 24 25 28 43 45 43 41 42 45 49 54 53 56 55 55 52 49 51 47 41 36 32 30 30 31 31 27 26
5 8 14 10 16 14 11 12 6 9 4 10 5 7 6 16 24 36 42 47 45 40 38 41 45 55 55 57 58 56 56 56 51 54 49 43 39 34 31 30 30 31 30 26
4 7 11 19 14 17 12 19 10 4 3 3 4 4 5 8 12 21 30 31 36 41 43 47 46 49 55 56 58 58 57 55 54 56 51 46 41 37 34 32 30 31 30 24
2 6 7 13 11 15 16 8 9 5 9 6 4 5 9 13 11 18 21 25 32 43 44 41 44 49 53 56 57 56 56 56 54 56 52 48 43 38 35 34 34 31 30 28
1 3 8 8 6 24 6 14 7 6 4 11 2 8 6 11 17 16 20 33 37 43 49 50 44 50 53 51 54 56 58 57 57 55 51 49 46 42 38 35 35 33 31 30
2 1 6 10 14 15 8 8 8 10 14 2 7 14 2 10 11 18 26 34 41 46 49 53 49 46 50 47 48 56 58 59 57 52 51 51 47 43 42 37 34 34 33 31
1 2 6 8 2 4 3 3 14 4 4 12 17 12 5 6 6 19 22 31 31 39 45 51 43 43 52 51 50 53 56 57 57 53 53 52 50 46 43 39 36 34 35 34
5 5 7 7 8 14 11 20 19 11 12 6 14 10 8 9 8 9 18 27 33 40 48 45 43 46 55 51 53 54 54 53 53 52 51 50 49 46 43 38 37 35 35 36
1 5 8 11 18 20 20 23 24 14 14 15 13 10 10 11 8 8 20 24 33 44 48 45 48 47 51 51 50 53 50 48 49 49 50 49 46 43 39 37 35 34 34 36
2 3 3 8 22 19 19 19 18 20 21 6 4 11 6 5 8 19 21 24 30 34 46 48 51 48 49 57 54 51 47 46 46 46 45 43 43 42 39 36 36 34 35 34
4 4 3 6 8 13 5 7 13 12 16 4 7 3 8 7 13 17 25 17 21 34 42 46 51 50 53 59 56 52 48 47 47 47 45 44 44 41 39 36 36 36 34 34
6 3 2 6 7 7 9 8 5 23 22 20 10 5 6 15 18 33 31 25 7 16 34 45 47 48 52 54 55 48 47 46 45 45 44 43 42 40 38 37 37 36 35 35
6 2 1 3 7 8 1 6 9 5 16 23 20 18 6 8 25 27 34 30 25 17 20 30 37 41 40 47 46 45 44 44 43 42 41 40 38 36 35 34 33 33 33 33
8 5 2 3 4 5 4 18 23 11 10 20 23 19 18 14 9 6 26 27 27 28 19 21 30 31 32 35 40 42 42 41 40 39 38 38 35 34 34 31 28 27 30 29
5 3 9 10 5 1 9 23 24 6 1 19 22 25 23 12 6 16 26 28 29 29 30 28 24 28 30 33 34 34 35 34 34 37 36 34 32 33 35 34 32 30 31 31
3 2 1 3 4 4 22 8 6 4 3 12 22 27 27 20 21 26 29 32 32 31 33 33 30 29 25 20 27 29 27 27 27 27 29 31 33 34 34 35 33 34 34 34
4 3 2 2 2 3 12 9 12 13 10 17 24 27 27 27 20 24 26 28 30 31 32 30 33 32 27 23 22 23 19 15 13 14 16 20 24 27 28 30 30 33 33 32
6 13 3 8 3 13 19 2 3 13 19 18 23 23 20 22 23 20 22 23 25 27 26 27 27 28 27 24 20 17 13 10 9 8 8 7 10 14 19 23 26 29 30 30
6 9 6 5 8 22 7 14 25 20 18 24 23 19 16 14 17 20 18 20 20 21 20 21 24 23 20 18 17 16 12 7 4 6 7 8 9 12 16 18 21 25 27 29
11 3 3 4 19 12 23 23 15 15 18 18 21 22 15 14 11 14 15 14 16 17 16 17 17 17 16 12 11 9 7 6 5 4 9 12 13 14 16 19 22 25 27 28

GFSCGP_850_spd_054.txt.gz
Wind_Speed
7 4 18 22 12 2 4 5 6 6 6 6 11 6 15 23 21 24 31 35 37 39 39 40 41 40 37 38 36 33 32 31 31 29 29 26 22 18 15 14 13 11 8 6
3 14 11 5 5 6 6 2 4 4 3 8 7 13 14 20 28 36 35 35 35 32 35 39 43 41 41 41 39 35 33 33 32 32 31 28 23 20 15 13 13 14 10 7
7 6 11 9 6 10 11 7 4 2 3 6 2 7 9 14 13 22 25 31 34 39 38 40 44 46 44 44 42 39 36 36 34 32 31 29 27 23 21 20 16 13 12 10
9 8 11 13 14 9 11 12 14 5 1 4 6 4 7 11 18 19 27 31 33 36 38 40 44 45 49 47 43 40 39 38 36 34 33 31 29 28 27 25 21 16 12 11
6 8 10 12 20 14 13 7 10 8 4 3 4 0 7 12 12 18 25 33 35 39 43 44 48 52 50 48 45 43 41 40 39 38 37 34 33 30 28 27 25 23 19 14
8 6 7 16 9 14 3 1 4 3 4 10 13 9 6 7 13 16 23 34 37 39 43 45 44 45 45 49 46 46 44 43 41 40 38 39 37 33 30 30 31 28 25 22
6 5 5 5 7 8 12 9 2 3 4 15 9 9 12 6 11 17 23 36 41 42 38 44 43 48 48 49 52 49 50 47 45 42 41 40 40 36 30 27 27 31 31 28
4 4 6 1 10 8 11 12 6 8 6 14 6 8 6 19 13 28 28 38 35 34 40 47 50 51 53 54 53 50 50 51 49 44 41 39 39 39 34 29 25 26 28 28
4 6 5 5 1 3 6 16 11 4 3 1 9 4 8 5 11 14 24 22 30 37 40 41 46 50 54 55 54 53 52 49 48 46 44 42 39 42 39 31 27 25 25 25
2 5 3 6 5 8 8 6 7 4 7 5 4 6 8 9 9 9 8 20 28 36 38 42 39 46 49 55 55 54 52 52 50 45 45 44 41 41 40 35 31 28 26 26
2 4 7 5 6 10 7 8 5 7 7 7 2 6 7 11 14 14 11 26 32 36 42 48 48 49 47 47 51 52 53 54 54 52 46 45 44 43 43 39 34 29 27 26
2 2 6 9 7 3 3 4 4 8 12 7 3 7 5 10 9 14 20 30 34 39 45 48 50 47 43 46 48 50 52 54 54 52 49 46 45 44 44 42 36 31 29 28
2 2 5 7 1 5 3 2 6 5 3 15 14 7 6 6 6 17 18 21 33 37 41 41 34 40 48 50 48 50 50 53 51 50 50 48 48 46 43 41 38 35 31 29
1 3 7 6 2 4 5 8 6 4 3 5 15 10 7 9 8 9 18 23 21 27 35 38 39 42 47 53 52 50 49 49 48 49 48 48 48 45 42 39 39 37 34 31
2 5 5 15 16 10 11 15 13 5 11 5 4 11 9 12 11 7 11 12 17 20 26 33 40 45 49 47 49 49 47 44 44 46 46 46 46 45 43 40 38 37 35 34
1 4 7 14 14 15 14 16 14 15 17 13 16 10 4 7 6 9 8 13 15 23 28 35 40 44 49 51 55 53 48 45 42 43 42 41 43 45 43 38 37 38 37 35
6 3 4 5 4 5 8 15 8 7 13 5 6 2 5 4 9 10 13 14 16 20 25 30 43 47 50 54 53 56 53 44 39 38 38 40 41 41 41 38 37 38 37 35
7 4 2 5 4 3 3 5 19 15 13 14 9 13 5 8 13 18 22 20 16 16 17 24 36 47 53 51 50 49 48 42 35 39 40 38 37 36 38 38 38 37 36 35
7 5 3 3 3 5 7 7 6 4 7 14 13 14 12 13 11 11 28 20 17 12 10 20 34 40 41 46 47 47 44 42 39 40 39 37 36 36 36 37 37 36 35 34
6 4 2 3 3 6 7 13 5 2 5 13 15 14 14 7 6 5 28 28 19 14 2 15 28 32 34 38 40 44 42 41 39 39 36 34 32 32 33 32 32 32 32 31
4 3 7 7 2 7 14 20 4 4 2 13 17 17 17 6 3 13 28 32 26 22 14 13 21 28 31 32 35 36 38 40 38 34 32 30 29 28 27 27 27 28 27 26
4 4 3 4 4 3 22 8 6 3 4 13 18 19 18 22 23 26 30 34 35 34 26 24 18 23 27 27 28 28 29 30 29 26 25 23 23 24 25 26 24 25 25 26
2 1 2 2 1 10 18 12 7 9 10 13 18 19 16 24 27 27 30 34 35 38 37 34 33 22 20 27 24 23 25 25 24 23 20 19 20 22 23 23 22 24 24 27
5 9 1 3 3 8 7 3 4 18 14 12 15 15 14 17 23 26 27 30 31 33 34 32 33 35 35 29 23 19 16 15 17 18 18 19 21 21 22 22 23 23 26 27
3 8 6 2 7 7 3 16 15 17 13 12 10 13 15 14 16 19 23 26 27 28 28 28 30 30 26 22 23 23 19 15 16 16 14 12 11 12 15 19 22 24 23 24
13 2 2 3 16 7 6 19 24 18 14 12 12 12 14 15 14 13 14 17 19 22 23 23 24 25 24 20 15 14 14 13 12 11 10 9 9 10 11 13 16 18 21 23

GFSCGP_850_spd_057.txt.gz
Wind_Speed
10 11 21 20 13 13 9 7 16 11 9 10 14 11 12 18 19 21 25 29 32 35 34 30 29 30 30 34 35 33 32 30 28 28 28 26 23 17 15 13 11 9 9 9
6 19 17 11 13 14 17 6 12 14 3 10 8 15 13 19 24 30 33 32 34 32 34 33 32 32 32 35 37 35 34 33 31 31 30 29 23 19 16 14 13 12 10 8
14 3 15 14 14 16 18 19 8 7 6 10 7 15 13 15 17 19 23 27 27 33 38 38 36 35 33 35 40 39 36 34 34 34 31 29 25 21 19 16 13 13 12 9
13 17 9 16 21 18 19 17 17 10 5 12 13 12 13 15 19 20 27 30 32 35 36 36 38 37 37 37 40 41 39 35 36 34 35 32 30 27 23 19 15 12 10 11
9 12 18 14 16 19 14 11 16 19 13 10 11 9 17 11 17 21 27 32 34 36 38 40 42 42 40 35 40 42 40 36 36 37 35 33 31 27 24 21 18 17 15 11
10 9 13 18 13 17 10 4 12 15 14 16 20 13 15 13 19 20 25 31 34 35 37 37 37 36 39 36 37 43 42 40 38 38 37 35 33 29 26 24 22 22 20 18
3 11 9 12 14 17 20 14 7 8 11 19 18 16 17 14 15 17 22 32 36 36 37 37 36 39 41 42 41 46 44 43 43 42 40 38 35 32 30 27 24 25 25 24
3 10 11 8 20 13 20 20 8 13 13 16 17 13 14 26 23 13 20 26 26 31 34 36 38 41 46 48 49 46 47 44 45 45 44 41 38 35 33 32 29 25 26 27
3 6 2 4 4 17 15 22 21 9 4 10 14 21 13 14 20 25 22 18 24 30 34 37 38 39 43 47 48 47 46 46 46 46 45 44 41 38 35 33 30 27 24 22
1 7 2 4 4 13 16 16 17 13 17 12 8 21 15 21 16 17 19 22 23 27 30 33 37 41 43 45 47 45 44 43 46 47 47 45 43 38 35 32 31 31 24 21
1 2 4 6 8 20 13 12 14 16 16 14 12 10 16 19 20 17 18 28 27 27 31 34 37 41 46 44 48 48 46 44 45 46 47 45 44 42 38 35 31 31 28 24
1 3 6 9 7 5 6 10 23 12 20 19 13 14 4 16 20 25 26 24 28 29 31 34 35 35 37 45 48 50 51 49 46 46 46 46 43 41 40 37 34 31 30 27
4 3 5 7 8 4 5 1 7 12 8 20 18 15 12 9 7 10 16 18 20 25 25 27 27 35 38 44 49 48 48 50 50 49 47 47 46 44 41 39 36 34 32 30
3 3 8 10 11 11 8 7 4 10 15 18 15 19 23 20 11 11 8 10 11 18 21 24 27 34 40 43 48 51 48 44 47 48 48 48 47 45 42 39 37 34 33 32
3 6 8 16 18 17 18 20 17 11 14 13 19 16 18 19 22 23 19 5 7 8 11 22 31 39 42 41 45 47 49 46 44 46 45 45 43 43 43 42 38 34 33 32
5 5 7 17 16 15 19 21 19 18 17 12 14 12 8 12 9 4 6 6 8 11 10 13 23 30 38 43 45 47 49 49 46 45 44 40 40 40 40 40 39 37 34 33
6 3 5 7 9 14 11 22 19 13 6 17 16 6 11 10 2 6 8 10 11 13 16 17 20 26 35 40 43 46 47 48 47 44 40 39 39 39 38 36 38 39 37 35
8 6 3 8 11 6 1 9 13 13 5 7 8 4 9 4 5 9 11 11 14 14 17 22 22 26 35 38 37 39 40 46 46 42 39 38 38 37 35 36 37 36 37 36
17 8 5 5 7 10 8 7 4 2 3 4 4 6 9 11 11 5 18 15 15 18 20 22 25 28 31 36 41 43 42 42 43 39 39 38 37 36 36 36 36 35 35 35
12 14 8 7 6 5 3 15 16 10 6 8 8 9 9 4 6 6 22 19 17 15 18 22 21 22 27 35 42 45 43 41 38 38 38 37 33 30 30 30 31 31 32 32
7 8 13 12 8 9 4 22 18 6 5 5 10 10 11 8 5 11 16 19 15 11 10 6 10 18 27 36 40 42 39 39 36 38 38 37 35 35 33 30 31 32 33 33
8 8 6 7 6 9 15 13 5 5 2 6 9 10 10 9 10 15 18 25 29 25 17 12 11 20 24 29 31 34 35 34 35 35 37 34 31 30 30 30 30 30 30 30
5 3 2 3 2 5 11 8 15 9 10 6 9 11 10 10 15 18 25 29 33 38 36 28 21 22 16 20 24 26 27 27 25 25 27 25 26 27 27 27 28 28 28 29
2 1 3 2 2 6 4 10 7 9 8 7 8 10 11 11 13 18 23 25 29 33 38 42 38 33 26 19 17 16 16 19 22 24 25 25 25 25 26 25 25 26 27 29
4 8 4 4 7 3 4 14 13 9 7 7 7 10 11 12 14 16 18 20 23 25 28 33 37 37 34 30 24 19 13 13 18 21 23 23 24 25 26 26 24 27 27 25
14 6 3 3 17 10 19 19 18 17 14 11 11 12 12 13 14 16 16 17 18 20 22 23 28 30 30 28 24 21 19 17 16 17 15 17 11 21 24 23 25 25 26 21

GFSCGP_850_spd_060.txt.gz
Wind_Speed
17 15 20 20 18 17 8 12 18 14 11 15 17 14 14 15 17 20 23 27 30 33 33 31 31 30 29 27 26 25 25 23 23 22 20 17 16 14 11 10 11 9 8 8
12 19 18 16 14 14 16 12 14 14 10 9 17 18 14 17 18 22 24 27 29 30 33 34 32 33 32 30 29 28 27 25 28 22 21 18 16 13 11 10 13 10 9 8
18 5 19 15 15 17 19 19 12 14 12 9 17 17 16 16 17 19 21 24 26 30 34 36 34 35 34 33 32 30 30 29 30 23 22 20 16 14 13 13 12 12 11 9
17 21 7 18 20 18 20 18 16 13 11 14 21 15 21 19 19 19 24 27 29 31 32 34 36 36 38 36 32 31 31 34 33 32 24 24 21 18 16 14 12 11 13 11
11 12 19 17 17 20 16 14 14 17 15 15 16 13 16 24 19 21 24 28 29 31 34 36 39 38 37 36 35 33 31 34 33 36 29 26 24 19 16 16 15 13 12 12
17 7 14 23 18 11 13 16 14 15 16 18 23 18 18 18 22 22 24 28 30 31 34 35 36 35 36 35 35 34 35 40 39 37 38 32 26 23 20 19 16 15 13 13
17 17 17 15 17 20 17 17 10 11 14 21 23 21 18 18 19 21 19 28 31 32 34 35 38 39 38 39 38 37 37 42 43 39 38 39 34 28 23 20 19 17 16 15
9 14 20 18 21 19 23 21 12 20 16 19 23 25 23 26 17 22 25 24 28 29 31 35 38 39 39 40 41 39 39 44 44 43 40 40 37 30 27 24 20 18 17 16
5 12 3 7 14 20 20 23 25 25 16 16 18 20 18 23 28 16 18 21 25 28 31 35 37 39 39 41 44 45 42 44 46 43 43 42 40 38 28 27 24 22 19 17
3 8 8 4 8 19 20 17 21 18 22 22 17 20 20 19 22 26 24 22 24 24 27 31 34 37 39 39 40 41 40 41 44 43 43 43 43 41 39 30 30 25 21 22
5 6 6 5 12 19 17 22 18 20 18 19 18 15 14 21 26 23 24 31 26 22 25 29 33 37 39 37 38 41 39 39 41 45 41 42 41 41 41 37 35 32 28 26
3 7 12 17 14 8 14 14 27 16 28 22 16 15 7 9 19 24 27 30 32 30 27 28 29 32 36 39 40 42 40 39 38 43 48 47 43 43 37 41 38 34 31 29
4 6 9 16 18 18 17 16 19 19 22 26 20 19 9 7 7 21 24 28 24 25 27 26 25 29 35 38 41 42 42 40 38 39 41 43 44 42 41 42 39 36 33 30
3 12 11 13 10 10 5 10 7 17 18 21 21 18 24 16 8 7 9 8 11 15 20 22 24 27 31 36 41 44 42 40 39 38 39 41 48 47 45 44 42 38 35 32
7 14 13 14 15 14 16 18 17 19 18 22 20 22 17 18 19 15 18 7 5 6 13 23 26 27 30 34 38 42 41 40 40 43 41 42 47 47 46 45 42 39 37 34
11 13 11 15 17 18 20 21 20 21 20 19 23 23 20 11 8 12 11 7 9 6 6 10 18 23 27 31 36 39 44 43 43 46 48 46 48 48 47 46 43 41 38 36
12 11 11 15 13 11 16 22 22 22 20 20 23 19 19 9 12 9 8 9 9 8 9 11 12 17 24 29 32 37 44 42 43 47 48 49 49 49 47 45 44 44 41 38
8 11 12 11 10 15 11 16 15 26 20 21 18 23 18 12 9 3 2 6 9 10 11 13 15 18 21 23 26 28 32 41 44 44 47 47 46 47 46 45 44 43 41 40
18 9 7 10 11 15 12 10 10 12 20 9 14 17 18 17 14 9 7 8 11 14 15 16 17 20 19 23 27 30 32 36 41 46 49 49 45 45 45 44 45 43 41 40
17 17 7 11 5 12 7 9 19 10 8 8 9 11 13 15 13 5 12 12 13 14 14 16 18 20 23 25 26 33 35 36 44 47 46 47 45 43 43 43 42 41 40 39
8 6 13 13 9 9 5 8 15 7 2 6 4 4 7 5 7 8 12 12 11 13 15 17 15 17 23 23 28 37 37 41 41 33 33 37 40 41 39 39 37 37 37 34
10 9 9 11 12 14 9 1 4 7 19 9 10 6 4 2 7 12 14 15 16 16 17 15 10 8 10 17 29 35 40 31 29 30 31 35 37 34 31 34 33 33 33 34
5 1 3 4 4 10 6 14 14 13 16 14 10 9 7 4 8 12 15 15 21 21 19 18 15 6 3 11 20 26 29 29 27 29 32 32 31 32 32 33 33 31 33 28
3 4 3 2 2 8 12 10 11 13 12 12 10 9 7 7 9 11 13 17 22 28 31 23 18 20 15 12 12 17 21 25 27 27 27 26 26 25 25 23 24 25 26 27
3 4 2 4 9 11 8 12 10 13 0 4 5 5 8 9 10 13 15 19 20 24 24 27 25 20 21 17 15 12 12 21 23 22 22 21 21 22 21 21 19 21 21 23
13 6 4 2 10 6 8 13 12 13 12 9 7 7 7 10 10 12 16 19 19 19 21 22 25 25 23 18 17 21 19 18 20 21 20 20 20 18 19 19 19 23 24 25

GFSCGP_850_spd_063.txt.gz
Wind_Speed
23 15 19 22 20 21 18 18 20 17 12 17 20 14 16 22 23 24 25 29 32 33 32 32 31 30 29 27 26 26 25 24 22 18 18 16 14 12 11 9 7 7 8 7
13 21 20 18 18 19 20 14 18 18 16 14 16 15 16 19 20 25 26 29 31 32 33 34 33 32 31 30 28 28 28 26 25 20 19 16 16 13 11 9 9 8 9 8
21 11 20 21 19 17 19 19 17 14 17 16 15 12 16 17 21 23 24 27 29 33 36 36 36 35 33 32 31 30 31 29 27 21 20 18 16 13 13 13 10 10 9 8
20 23 9 22 21 19 19 18 19 16 17 15 20 14 10 10 18 20 25 26 30 32 34 36 36 37 37 35 31 31 32 32 28 28 21 22 19 18 15 14 12 12 12 10
16 18 23 19 20 19 18 17 17 18 18 17 20 17 19 34 27 23 24 29 30 32 35 38 40 39 38 36 34 33 33 33 30 33 25 25 22 18 15 14 15 13 12 12
17 17 15 21 17 15 18 18 17 15 15 18 24 20 19 15 13 26 29 31 30 32 34 36 37 35 35 36 35 34 36 37 36 34 33 28 26 22 18 17 15 14 12 12
18 21 17 13 17 21 16 18 13 14 15 19 24 24 19 17 25 27 28 33 33 33 34 35 37 39 39 40 40 39 39 40 41 39 37 35 30 28 21 19 18 16 15 14
12 16 21 17 21 19 22 21 14 24 15 21 25 27 23 25 19 21 26 39 36 36 35 36 39 40 42 42 43 42 41 42 42 43 41 40 38 26 25 23 20 19 16 15
10 20 3 5 15 21 21 24 26 25 21 17 19 28 24 25 25 18 15 32 27 39 36 36 37 39 40 42 45 45 43 44 42 41 43 42 40 36 27 25 25 20 20 16
9 13 16 4 6 18 19 16 21 18 25 26 20 23 19 25 24 26 18 16 34 37 33 34 35 37 39 40 41 42 44 43 42 42 44 42 42 40 35 31 27 25 21 22
15 10 16 17 12 17 16 20 18 19 23 20 19 15 18 24 25 22 25 23 23 28 31 32 33 36 38 37 38 41 42 41 41 42 43 42 40 38 41 36 34 31 25 22
9 13 14 23 13 15 21 24 24 17 22 21 21 16 6 19 24 23 24 33 30 28 29 32 30 33 36 38 39 41 42 42 42 42 45 44 41 39 37 43 41 33 31 29
10 10 13 19 15 17 19 23 17 19 22 24 20 19 14 6 3 14 25 31 32 33 29 25 27 31 34 37 39 40 41 42 40 40 43 43 42 43 42 40 42 38 36 33
8 14 17 15 8 13 14 26 24 22 18 22 21 22 24 10 5 11 16 23 30 32 35 31 32 30 31 36 40 41 41 40 38 38 40 44 46 45 43 42 41 41 39 36
10 18 19 19 21 15 17 19 15 22 19 20 21 25 23 20 13 8 6 10 11 6 11 31 29 27 30 33 38 40 40 40 39 41 41 46 47 45 42 43 42 43 40 39
15 17 18 20 20 17 20 20 19 22 22 21 21 25 23 21 30 20 8 10 3 6 6 9 17 21 24 28 35 37 42 42 42 43 45 43 44 45 45 44 45 44 44 42
14 8 13 19 19 22 22 24 24 24 25 23 22 22 19 18 9 20 8 5 5 10 8 6 9 13 24 27 29 35 42 42 41 42 44 43 44 46 48 47 47 47 46 43
13 11 11 13 18 17 17 16 18 20 27 25 25 25 25 26 20 14 8 5 7 10 11 12 12 13 14 21 27 29 32 42 43 46 41 45 44 46 47 46 48 47 45 45
19 13 6 5 13 14 24 5 7 9 17 26 25 24 30 29 32 18 7 2 7 11 14 15 15 15 15 18 20 27 33 36 43 42 49 47 48 46 46 49 50 49 47 46
20 17 10 13 11 17 16 6 10 9 12 22 11 13 12 20 13 10 11 7 9 11 12 15 16 16 18 21 22 24 32 36 43 47 49 47 45 44 45 48 51 52 49 47
13 12 16 15 12 11 7 4 9 7 0 20 16 19 14 11 12 12 13 12 11 12 12 15 14 16 19 20 23 30 31 38 42 41 39 41 43 44 42 40 41 47 49 36
8 7 11 15 17 17 16 10 6 7 14 14 15 12 15 14 10 13 11 13 14 14 13 13 12 8 10 17 24 31 37 34 34 35 39 39 40 40 38 40 40 40 42 41
3 4 4 5 7 5 8 9 15 17 19 16 15 12 13 14 10 10 11 11 12 13 13 12 10 6 2 2 11 25 31 27 33 35 37 37 37 38 37 38 39 35 36 34
5 7 4 6 5 10 19 15 17 21 18 19 13 9 10 10 10 10 11 12 11 12 14 14 9 10 4 5 7 12 16 25 28 32 32 34 35 37 37 33 31 30 30 32
3 5 4 5 13 25 18 13 15 17 11 2 1 3 6 6 8 8 9 11 12 12 14 17 15 13 10 8 8 11 17 22 25 28 30 32 31 35 38 32 31 30 28 29
5 4 3 1 4 7 4 14 15 15 13 6 5 5 5 6 7 4 6 10 12 12 12 17 17 16 15 10 10 9 15 17 24 27 28 30 31 31 31 32 33 31 30 32

GFSCGP_850_spd_066.txt.gz
Wind_Speed
22 12 16 20 21 21 20 21 19 17 19 13 11 20 14 12 17 13 29 35 35 34 33 34 32 31 31 29 30 27 25 25 25 21 20 16 11 11 7 11 14 5 6 6
13 19 19 19 20 20 21 21 20 17 20 15 14 15 14 19 15 8 28 33 38 38 35 35 33 33 32 33 30 30 29 27 26 19 20 16 16 13 13 11 9 5 9 9
20 14 23 21 19 19 19 20 18 17 16 18 16 14 13 12 8 16 31 32 35 42 41 38 36 36 35 35 33 35 33 27 27 24 22 19 17 17 12 14 12 7 6 7
20 22 19 20 22 19 19 16 19 19 18 14 18 10 11 13 15 22 30 34 35 38 40 39 38 38 38 37 36 34 36 31 30 26 23 23 20 15 18 18 12 7 9 6
16 20 20 21 17 21 18 18 15 16 18 19 23 13 11 24 16 18 26 31 39 38 43 43 43 41 39 38 40 37 35 36 31 33 26 25 22 19 15 14 18 15 11 11
15 21 15 19 20 16 16 18 17 18 15 16 21 19 16 19 20 17 32 43 43 41 41 44 44 41 39 38 40 38 37 39 37 34 31 29 28 22 16 17 18 17 12 13
16 18 18 13 15 19 17 13 12 14 14 18 19 19 14 14 26 21 18 41 39 43 41 41 43 43 43 43 43 43 41 40 40 38 37 33 31 28 24 20 18 15 17 13
14 12 22 18 17 15 18 19 14 17 15 18 20 20 17 23 30 41 46 36 29 43 42 40 45 47 49 47 47 45 45 42 42 42 39 38 34 33 29 19 24 18 16 19
9 14 15 13 21 17 21 19 21 23 22 15 17 17 23 20 21 31 27 23 32 26 31 42 42 45 46 47 49 49 47 45 42 43 43 43 40 35 34 28 23 24 21 15
10 14 16 16 8 12 16 18 17 15 21 24 18 20 14 19 17 18 19 29 37 41 27 23 42 43 43 46 45 46 45 47 45 41 44 44 44 42 37 34 28 25 24 22
9 9 16 18 13 12 13 15 18 17 16 18 16 16 16 12 21 19 21 29 22 17 42 38 35 41 45 44 43 45 45 44 46 44 42 45 45 44 42 36 35 31 28 24
10 8 12 18 18 21 14 20 19 14 18 15 16 18 22 11 7 19 22 37 42 48 45 21 52 43 47 46 46 46 46 45 45 45 42 44 43 44 44 44 39 38 34 32
8 8 12 16 15 17 20 18 20 20 19 21 16 14 24 18 11 12 21 19 20 43 46 42 55 52 51 49 46 46 46 48 43 43 43 42 43 43 43 44 45 40 40 36
4 12 17 15 16 15 12 14 19 21 16 17 20 23 22 16 6 14 12 10 15 24 51 46 54 33 46 47 48 46 44 44 43 42 43 44 46 46 45 42 41 46 40 40
7 15 17 21 24 19 20 19 18 19 24 21 20 23 22 7 23 14 30 27 12 19 8 10 20 26 42 48 48 47 43 43 42 43 44 46 47 46 43 43 43 41 47 45
13 15 16 20 20 18 22 23 20 20 22 22 28 25 20 20 22 32 21 32 24 10 13 14 8 8 31 37 46 47 46 42 43 43 45 41 43 43 45 44 43 41 42 42
11 10 9 18 20 16 19 20 21 19 21 20 21 19 17 15 10 20 21 22 35 19 19 21 20 16 18 32 25 37 43 42 42 44 42 43 42 45 46 45 44 44 43 43
14 16 6 10 12 16 17 19 21 23 25 22 21 23 22 22 17 15 18 12 19 31 24 20 18 22 14 5 26 34 38 40 40 43 41 43 44 45 46 46 45 45 45 45
18 15 7 8 9 16 22 14 6 15 13 15 14 19 31 31 30 7 20 19 6 20 22 21 20 20 21 21 11 3 32 38 42 39 45 43 47 46 46 47 47 47 46 45
17 17 9 9 11 11 16 6 17 16 11 18 25 20 22 33 15 7 14 16 19 17 20 21 22 19 17 23 21 19 12 33 38 37 42 43 43 45 46 48 46 47 47 47
6 11 12 12 11 13 1 2 8 9 4 21 20 24 25 14 11 9 4 7 9 17 19 20 21 18 17 16 16 27 25 19 36 40 36 38 42 45 45 44 44 45 46 44
7 5 9 6 8 14 15 7 3 9 20 24 24 20 23 17 16 12 12 11 12 14 16 17 19 17 15 19 16 18 29 31 16 33 39 40 40 41 43 42 43 43 43 43
3 5 4 6 3 12 11 10 13 15 18 23 26 24 21 18 13 12 10 10 10 11 13 15 17 16 13 15 15 10 18 29 37 18 38 37 39 42 41 41 42 43 43 42
9 12 4 9 5 21 19 17 12 13 17 20 23 22 21 14 12 9 8 14 13 12 13 15 16 15 13 14 13 11 15 25 26 30 36 38 38 40 43 41 42 45 43 43
3 10 6 6 10 23 15 15 17 16 14 17 18 13 11 13 13 10 7 8 10 12 12 13 15 15 14 13 12 10 10 16 24 29 36 37 38 38 40 43 38 43 42 42
3 3 3 3 11 9 11 16 18 19 16 17 15 17 12 15 14 14 11 7 7 9 12 11 13 14 14 13 10 8 6 11 16 20 28 30 32 33 37 39 37 38 36 37

GFSCGP_850_spd_069.txt.gz
Wind_Speed
15 4 7 9 10 11 14 16 15 12 13 8 15 16 17 19 16 14 16 33 37 31 28 32 38 37 38 35 31 25 26 23 24 25 26 20 16 17 17 13 9 7 8 8
7 12 9 10 14 13 18 16 15 14 13 6 17 13 13 16 10 13 11 33 39 34 30 36 35 40 40 38 35 31 29 27 25 25 28 21 17 17 13 10 13 12 7 8
10 11 17 14 15 15 14 10 11 11 16 12 13 3 5 9 13 14 16 8 30 44 35 34 36 40 42 40 38 34 33 31 26 25 28 24 17 16 16 17 12 11 13 8
9 18 16 16 17 13 9 9 11 13 8 3 3 3 6 5 10 9 19 25 19 31 41 36 39 40 43 41 38 34 37 32 30 27 31 29 24 21 19 16 13 9 10 11
8 13 12 16 13 14 10 10 9 8 7 4 18 2 4 10 10 16 26 34 21 22 44 40 42 44 41 41 40 36 39 36 33 30 31 32 27 25 22 18 16 12 10 8
9 18 6 6 14 10 7 9 10 7 3 6 10 5 5 12 20 9 25 31 35 34 36 43 50 42 41 42 42 40 38 43 38 33 32 33 32 28 24 21 20 18 15 10
7 12 8 12 8 8 7 2 3 4 4 7 7 6 8 24 14 22 26 33 36 35 34 46 47 45 43 44 47 45 42 44 43 38 37 35 35 32 24 23 23 23 20 14
3 7 6 2 7 5 6 7 5 6 5 5 9 6 8 15 32 38 38 46 22 20 20 34 50 50 48 48 50 50 48 45 45 43 41 37 35 35 29 24 20 21 14 15
7 6 18 14 9 8 7 6 6 6 12 5 6 9 10 11 19 30 35 29 29 31 26 19 28 54 53 49 51 53 51 48 45 44 43 43 37 38 36 31 25 22 18 14
6 6 7 15 14 9 9 5 4 3 7 7 5 9 6 6 16 26 24 30 35 33 40 26 18 25 43 54 51 52 52 50 45 44 45 46 43 38 39 36 30 30 25 25
5 2 10 9 5 12 11 6 3 1 2 5 7 7 10 10 7 8 25 43 55 52 54 50 37 21 28 36 45 53 54 52 48 44 44 46 48 43 39 40 36 32 32 28
7 1 5 13 18 18 14 9 5 3 8 3 4 8 16 11 13 30 34 39 44 45 56 42 48 41 39 35 42 52 55 55 52 46 44 44 47 48 44 41 40 37 33 31
7 4 4 10 7 4 7 13 10 9 3 11 3 7 9 14 14 25 32 8 17 46 51 49 42 46 45 42 30 49 54 57 53 49 46 45 43 47 49 45 43 42 37 35
4 1 4 5 12 11 13 19 19 11 3 5 5 9 17 9 12 18 18 27 19 39 43 48 51 30 44 45 30 48 50 51 52 50 49 47 46 44 46 48 46 44 42 39
3 3 6 9 15 17 17 18 19 18 15 5 9 14 12 9 8 16 28 33 45 10 5 17 35 31 24 47 30 31 45 49 47 47 48 48 44 43 42 43 45 46 45 44
2 4 7 10 14 16 18 17 17 19 19 16 12 19 7 25 28 23 22 26 24 24 25 12 14 40 25 27 36 48 37 49 51 47 47 45 43 41 42 42 43 42 47 47
4 1 4 8 8 13 14 12 14 16 17 16 13 15 12 15 16 20 24 27 24 22 27 31 34 6 37 30 36 39 44 42 51 52 50 47 45 43 41 43 43 42 42 44
6 4 2 5 2 4 10 8 16 17 18 16 19 13 21 22 27 18 22 22 23 21 26 30 28 22 13 7 4 34 32 29 38 48 51 49 48 45 41 40 44 43 42 41
7 3 3 4 5 10 14 13 2 7 8 16 17 18 28 33 16 16 28 21 15 17 20 21 20 20 18 15 11 14 34 29 27 27 48 50 49 46 43 41 42 43 44 43
4 6 8 3 3 6 2 8 11 4 7 17 22 19 21 27 8 8 34 22 21 20 22 23 20 20 18 17 12 7 28 41 39 32 43 52 49 47 45 43 42 42 42 42
5 5 5 6 6 5 8 8 5 5 4 19 19 19 20 11 15 24 29 26 21 18 21 23 24 22 19 20 17 6 13 17 29 25 44 47 49 46 46 43 43 43 43 41
3 4 3 1 5 5 25 6 4 10 15 17 17 19 24 21 24 24 23 24 23 22 21 22 26 27 26 20 19 13 11 23 21 26 18 42 42 46 45 44 45 45 44 43
1 2 3 4 2 10 19 13 10 12 20 22 22 17 20 18 17 22 17 20 19 19 18 21 24 25 23 22 24 27 19 23 19 17 16 26 44 41 43 45 45 46 45 44
1 5 3 6 5 15 10 15 16 17 17 23 21 20 16 15 12 16 18 18 21 17 18 18 23 21 20 18 20 23 26 25 22 20 20 22 35 42 41 44 45 46 46 47
5 6 4 4 8 19 8 15 17 20 20 21 19 17 14 14 16 16 15 18 21 15 14 15 17 17 17 17 20 21 24 26 24 20 23 23 27 40 43 44 43 45 46 46
6 4 1 2 12 7 13 19 18 23 20 20 19 18 14 14 18 16 17 16 16 16 13 13 16 16 15 15 18 18 22 21 22 19 17 22 25 37 44 43 46 41 41 42

GFSCGP_850_spd_072.txt.gz
Wind_Speed
6 4 4 8 6 6 4 3 9 16 13 4 16 17 22 25 18 21 24 26 33 34 32 29 37 39 35 35 35 31 28 26 29 29 25 19 19 18 14 10 8 8 10 13
4 5 9 6 6 7 7 7 11 12 4 5 6 9 13 19 19 28 34 34 32 29 34 26 38 42 41 37 34 32 26 20 30 32 28 23 20 18 14 11 11 9 11 10
6 9 9 8 7 6 6 6 10 11 2 7 12 5 5 4 11 14 29 45 39 38 39 34 38 45 43 40 37 32 28 23 30 32 30 25 21 19 18 15 14 12 13 11
5 16 9 8 10 5 6 7 11 8 3 3 4 4 7 10 6 15 27 28 32 31 38 39 36 48 47 43 38 35 31 25 27 30 34 31 27 26 23 19 15 11 12 12
7 5 7 8 11 8 12 12 8 2 3 3 3 4 4 13 11 18 25 39 30 37 40 40 36 47 49 45 42 37 33 28 27 26 34 32 30 25 22 20 17 12 12 12
6 5 4 7 6 6 12 6 7 5 3 2 5 5 3 7 25 18 27 30 36 46 43 44 36 44 50 48 44 39 36 31 29 30 31 35 31 26 23 23 20 18 15 13
5 4 3 3 3 6 3 7 3 4 3 5 5 4 7 13 11 20 31 38 35 41 43 40 38 46 51 52 48 43 39 35 32 34 33 36 35 30 27 25 23 23 20 17
4 4 8 8 1 4 3 8 5 6 3 3 7 3 5 9 25 28 37 39 39 39 41 44 40 45 52 52 50 47 43 39 34 36 36 35 38 34 31 26 27 24 23 17
3 3 5 4 6 5 4 2 6 4 1 4 3 8 9 3 8 14 20 31 38 39 42 46 39 43 50 50 50 49 47 42 38 37 39 38 39 39 36 29 25 27 22 19
3 3 3 7 9 13 8 5 4 3 2 3 5 4 5 12 14 6 7 21 25 36 40 45 52 48 40 45 47 49 48 45 40 39 39 41 40 40 40 35 27 29 24 20
5 4 7 4 6 3 7 8 6 1 4 4 2 5 4 7 5 10 11 29 32 39 41 49 46 44 50 42 41 46 51 49 44 43 41 40 43 42 42 40 35 29 28 26
5 3 4 3 6 3 4 6 5 4 7 1 4 4 5 7 9 18 27 13 22 30 39 40 47 41 43 52 47 43 46 50 48 44 44 42 42 44 43 44 42 36 33 30
4 4 4 11 7 8 7 10 5 3 3 2 3 5 13 19 17 20 24 17 15 23 36 41 40 33 31 39 44 44 41 45 49 48 47 45 42 45 48 46 46 43 38 34
7 4 5 4 4 4 7 12 8 5 2 5 3 14 13 15 13 18 23 36 6 33 31 30 34 27 19 12 36 42 40 42 46 46 49 48 45 43 46 48 47 46 45 41
5 2 4 3 6 8 10 13 12 6 4 2 7 7 10 10 8 13 16 38 33 15 6 9 20 31 33 28 20 36 36 38 45 45 47 52 48 44 42 44 49 49 48 47
5 1 4 5 7 8 9 11 12 11 6 5 6 5 12 16 21 21 21 20 26 21 17 12 9 17 30 35 26 23 17 32 41 42 47 50 49 47 46 43 43 47 51 51
1 3 2 2 4 5 7 5 4 11 6 3 3 3 14 12 18 23 25 20 16 17 13 18 22 23 10 6 20 22 36 23 34 33 41 44 47 46 45 46 43 44 46 48
2 4 3 3 4 2 7 6 6 3 12 8 3 8 12 15 8 30 32 23 20 19 16 13 15 15 17 4 7 14 26 34 30 30 27 39 46 46 42 43 43 41 41 43
3 4 2 3 4 6 9 7 6 6 6 7 4 10 18 24 3 19 27 25 21 19 14 16 18 18 19 17 11 16 13 16 23 23 24 23 39 43 46 44 44 41 37 39
5 4 4 3 3 5 2 8 18 4 3 8 11 11 16 22 4 2 21 19 19 16 15 15 14 14 15 15 9 12 12 16 23 25 27 23 18 38 49 48 46 43 39 35
4 4 2 4 4 6 8 18 12 3 2 11 12 14 13 6 13 24 18 15 12 14 15 18 17 17 16 16 15 12 4 20 17 32 33 28 32 36 47 54 52 48 42 39
1 3 2 3 2 6 15 4 3 7 9 13 14 18 19 17 21 24 19 13 12 14 17 18 19 18 17 15 13 13 11 14 15 12 36 35 36 39 38 46 51 49 46 43
4 4 3 4 2 2 8 1 6 10 16 17 21 19 21 23 21 21 22 20 15 15 18 16 17 21 19 16 15 17 12 10 18 31 29 28 35 29 36 43 49 52 49 47
2 4 2 4 1 2 7 8 11 12 15 22 22 22 21 25 24 24 23 23 21 19 19 16 15 18 16 14 17 17 19 20 20 18 22 25 26 30 35 46 45 49 51 50
5 4 4 4 14 14 6 11 16 15 20 20 21 22 21 23 25 25 25 22 22 22 17 13 15 14 13 14 13 20 18 23 25 21 18 23 22 33 31 39 42 45 47 49
11 6 5 6 8 5 11 12 14 13 17 19 21 21 21 22 25 25 26 23 20 21 18 16 14 17 12 10 13 17 19 20 21 24 19 19 21 24 34 30 39 43 45 49

GFSCGP_850_spd_075.txt.gz
Wind_Speed
6 4 5 7 7 6 2 3 3 3 5 4 10 8 16 15 11 17 23 29 33 38 39 31 24 38 38 38 36 32 26 24 25 23 22 21 17 15 14 11 9 9 10 10
5 4 8 4 3 5 3 5 3 6 2 4 5 1 9 14 12 13 21 29 33 35 39 29 27 39 42 39 40 34 29 28 28 26 25 20 17 17 15 12 8 8 9 13
5 5 4 4 3 3 3 6 3 5 3 6 9 5 6 9 11 14 21 24 29 33 38 32 33 39 42 43 42 37 33 28 29 28 25 21 18 18 17 14 12 9 11 9
4 4 5 5 5 6 5 7 5 4 2 2 3 2 6 7 8 16 22 30 29 32 36 35 36 40 45 44 42 37 34 31 25 28 31 27 23 21 18 15 12 9 12 11
6 2 5 5 9 7 9 6 6 4 2 2 1 4 4 11 15 17 23 29 29 30 30 32 35 36 47 49 44 39 34 31 25 23 34 30 27 24 19 16 15 13 12 13
5 3 5 8 7 9 7 3 5 5 4 2 5 5 4 5 15 13 20 29 33 41 38 30 33 36 45 47 47 44 38 34 29 24 32 32 32 28 23 21 19 17 12 13
4 2 5 6 0 3 5 6 2 2 2 5 2 4 7 10 12 13 23 35 41 45 40 37 36 41 43 49 51 47 42 38 33 27 28 30 33 30 27 23 20 21 17 14
3 2 7 8 2 1 2 7 5 5 4 4 1 5 1 3 13 24 24 30 30 36 43 45 38 43 44 45 52 50 47 42 37 33 27 29 34 33 30 25 22 22 20 16
2 1 4 2 6 1 3 5 1 7 4 3 1 5 4 12 17 20 14 23 33 39 38 47 44 43 45 47 49 53 50 46 40 36 28 28 33 37 34 29 24 21 21 20
1 2 2 5 7 10 7 3 4 4 4 3 4 5 6 14 15 13 14 13 27 32 34 40 45 45 48 48 47 50 51 49 45 39 35 27 29 34 37 34 30 26 23 26
2 3 5 3 7 6 8 6 5 4 4 5 3 2 9 8 7 12 13 19 22 34 37 44 47 49 45 46 47 49 54 54 49 45 39 34 27 31 34 36 35 31 23 24
4 5 4 4 6 6 15 5 4 4 6 2 1 4 6 13 12 15 21 29 14 29 33 39 39 41 44 46 48 51 54 55 54 46 41 38 32 28 33 36 38 36 31 25
4 4 3 4 6 8 7 6 5 5 3 2 1 3 11 21 20 21 25 32 25 17 24 24 28 28 29 36 42 43 48 53 52 50 46 42 39 34 30 34 37 39 37 32
7 4 4 5 3 3 3 5 6 5 4 3 4 5 13 18 20 25 27 30 27 11 4 6 14 12 17 23 16 31 37 42 44 48 48 45 41 39 34 31 35 39 41 40
5 4 3 3 3 3 3 3 5 4 3 4 6 6 6 12 15 22 22 28 28 26 20 13 2 7 10 15 13 9 22 30 36 41 43 44 43 41 37 34 33 36 41 43
5 2 2 4 4 5 1 3 5 6 4 1 3 3 5 14 20 28 28 24 26 27 25 24 22 8 9 9 16 20 18 28 29 34 38 39 39 39 42 38 35 35 37 42
3 3 3 3 5 6 5 4 4 2 1 4 5 1 5 5 13 19 25 28 27 23 25 24 24 20 17 8 0 14 22 19 21 32 35 38 38 38 38 38 38 38 38 37
3 3 2 1 4 2 5 3 3 7 3 5 5 4 7 8 0 14 21 24 24 21 21 23 22 20 18 15 8 5 10 23 24 26 31 35 35 35 33 35 34 35 39 40
3 4 2 4 3 5 5 3 4 1 4 4 2 5 14 18 9 4 15 18 19 17 18 20 19 20 19 17 15 11 5 8 22 26 27 23 27 31 30 32 29 32 36 37
6 6 4 3 4 4 4 5 8 4 4 3 6 5 12 18 2 2 19 15 18 17 18 21 21 19 19 18 18 14 9 4 11 14 15 25 26 29 34 33 30 28 33 35
3 3 2 2 3 5 3 14 8 6 2 4 9 9 13 4 8 21 19 17 15 16 19 21 23 22 21 18 16 15 12 7 6 13 13 22 25 20 23 24 26 31 34 35
3 3 2 2 1 6 7 4 1 2 3 7 9 14 19 22 19 23 20 16 17 19 19 22 24 22 22 18 15 15 17 15 10 10 14 17 28 26 22 19 20 26 32 36
2 4 3 6 4 2 2 6 7 8 13 13 15 21 21 25 20 24 27 25 22 20 20 21 23 22 19 18 16 16 18 18 17 14 12 17 19 25 23 24 24 26 30 35
2 4 1 3 3 8 16 17 14 11 14 16 17 19 21 27 28 23 30 29 28 26 23 23 25 24 20 18 15 20 18 21 20 22 21 18 18 23 23 24 25 25 29 35
5 9 4 5 11 10 4 4 8 15 15 16 18 20 23 26 31 27 31 32 31 30 26 23 23 25 24 19 18 19 28 25 25 25 24 23 21 17 21 22 24 29 31 35
13 7 5 6 11 5 6 3 5 8 12 14 19 22 25 24 27 27 30 32 32 32 28 25 22 24 23 20 21 21 23 31 32 30 26 27 27 21 18 20 23 28 28 29

GFSCGP_850_spd_078.txt.gz
Wind_Speed
5 4 6 7 6 4 3 4 0 2 3 3 3 4 8 14 11 13 21 27 30 33 33 31 33 32 31 32 31 29 28 25 23 21 18 15 13 12 11 9 6 7 7 7
4 5 7 5 4 4 2 5 2 3 0 4 2 2 3 11 7 8 18 22 28 31 33 29 30 33 36 35 33 30 29 27 25 22 20 17 14 14 11 9 7 7 8 8
6 5 7 5 4 3 1 5 3 3 4 3 4 3 3 7 6 10 9 20 24 31 35 37 31 33 38 39 36 34 31 29 25 22 23 21 17 15 14 13 10 7 7 8
4 2 7 4 3 5 1 7 5 2 2 1 2 3 3 7 8 11 18 19 26 28 32 39 37 35 36 40 38 37 35 32 26 25 24 24 22 18 16 11 10 9 8 8
6 6 4 3 6 7 6 6 6 4 3 3 3 4 4 3 7 12 24 27 26 34 33 34 38 38 34 34 42 40 38 36 30 29 28 26 23 18 14 12 11 10 9 10
3 1 3 7 6 8 5 5 8 5 3 2 2 4 5 3 4 4 18 26 31 33 35 34 36 36 35 34 40 43 40 37 35 31 29 30 27 23 20 16 14 13 11 11
4 3 5 5 2 3 5 6 2 3 2 5 5 4 2 7 10 10 16 26 32 32 35 34 38 39 40 38 42 44 42 40 36 34 29 30 31 27 22 20 19 16 14 11
4 3 5 9 3 2 4 7 5 5 5 4 2 6 1 5 14 21 29 16 26 30 39 42 33 38 42 40 39 44 45 42 39 36 30 25 32 30 27 23 21 18 15 12
5 0 5 4 4 2 3 4 3 7 2 4 1 6 4 20 19 29 29 26 11 24 33 40 44 37 41 44 40 41 47 45 43 36 33 27 28 31 29 27 24 20 18 15
1 5 3 5 6 8 7 1 3 4 4 3 3 4 4 16 17 19 24 27 25 16 28 37 41 44 41 43 44 41 42 46 45 41 35 31 27 30 30 28 28 25 20 19
2 4 4 5 8 5 6 5 6 5 3 5 4 2 5 8 12 14 23 32 33 20 20 31 34 38 37 39 42 43 43 44 49 46 41 35 32 30 31 33 30 27 24 21
4 5 5 2 5 5 4 3 3 4 3 2 3 3 7 7 15 20 24 29 35 22 1 20 25 29 35 35 38 40 41 43 44 47 45 42 36 31 33 34 33 31 29 26
1 3 4 4 5 5 6 5 3 4 3 1 4 4 6 14 19 24 24 27 34 31 18 4 9 21 26 31 32 36 39 42 43 45 47 46 42 38 33 33 33 32 32 30
6 4 3 6 4 3 4 4 4 3 3 5 3 1 5 9 11 21 27 26 27 33 31 20 14 9 5 13 25 31 36 37 38 39 41 45 46 43 39 34 32 32 33 34
5 4 3 4 5 3 3 2 3 3 1 3 7 4 1 4 7 13 19 28 28 28 29 25 26 19 6 5 4 9 16 27 33 35 37 39 42 45 44 42 37 33 33 35
4 3 3 2 3 3 3 6 7 5 3 4 2 3 3 2 8 19 23 26 28 27 26 25 23 21 16 7 6 13 13 14 21 30 33 33 35 36 40 43 43 39 37 34
3 4 3 3 2 1 2 0 3 2 2 2 3 1 6 5 11 15 17 19 22 24 25 25 25 22 19 15 7 6 14 20 21 27 33 34 34 36 37 36 38 40 39 38
3 3 2 2 1 4 4 3 6 4 1 1 3 3 5 8 12 5 15 17 17 19 22 22 23 21 21 17 10 6 9 13 21 21 26 32 32 33 33 35 36 35 35 38
3 4 3 3 2 2 3 4 3 1 4 2 2 7 11 16 11 10 6 16 16 16 17 19 19 20 20 19 15 10 6 7 13 21 21 30 32 34 33 33 33 33 33 34
4 6 4 2 3 3 3 1 6 3 3 6 5 7 9 15 4 1 10 21 19 15 15 18 20 20 20 20 17 11 9 7 6 12 21 23 25 30 32 25 25 30 31 31
3 3 4 2 1 5 2 7 5 4 2 4 8 9 10 3 8 27 29 26 22 21 20 19 20 22 20 20 20 15 10 10 10 8 11 14 21 22 28 30 28 28 30 31
4 4 3 3 2 5 3 2 3 1 4 8 10 13 16 18 23 25 29 32 30 27 25 22 24 23 22 21 20 19 15 9 8 8 8 10 13 19 22 23 27 27 26 27
2 5 4 6 4 3 4 4 10 9 8 10 14 16 16 22 23 27 30 33 35 34 30 28 27 28 26 24 23 22 19 17 7 8 8 7 9 13 16 25 24 22 24 27
3 5 3 3 0 4 5 7 8 10 9 11 13 17 19 21 23 29 33 35 37 38 38 34 32 31 31 28 25 26 23 22 19 12 11 17 15 11 14 18 21 28 33 30
4 10 5 4 10 13 12 7 7 4 1 3 7 11 18 23 26 30 35 34 36 39 40 36 36 36 34 30 27 27 27 26 22 18 15 17 15 19 17 19 24 32 32 32
12 7 6 6 11 7 10 12 8 2 4 7 11 18 20 24 26 30 33 32 35 38 41 41 38 39 36 30 28 28 27 28 27 23 22 19 19 16 23 23 22 24 31 34

GFSCGP_850_spd_081.txt.gz
Wind_Speed
8 7 13 12 7 3 5 6 7 3 3 2 5 6 11 15 8 20 23 25 26 27 25 22 24 23 22 26 26 25 25 25 23 21 18 15 11 11 10 7 6 6 5 5
7 13 9 8 5 4 4 4 4 3 4 2 4 5 8 15 12 16 22 25 25 27 23 24 24 25 26 30 28 26 26 27 25 22 17 15 11 10 10 9 7 7 7 5
12 7 12 9 7 8 4 5 3 3 1 4 4 5 7 8 12 9 18 24 23 26 28 25 25 27 29 30 31 28 26 26 25 23 20 17 14 12 12 11 8 6 7 7
6 6 15 10 9 8 9 7 4 2 1 2 2 3 3 7 12 12 14 20 24 27 28 29 28 27 30 35 33 30 28 27 24 23 21 21 18 16 15 10 9 7 6 6
5 12 15 11 10 8 2 5 5 2 2 2 3 3 6 3 3 10 17 18 19 27 29 32 32 28 29 32 34 34 32 29 27 25 23 22 21 18 13 12 10 8 8 8
4 3 4 6 8 11 10 7 5 4 1 5 5 3 8 5 8 8 11 21 26 26 30 30 31 31 34 30 31 36 37 33 31 27 25 23 21 20 17 15 13 11 9 8
4 3 2 4 8 8 7 8 5 6 5 5 4 5 5 8 11 13 16 14 21 27 30 30 31 35 37 37 34 31 37 37 35 31 28 24 24 22 20 16 14 14 12 9
7 6 5 9 2 5 13 12 5 9 9 7 2 8 6 9 12 15 19 19 4 14 26 30 30 33 39 41 37 32 31 35 37 35 32 27 26 26 24 22 19 16 15 11
4 4 1 9 7 3 6 8 2 5 1 9 4 4 7 14 16 23 26 25 18 6 16 28 30 31 33 40 40 35 30 33 35 36 34 32 28 28 28 25 23 19 19 16
2 6 7 6 2 10 3 4 6 3 10 11 4 3 3 15 18 19 24 26 23 15 10 20 27 27 28 34 38 38 34 31 32 35 35 34 32 26 26 29 25 24 21 19
1 1 3 1 7 7 2 3 3 3 3 6 7 4 5 8 11 13 20 24 26 25 10 10 16 21 33 25 31 36 37 35 34 36 38 37 35 31 25 26 28 26 25 22
4 4 5 4 2 3 5 3 2 7 6 2 1 5 5 6 10 13 19 23 26 27 24 13 2 11 16 26 26 30 33 36 36 34 34 38 38 35 32 27 26 29 28 26
2 3 5 3 3 2 4 5 3 2 0 4 6 5 5 8 12 16 18 21 25 26 28 25 21 8 1 10 18 23 27 28 27 33 37 38 41 41 37 33 28 29 31 31
3 4 3 1 4 2 2 4 5 3 3 7 3 11 5 8 11 15 18 19 21 24 30 26 23 18 10 3 10 17 23 25 27 27 30 31 36 40 41 38 34 30 30 32
4 4 6 8 6 2 1 2 4 5 4 2 9 8 6 6 9 12 13 16 20 23 25 28 27 22 15 4 2 8 14 18 21 26 29 30 32 30 33 39 40 36 33 32
3 4 5 3 3 3 3 5 5 2 1 3 4 5 4 6 7 10 14 16 19 20 21 22 23 25 23 19 11 5 6 12 17 23 26 26 29 30 30 32 34 38 38 36
2 5 2 4 2 2 5 4 5 1 2 1 4 5 4 4 6 10 11 13 15 16 18 20 21 22 23 24 20 11 5 10 16 19 22 26 26 28 30 29 31 34 35 37
4 4 2 4 3 4 5 4 3 2 3 4 5 4 4 3 3 3 10 12 13 15 16 17 18 20 21 22 20 16 11 6 7 17 21 24 24 26 27 30 32 32 31 33
2 3 3 4 6 2 5 2 1 1 3 4 2 3 6 10 5 9 6 14 14 15 14 14 16 17 19 21 21 20 14 11 7 9 17 22 24 25 25 29 31 30 31 33
5 3 1 3 3 5 4 6 2 5 4 4 5 4 8 12 5 4 13 19 18 17 16 18 18 19 18 19 20 20 19 16 13 9 9 18 21 26 27 28 28 29 30 31
3 3 4 4 3 3 4 5 4 5 3 6 4 2 3 4 6 19 22 21 20 20 21 20 20 20 21 22 20 21 19 18 17 14 10 9 15 22 25 27 29 28 29 28
6 6 4 3 4 6 8 5 5 5 3 0 2 2 5 8 12 16 21 22 22 23 25 22 22 23 24 24 23 21 22 21 18 18 13 8 9 11 15 25 28 28 27 25
4 3 3 6 2 6 8 1 2 4 5 5 5 5 7 10 14 18 21 24 25 24 24 23 23 24 26 25 23 25 24 25 23 19 20 14 8 7 9 19 18 25 28 28
5 4 2 2 8 11 8 6 5 5 4 3 5 5 6 9 12 18 20 22 25 26 25 24 24 25 27 26 27 25 26 26 25 25 23 23 19 14 12 11 17 17 22 27
2 10 4 4 5 3 10 10 6 6 5 3 3 3 6 8 13 17 22 22 24 26 25 26 27 27 28 27 29 27 24 27 28 27 26 23 25 20 17 18 14 18 18 26
12 7 6 5 10 9 4 18 12 8 7 8 7 7 6 9 14 18 20 21 20 24 27 29 30 30 29 28 29 30 23 25 30 31 26 24 24 24 21 20 21 19 21 19

GFSCGP_850_spd_084.txt.gz
Wind_Speed
17 11 16 17 17 7 12 11 12 10 8 7 7 13 14 18 16 15 21 22 25 24 24 21 19 17 17 17 17 17 18 18 20 15 13 10 6 7 7 6 8 8 7 8
10 16 14 12 8 9 11 12 14 10 6 6 9 10 14 17 13 19 19 21 24 26 26 23 20 18 17 18 18 18 18 20 21 15 13 10 8 7 7 8 7 8 7 7
14 12 12 14 13 13 13 14 11 13 6 3 12 8 10 15 17 14 18 18 22 27 28 26 23 21 19 19 19 19 19 20 22 16 14 13 9 8 7 8 5 6 8 7
11 7 17 17 16 16 16 5 6 9 10 10 14 7 6 6 7 8 12 18 18 25 25 27 25 24 22 21 20 18 19 21 23 21 14 13 10 8 7 7 7 8 8 8
10 15 18 17 16 14 5 10 10 8 10 4 13 7 8 9 9 11 14 14 21 20 25 28 28 27 25 23 21 21 21 22 20 21 17 14 12 9 7 8 9 8 7 7
6 14 15 12 10 13 8 10 9 8 9 11 10 11 6 5 4 3 3 10 22 23 23 25 27 27 26 25 24 22 23 25 24 23 21 19 14 12 11 11 9 7 6 7
11 11 4 4 14 13 14 16 10 11 9 9 12 7 11 8 6 6 6 6 12 27 26 25 27 30 29 27 24 23 23 26 28 27 24 22 18 15 14 11 11 9 8 6
12 11 6 2 7 12 19 18 10 13 13 12 6 9 8 8 8 11 12 10 6 17 25 29 28 29 30 27 25 23 23 24 27 29 27 25 21 16 14 14 12 11 9 8
11 6 5 3 1 5 19 15 6 6 11 9 13 13 13 8 11 15 17 16 10 2 13 23 24 26 28 29 28 26 24 23 22 27 28 28 25 21 16 16 15 14 12 11
2 9 2 3 3 1 7 9 10 9 14 14 10 16 10 7 10 13 17 20 20 13 8 12 22 23 22 25 27 26 25 25 23 22 26 27 26 25 21 19 18 17 14 14
2 5 8 6 2 2 6 11 10 8 5 14 10 8 7 9 8 10 15 18 21 23 17 6 8 10 17 20 21 24 25 24 23 22 23 25 25 26 23 22 21 20 18 16
3 3 9 8 6 1 3 5 9 11 12 6 6 7 6 11 8 10 15 18 20 22 21 20 15 6 12 15 18 20 20 23 23 21 23 24 26 24 23 24 23 21 21 20
4 4 8 9 8 5 4 1 4 8 8 13 10 9 10 12 13 12 14 17 20 22 23 21 15 12 11 8 9 16 17 18 20 20 21 24 23 23 30 28 26 24 22 21
4 1 6 1 7 4 7 3 1 8 11 9 4 19 13 11 10 13 14 16 18 21 22 22 22 19 11 3 3 5 5 10 15 18 18 20 27 30 30 29 32 27 26 24
3 3 2 7 6 4 2 2 2 1 5 5 18 17 13 10 10 11 13 14 17 19 22 22 22 21 20 15 8 1 8 11 11 13 18 19 19 19 23 24 24 33 32 30
1 3 3 1 2 1 4 4 2 2 4 7 11 14 11 11 11 10 11 12 15 17 17 17 18 19 21 21 18 10 2 4 7 13 14 16 18 19 20 20 22 25 30 33
1 5 6 5 2 3 8 11 7 6 4 6 9 14 10 9 8 8 9 11 13 14 14 15 16 16 17 17 19 17 13 4 8 9 7 11 17 19 19 20 21 23 27 30
3 5 3 3 5 8 7 4 2 6 8 4 8 8 6 6 6 8 10 10 11 13 13 13 14 15 15 15 16 16 17 14 7 4 11 15 15 15 16 19 22 22 22 25
3 5 3 4 10 5 7 5 6 12 11 4 8 7 5 3 4 8 6 8 9 11 12 13 14 14 14 15 16 16 16 16 15 12 8 10 19 17 18 19 20 22 24 24
4 4 6 5 4 6 9 8 5 2 7 7 6 6 3 3 8 13 4 8 9 10 11 13 15 15 14 15 16 15 15 15 16 16 15 13 11 14 16 14 20 20 23 24
7 6 9 8 6 2 7 9 8 7 6 9 6 4 1 3 6 7 9 10 10 12 13 14 14 14 15 16 17 17 16 15 17 18 17 17 16 14 14 18 18 20 25 26
7 6 6 6 6 7 13 9 5 9 10 8 4 2 2 3 5 9 11 13 14 14 15 14 16 15 15 16 17 18 17 18 20 21 21 19 18 16 14 14 18 20 22 25
5 4 3 5 2 6 15 5 8 4 2 4 3 3 4 5 7 10 12 13 15 16 17 17 16 18 18 16 16 19 20 21 21 22 24 24 21 21 18 19 13 15 17 21
5 5 3 2 10 11 9 6 6 6 6 5 3 2 2 1 4 8 11 12 13 14 16 17 18 18 20 20 20 20 21 22 22 23 24 24 26 25 23 20 18 18 13 15
4 9 6 7 5 7 11 9 9 9 8 6 5 4 2 1 4 8 12 14 15 15 15 16 16 18 18 19 23 24 23 23 23 23 22 23 21 22 28 24 19 21 20 18
11 8 6 4 8 11 4 17 13 12 9 6 5 3 3 3 4 7 9 12 16 19 18 19 18 20 22 22 23 23 23 22 23 23 22 21 21 21 22 28 29 28 32 25

GFSCGP_850_spd_087.txt.gz
Wind_Speed
19 14 17 20 21 21 16 15 13 11 15 10 11 19 19 20 21 22 23 20 19 23 22 20 19 19 18 17 16 16 16 16 15 12 11 10 8 9 6 8 5 6 4 4
13 18 17 17 16 14 19 19 18 4 10 8 14 17 16 20 17 20 20 22 21 24 24 21 20 19 19 19 18 17 16 16 16 12 11 8 11 8 7 6 6 6 5 5
15 15 15 14 16 15 18 16 14 11 9 14 13 17 19 10 10 11 19 19 23 24 25 25 21 20 19 19 19 18 18 16 17 13 11 9 5 6 6 8 6 6 6 4
15 9 14 12 17 18 17 17 19 20 14 12 18 9 18 22 13 16 13 12 18 21 27 26 24 22 20 19 20 18 18 17 17 16 14 11 10 8 9 6 6 6 7 8
16 13 13 18 17 19 13 9 6 10 16 11 21 9 12 18 16 16 20 19 22 23 26 31 27 25 21 20 20 19 18 18 17 17 13 12 11 7 9 10 9 9 8 7
12 13 15 18 16 17 4 18 13 12 14 13 14 11 13 15 15 16 13 17 20 24 27 24 28 28 25 23 21 20 19 19 19 17 19 15 10 10 7 8 7 6 7 7
7 16 16 12 16 13 9 13 11 11 13 11 18 7 8 13 6 9 8 12 17 22 33 28 29 29 29 27 25 22 21 20 19 18 16 16 13 10 6 9 9 11 9 9
12 15 10 13 15 14 18 21 13 13 14 14 11 11 10 13 11 11 11 5 7 22 24 31 30 30 32 30 27 24 22 21 20 21 20 17 15 11 11 11 10 8 8 7
14 12 10 4 14 8 18 20 25 15 17 14 13 15 13 13 13 15 8 7 12 6 28 27 26 31 35 33 30 27 25 22 20 20 20 20 18 15 13 13 11 10 10 7
10 13 14 10 9 14 12 15 19 10 14 16 16 18 13 14 12 8 11 12 15 12 7 15 31 33 29 39 32 28 25 23 20 18 19 19 19 18 19 15 16 13 11 10
10 3 11 9 14 17 11 12 15 14 15 12 13 9 18 14 11 10 11 13 15 16 14 8 5 19 28 28 32 30 25 23 20 18 18 19 19 19 17 18 16 16 18 15
6 7 11 17 5 4 11 11 17 11 18 14 5 10 15 14 19 16 13 13 14 15 15 19 16 9 14 16 15 25 25 24 22 19 17 18 18 18 18 18 17 16 16 16
3 10 7 6 7 8 11 12 10 15 16 12 15 11 16 12 20 19 16 15 16 17 18 20 19 14 19 18 13 13 11 12 19 22 20 18 18 18 20 20 18 18 17 16
6 13 6 5 2 12 18 7 10 13 11 11 3 24 20 18 17 16 17 16 18 19 21 21 23 23 18 13 10 8 10 10 9 11 19 20 18 19 19 19 20 18 19 18
5 9 5 5 6 7 8 10 7 15 17 9 18 20 20 16 17 19 16 16 18 19 20 21 22 23 22 21 12 4 5 9 10 12 8 7 14 17 18 20 19 24 22 22
4 6 7 7 0 0 5 7 5 5 4 8 18 17 16 19 16 15 15 15 15 15 16 16 17 17 18 20 19 16 4 2 7 11 12 10 10 10 14 15 18 22 26 29
5 4 7 13 5 5 10 12 11 7 5 9 17 18 17 15 16 14 13 12 12 12 12 13 13 14 14 15 15 18 17 12 4 6 9 17 19 18 19 18 19 19 20 22
4 7 7 9 4 12 5 5 3 7 7 7 14 17 18 16 15 11 9 10 9 9 9 9 10 11 11 11 13 13 13 18 14 9 6 13 13 15 18 21 20 21 24 24
6 7 8 11 9 3 6 5 7 12 11 7 13 11 13 14 17 11 7 6 6 6 6 7 8 9 10 10 12 12 11 12 13 16 15 11 9 15 18 19 18 18 20 23
7 7 7 8 11 14 16 12 4 1 11 11 9 13 13 13 11 14 7 4 4 5 6 7 9 8 8 9 11 11 10 11 11 13 14 13 15 14 13 14 18 23 21 21
7 7 10 10 7 3 11 9 6 10 5 14 11 11 7 3 12 10 4 2 3 4 5 8 9 9 9 10 11 11 11 10 12 13 13 14 14 16 15 14 15 20 23 24
7 6 7 10 10 11 12 7 7 12 13 12 11 9 6 3 4 3 1 3 5 5 6 6 8 9 10 12 12 12 12 13 15 16 16 15 15 16 14 18 16 15 18 21
5 4 4 3 4 8 11 4 11 10 11 7 6 7 5 4 2 1 2 3 4 5 6 7 8 9 9 11 13 16 16 17 18 19 18 18 18 17 18 19 18 14 17 16
6 3 3 5 7 5 9 6 7 7 9 9 8 7 6 6 5 4 3 4 5 6 7 8 9 9 9 10 12 13 17 20 21 21 22 21 20 20 20 18 16 15 15 15
6 4 6 8 4 7 10 10 10 9 9 8 7 6 6 4 3 1 2 3 5 7 9 9 12 12 13 14 13 14 16 18 21 23 23 22 21 21 21 20 20 18 20 20
12 7 6 5 7 13 8 17 13 12 11 9 9 8 6 5 2 1 1 3 5 8 10 11 12 12 14 13 14 14 15 14 17 19 21 22 22 22 23 23 23 23 28 28

GFSCGP_850_spd_090.txt.gz
Wind_Speed
17 12 17 22 20 20 19 18 16 2 13 14 18 22 18 24 22 22 20 19 22 22 22 21 20 20 20 19 19 18 18 18 15 14 12 14 11 11 8 7 7 7 3 7
11 18 18 19 19 21 23 16 18 13 8 10 21 17 21 24 23 23 22 23 18 23 23 23 23 22 22 21 21 21 18 20 18 14 13 8 11 10 8 7 7 6 4 5
18 15 21 19 18 22 22 18 16 7 8 11 13 15 20 20 25 30 24 23 24 24 22 25 23 24 23 23 23 23 21 19 22 15 12 11 17 12 8 8 8 7 5 4
20 19 19 17 20 17 19 12 13 12 16 13 24 9 19 22 17 21 25 23 26 26 19 28 25 22 24 26 23 23 23 20 25 21 16 9 7 9 10 9 12 8 6 6
19 17 17 17 18 18 16 17 24 25 15 15 17 8 3 13 17 17 24 24 29 30 21 30 28 28 23 27 24 25 25 22 22 24 20 16 13 11 16 14 8 10 8 9
17 18 13 12 15 13 22 14 13 15 10 13 13 11 13 6 9 16 22 21 26 26 27 30 30 31 25 27 27 25 24 24 22 24 22 18 10 9 3 15 12 9 7 8
18 20 12 14 17 19 20 13 10 10 10 12 20 15 9 16 6 33 22 26 23 23 24 32 34 33 32 31 31 26 23 22 23 20 21 16 14 9 12 11 10 14 11 9
14 12 17 15 20 16 16 19 12 16 13 13 16 10 10 14 32 6 16 10 8 25 28 32 36 37 35 31 35 30 24 22 22 20 19 18 16 13 11 11 10 13 3 16
18 12 17 13 15 6 16 17 17 16 18 15 9 19 20 17 13 11 10 12 11 34 44 34 35 38 35 33 35 35 25 23 23 23 21 19 16 12 10 10 12 11 7 2
12 8 16 11 4 7 16 12 17 15 15 14 14 19 17 18 11 6 8 14 16 22 16 14 10 25 34 34 31 29 31 24 22 22 22 22 19 16 17 13 11 10 6 12
16 12 10 12 14 14 10 12 14 17 14 11 7 6 18 19 13 9 10 12 11 18 24 18 11 10 21 18 34 20 10 25 23 22 23 20 19 18 20 22 20 18 15 7
13 8 11 15 13 18 21 14 16 12 17 6 6 3 6 16 16 14 13 16 17 21 24 21 17 17 16 12 14 26 26 17 23 22 24 24 21 18 17 19 20 15 17 21
10 8 5 13 5 6 10 16 15 15 16 5 9 7 13 16 19 16 15 19 20 23 23 22 20 20 19 12 8 6 5 11 5 24 27 23 22 22 20 19 15 16 15 13
7 9 9 6 5 15 17 16 14 12 10 6 16 17 19 16 17 15 17 20 22 24 24 24 25 22 19 12 10 13 21 23 16 7 12 24 23 21 20 21 17 14 16 17
5 7 5 12 9 12 15 18 12 10 14 12 15 20 21 17 17 17 18 20 23 24 23 23 22 20 19 23 19 11 8 7 19 15 5 8 18 18 18 15 18 19 19 17
6 7 6 10 1 10 7 5 7 7 13 9 21 9 15 27 26 17 16 18 19 20 20 20 19 19 20 21 22 22 18 9 4 4 3 7 17 2 15 20 19 16 18 25
6 6 9 10 7 4 7 5 6 9 9 18 17 10 17 19 20 20 18 16 17 17 17 16 16 16 17 17 18 20 21 17 11 7 6 1 9 13 12 13 14 13 16 17
5 8 8 9 11 10 4 6 5 11 4 10 20 22 18 20 21 17 14 12 12 13 13 13 13 12 13 14 15 16 16 19 17 14 13 11 6 9 10 16 17 17 17 16
10 6 8 10 11 7 5 2 6 5 10 11 15 9 21 24 21 11 10 10 9 9 9 10 9 9 9 11 11 13 11 12 13 15 15 13 10 8 7 12 14 18 24 23
8 7 9 10 11 11 8 12 7 3 10 13 16 19 17 21 9 10 11 9 7 6 6 6 7 6 6 8 8 9 9 8 10 10 11 12 13 13 11 10 10 15 20 23
6 5 10 10 8 3 10 6 2 7 2 20 17 16 16 8 14 20 13 8 4 3 3 5 6 6 6 6 7 7 7 8 9 10 10 11 12 12 13 13 12 12 13 18
6 4 6 8 9 8 12 6 3 7 10 10 8 14 20 16 14 11 8 6 3 1 2 3 5 5 7 8 8 8 8 10 12 13 13 13 13 14 14 17 14 14 14 16
4 7 4 8 3 8 9 16 15 14 13 11 12 10 9 10 9 7 6 5 4 4 3 3 4 5 6 7 8 8 9 10 13 17 18 17 17 16 16 17 19 18 11 17
5 5 4 3 6 5 7 9 10 10 11 9 9 11 10 10 10 9 8 6 4 3 3 3 4 5 7 9 9 8 12 14 14 14 17 19 19 17 16 16 13 15 17 14
7 4 4 7 5 4 5 5 7 8 11 12 11 12 11 12 10 8 7 5 4 3 3 4 3 4 6 8 9 10 12 13 14 14 13 15 17 18 18 17 18 18 17 20
9 8 4 4 9 8 7 13 12 11 12 12 12 12 11 11 10 8 8 5 4 1 3 4 5 5 7 8 8 10 11 14 17 17 15 15 18 17 16 19 21 22 22 21

GFSCGP_850_spd_096.txt.gz
Wind_Speed
5 3 5 6 6 6 5 4 7 5 2 7 9 7 13 14 18 18 21 22 28 34 40 35 36 34 31 25 19 18 18 22 20 20 20 16 14 14 11 8 7 8 9 11
5 4 7 4 7 7 4 1 7 12 10 5 4 6 8 4 12 20 25 21 25 30 36 37 39 35 31 26 21 20 16 19 18 17 16 14 13 14 11 11 8 8 9 8
6 6 8 6 8 8 7 5 8 10 11 4 12 3 2 11 8 18 21 20 29 33 38 38 38 36 31 26 22 20 18 15 19 19 18 15 14 12 12 12 10 7 7 8
6 8 6 6 8 6 7 8 11 24 10 5 2 4 4 6 11 13 15 15 31 38 38 39 39 37 31 27 23 24 22 17 18 19 16 15 12 12 11 10 11 9 7 8
8 4 7 8 13 8 11 8 13 21 5 10 6 5 3 6 12 16 11 16 21 33 36 38 40 34 31 28 23 21 25 21 19 24 17 12 12 15 11 11 12 11 9 7
7 18 7 10 11 12 12 4 6 6 4 1 9 5 4 8 17 15 15 16 19 22 31 32 37 34 33 29 25 22 23 24 23 24 18 15 13 10 13 13 11 11 11 8
6 9 10 8 6 3 4 7 2 0 1 6 14 4 6 14 21 25 20 25 23 23 20 22 25 35 35 33 29 25 22 23 24 27 22 18 14 12 10 11 11 9 11 10
2 8 6 5 9 8 4 8 6 5 4 2 12 4 4 4 11 16 16 18 17 25 26 29 22 33 39 34 32 27 23 22 25 30 26 19 15 13 10 10 16 10 10 7
3 6 6 1 6 8 3 2 6 6 3 4 3 2 7 8 5 6 5 7 12 17 24 29 25 32 34 34 33 30 23 20 24 27 30 24 21 16 12 15 13 11 11 8
6 4 4 7 4 3 8 4 4 3 4 2 3 5 3 5 6 10 8 7 4 7 14 20 20 31 29 30 35 33 27 23 23 23 29 26 22 16 17 15 15 13 11 10
4 3 8 2 3 6 4 3 5 4 4 6 4 2 4 11 11 10 10 9 10 4 5 13 18 23 26 26 33 32 26 24 22 24 23 23 23 19 16 20 17 14 14 12
4 4 1 5 9 4 5 6 5 4 2 3 4 2 10 14 18 14 9 10 11 11 10 14 16 19 24 21 19 24 22 24 25 26 26 24 21 20 18 18 19 16 16 14
4 3 3 8 7 7 4 2 6 4 2 5 5 5 7 18 21 17 9 10 9 10 9 12 14 17 23 22 27 20 23 23 24 22 24 25 22 22 22 21 21 20 19 19
2 3 5 2 4 1 6 7 4 6 4 4 3 14 12 12 11 21 17 12 14 15 14 14 14 15 14 18 19 25 16 25 26 20 13 16 17 21 22 21 22 22 22 20
2 3 4 4 6 5 3 8 4 3 6 6 16 17 18 14 14 19 19 18 17 20 25 23 21 19 15 11 12 13 15 16 22 31 35 31 11 13 22 23 23 24 23 24
4 2 5 6 12 11 6 14 8 8 8 14 16 14 18 26 27 22 21 20 19 18 20 23 27 27 26 20 15 14 11 11 12 15 22 22 11 17 15 17 11 16 25 23
3 3 3 2 10 7 7 7 7 4 6 22 16 15 27 20 24 25 24 22 24 25 25 23 21 21 22 22 21 20 17 16 13 9 16 12 13 13 17 19 23 24 20 23
3 3 2 1 7 3 6 8 7 10 5 14 22 23 26 30 29 31 29 31 27 23 19 18 20 21 18 16 17 17 16 16 15 13 10 9 12 19 13 22 25 22 22 20
5 4 3 3 3 4 7 7 5 2 5 19 23 20 25 30 34 23 32 30 27 22 18 17 16 18 19 19 15 12 11 11 13 15 14 10 7 6 6 11 15 20 20 21
6 5 4 2 2 5 6 3 14 7 5 8 30 29 38 35 13 10 33 29 26 22 20 18 14 12 13 11 9 7 7 7 9 8 8 7 6 6 6 4 2 1 3 8
4 3 4 1 1 3 4 12 11 6 5 7 27 35 34 13 17 37 33 28 23 19 17 15 11 8 7 6 6 5 4 3 1 1 2 3 3 3 2 1 1 2 1 1
2 2 0 1 1 2 15 5 6 4 12 24 24 27 23 28 40 38 32 28 24 22 18 12 10 8 6 5 6 6 5 4 5 6 6 7 6 6 6 5 3 1 0 1
3 4 4 4 4 3 21 21 14 15 30 24 28 25 34 44 41 36 33 30 26 22 17 12 8 5 5 6 8 8 7 7 7 7 7 8 7 6 5 6 6 5 3 2
6 6 3 4 6 5 19 20 21 24 27 26 30 34 38 39 35 33 30 27 24 19 14 9 7 8 8 6 6 7 7 8 7 5 4 5 5 6 6 6 6 5 5 6
3 3 3 1 2 5 10 15 20 20 21 23 22 23 26 27 27 27 25 21 17 13 9 8 8 7 6 5 4 5 5 5 5 6 5 5 6 6 7 8 10 10 9 10
3 3 3 4 1 3 5 13 10 15 19 19 20 24 24 24 28 25 20 15 11 9 8 7 5 4 3 4 5 3 4 6 7 7 8 8 9 9 10 11 9 10 16 19

GFSCGP_850_spd_099.txt.gz
Wind_Speed
7 4 5 8 5 4 4 2 6 5 4 4 2 9 16 14 19 27 16 26 32 37 36 30 32 29 26 24 23 23 20 20 17 15 17 16 15 10 8 8 5 4 6 5
5 5 8 6 6 4 5 3 4 7 8 3 5 9 13 11 17 24 15 26 30 29 32 35 35 33 28 26 21 22 20 22 18 15 15 14 12 12 11 8 6 5 5 7
5 3 7 4 2 4 3 4 6 5 7 4 7 1 10 8 11 13 16 25 31 32 36 38 36 34 32 27 26 25 18 16 20 17 16 14 11 12 10 10 8 6 5 5
4 5 3 3 3 6 1 6 8 15 7 4 4 3 3 3 4 25 22 23 31 32 40 40 38 36 35 30 27 24 20 15 17 20 18 15 13 11 11 8 10 8 7 5
6 4 4 5 7 6 7 7 11 14 4 6 3 3 2 4 5 8 24 18 32 36 43 42 42 37 35 30 28 24 22 18 16 21 18 16 14 12 12 10 11 10 8 7
6 4 5 7 5 8 3 6 11 5 3 0 7 4 3 6 11 10 15 17 19 28 33 44 41 39 37 31 29 25 24 21 18 22 21 17 13 11 15 12 13 11 9 8
6 5 5 6 3 1 4 7 2 3 1 5 8 4 3 6 6 18 17 24 24 32 32 31 37 43 40 37 32 28 25 24 22 21 24 19 14 10 11 13 13 11 10 10
2 5 7 4 9 7 7 10 5 5 4 1 4 4 1 6 15 19 22 21 26 29 36 31 40 42 41 38 34 31 27 24 22 23 24 22 16 14 11 12 12 10 9 6
4 5 3 5 5 10 4 4 6 6 3 4 2 3 2 3 7 13 15 15 16 20 32 27 36 38 37 40 37 33 29 25 23 24 24 23 18 15 11 9 12 12 9 9
4 3 2 4 2 3 8 7 4 3 5 3 1 0 3 2 8 10 10 13 7 10 18 19 27 37 31 39 40 37 26 29 23 23 24 25 21 16 13 11 11 12 12 12
1 3 5 1 2 6 3 2 6 5 4 5 4 3 3 5 7 9 11 11 6 3 5 12 18 28 35 35 38 36 31 24 27 22 24 24 25 20 16 16 16 16 13 12
1 2 1 5 4 4 2 7 5 5 2 3 4 2 4 10 11 14 11 13 12 7 5 11 17 20 29 36 31 32 30 24 23 22 22 21 24 23 21 18 18 18 16 15
3 2 2 8 6 7 6 4 4 6 4 4 6 3 4 10 10 14 16 13 13 10 8 14 21 24 24 24 17 13 21 24 23 23 22 23 21 20 20 19 18 18 18 16
4 2 4 4 5 2 4 3 2 5 4 6 3 11 7 9 10 9 9 12 13 11 11 11 12 20 27 27 20 22 22 17 18 13 20 17 16 18 21 22 21 20 21 19
4 3 2 3 2 2 3 4 5 4 5 6 11 19 19 15 12 14 15 17 19 14 15 16 14 15 14 19 14 17 17 9 20 24 19 19 12 8 12 20 24 22 22 21
3 3 1 4 10 7 5 12 6 3 7 7 18 8 7 18 21 20 18 18 23 20 18 18 17 16 17 15 13 13 13 14 15 17 24 24 26 23 20 14 13 12 21 20
3 3 3 2 5 3 7 10 5 3 2 22 15 8 21 15 19 22 26 24 25 24 24 24 23 22 20 18 16 14 12 10 9 8 9 13 15 14 6 18 23 20 15 12
2 3 2 4 3 4 5 6 6 8 6 3 14 20 20 21 20 20 24 32 30 29 23 20 23 24 23 20 20 18 17 18 17 15 13 11 10 15 11 11 16 19 20 20
4 4 4 4 4 3 5 4 4 1 4 5 17 19 25 25 26 18 26 30 31 28 25 22 21 19 20 18 17 15 15 13 11 11 10 7 5 9 17 11 6 11 18 19
5 6 4 2 4 6 5 6 12 4 3 7 26 28 29 32 8 8 31 30 28 26 24 22 19 18 14 14 10 8 9 8 9 8 8 6 6 4 2 6 7 4 4 4
4 4 3 1 1 2 4 15 8 2 5 16 19 20 29 10 10 32 34 30 27 24 24 20 14 14 11 8 4 2 1 0 1 1 1 1 2 2 2 1 3 1 2 3
3 2 0 1 3 1 11 8 3 2 15 34 26 28 23 17 31 35 33 32 29 26 21 16 12 8 6 3 2 3 4 5 6 6 7 7 7 7 6 6 6 5 5 4
2 4 4 4 4 5 6 2 4 6 19 27 37 31 28 30 43 36 33 31 26 22 18 13 9 7 4 3 6 6 3 4 6 7 8 8 9 8 8 8 8 8 8 9
3 2 3 3 3 3 9 13 11 8 21 26 32 30 30 41 40 34 30 27 24 21 18 14 9 6 4 4 4 4 4 3 1 3 4 5 6 7 8 8 9 9 9 9
2 4 2 1 2 3 6 16 16 16 15 19 21 27 36 38 36 34 31 28 23 19 15 10 7 6 4 3 2 1 1 1 1 2 2 2 2 3 4 5 8 9 12 13
2 4 3 5 2 2 5 16 18 17 20 19 22 27 33 36 35 34 30 25 21 16 11 9 7 5 4 3 2 2 3 4 4 4 4 4 4 3 1 1 2 6 8 11

GFSCGP_850_spd_102.txt.gz
Wind_Speed
4 4 7 6 6 5 4 4 6 4 6 6 5 7 17 15 24 20 23 25 26 28 27 27 27 22 24 21 18 17 15 17 14 13 14 13 10 9 8 7 5 4 5 4
5 6 6 7 7 7 1 7 5 9 7 3 7 4 13 10 19 30 14 26 28 29 31 28 26 26 26 23 20 20 18 15 13 11 12 13 12 8 8 6 5 3 4 6
6 3 7 5 5 7 3 4 5 6 8 3 1 4 10 7 16 29 20 17 32 34 34 32 34 29 28 25 21 22 19 16 15 12 13 12 11 9 11 8 6 5 3 4
3 2 7 3 4 6 5 10 9 17 7 4 7 4 8 14 7 10 22 23 25 36 33 37 33 32 31 27 23 21 21 17 18 15 14 12 9 8 10 6 7 6 6 5
5 5 5 3 4 6 4 6 9 10 3 4 3 2 2 11 13 14 33 20 28 35 36 39 37 34 33 29 26 24 23 19 20 17 16 14 11 9 8 7 7 8 7 7
4 1 5 7 4 8 7 9 10 4 3 1 7 4 4 9 20 15 25 32 26 33 36 38 38 34 35 31 28 26 26 22 19 17 18 16 13 10 11 10 8 7 8 8
4 3 3 5 4 1 2 5 3 3 0 5 2 4 5 3 6 22 25 35 33 37 36 40 38 37 37 35 31 29 27 26 22 18 18 17 14 11 10 10 8 9 8 8
5 3 7 4 8 7 8 8 6 5 5 2 3 4 4 3 9 18 24 27 30 37 37 38 38 36 38 38 34 31 29 27 25 21 19 19 17 10 6 7 10 9 6 5
3 5 4 5 4 9 5 3 6 7 3 4 2 3 4 5 5 15 21 25 26 34 36 39 37 38 37 37 36 33 32 30 24 23 20 19 19 14 10 9 9 12 8 7
4 2 3 4 4 2 6 6 3 3 5 3 2 3 3 2 7 8 11 16 14 22 27 30 31 30 33 36 34 33 34 30 27 23 20 19 18 15 11 9 5 9 10 9
3 3 6 1 2 7 2 1 5 5 4 6 4 5 3 6 10 8 11 14 17 17 21 27 31 31 30 29 31 32 35 30 22 29 23 19 20 19 14 12 9 9 10 9
1 4 3 7 2 2 2 5 6 5 4 1 3 4 1 8 13 17 12 13 13 15 17 22 23 25 31 36 35 28 29 31 26 26 24 20 20 20 19 17 12 12 12 11
4 2 2 7 6 5 4 2 4 5 4 5 6 4 5 11 12 15 19 18 16 14 14 14 18 22 32 33 25 15 19 26 32 20 22 21 21 18 19 18 17 16 16 15
4 3 4 5 5 3 4 5 2 4 4 6 5 9 11 13 13 15 15 15 15 14 14 18 20 18 23 16 16 4 11 17 15 16 21 14 16 16 13 15 16 16 15 16
3 4 2 2 4 3 3 5 5 3 5 6 8 10 17 17 13 18 18 15 14 13 14 14 16 24 28 23 20 22 17 17 15 16 18 19 10 10 9 8 13 17 18 17
4 1 1 2 3 7 3 14 10 3 2 4 8 2 8 18 17 18 19 19 18 16 14 16 18 17 21 21 24 20 19 13 9 14 15 13 13 24 11 6 8 6 11 15
4 2 3 2 6 5 6 9 5 5 1 4 6 7 14 16 18 18 21 22 21 22 22 20 20 20 18 17 16 19 15 14 11 9 12 15 22 17 19 17 15 14 14 13
3 3 2 1 4 2 5 2 4 3 5 4 3 11 17 19 18 20 23 26 26 26 26 24 25 25 23 20 18 17 15 14 11 9 7 9 12 14 16 19 8 12 14 14
6 4 3 2 1 4 2 2 4 4 4 2 8 14 20 28 27 16 22 26 28 27 27 26 24 24 23 21 18 19 18 18 16 16 13 10 10 10 11 15 11 8 13 17
4 6 3 3 4 5 4 1 9 1 5 5 9 18 26 25 7 5 24 28 25 24 25 25 24 23 21 19 15 14 16 14 14 12 11 8 6 4 6 9 7 4 4 5
4 4 3 1 2 5 5 15 3 3 5 12 22 19 22 6 8 26 30 29 27 26 25 23 22 19 16 13 8 7 8 6 8 8 6 6 5 4 3 2 2 3 2 4
2 2 1 2 2 2 14 7 3 3 12 16 22 28 25 17 28 33 33 30 28 26 25 21 17 14 13 8 4 3 2 2 2 2 2 2 2 2 2 2 2 2 3 4
1 4 3 6 5 4 7 6 10 8 7 11 24 27 24 29 37 35 33 31 28 25 22 17 12 10 9 5 2 1 2 2 3 3 4 5 5 4 5 5 4 5 4 5
3 1 2 2 3 4 5 6 9 7 6 15 21 27 24 33 37 34 31 26 23 21 17 13 9 8 5 2 1 2 4 5 5 4 3 2 3 3 4 5 5 6 8 8
3 1 3 3 5 4 2 4 6 7 4 9 18 25 26 30 34 32 29 26 21 17 14 10 5 1 2 2 0 1 2 3 5 5 4 3 2 1 1 2 3 4 5 6
4 4 4 5 4 3 3 2 4 9 7 11 17 20 21 27 34 30 27 19 16 18 13 9 6 7 6 4 2 2 3 4 5 6 6 5 4 3 3 3 3 3 6 8

GFSCGP_850_spd_105.txt.gz
Wind_Speed
7 6 12 11 5 4 8 5 8 5 4 6 5 11 18 25 24 23 21 23 23 23 21 19 20 21 20 20 18 17 17 17 18 17 15 13 10 9 9 9 8 8 7 5
7 14 7 4 5 5 8 10 7 10 3 7 8 4 15 22 23 23 23 24 24 22 20 20 24 23 22 21 19 17 18 18 15 15 15 13 10 8 6 6 7 6 7 6
13 4 9 7 6 8 4 3 8 7 9 11 10 2 9 6 13 12 13 21 23 24 23 22 26 26 24 24 21 19 18 19 15 13 14 14 13 10 9 8 5 5 5 8
9 4 13 8 11 7 7 7 9 17 7 4 3 2 8 12 10 18 23 14 23 24 24 25 26 28 28 25 22 20 19 18 16 14 13 12 11 8 9 6 6 5 6 6
4 11 12 11 7 7 1 13 13 15 7 7 9 4 4 14 16 17 26 26 20 26 26 28 28 30 28 26 22 19 20 19 18 16 14 12 9 7 6 6 6 8 7 6
4 3 7 8 7 8 9 15 12 5 2 3 11 8 6 14 27 21 33 35 29 22 27 31 32 30 30 28 24 22 21 20 18 18 16 14 10 7 8 7 6 6 6 6
4 5 2 3 6 7 9 14 5 3 3 4 3 9 7 16 10 28 33 32 30 24 26 27 25 31 32 31 28 25 23 21 19 19 16 15 11 9 7 9 8 7 4 6
8 9 9 7 9 6 13 11 6 7 6 4 6 7 1 4 14 21 34 34 33 25 27 29 28 34 34 33 31 28 26 24 22 19 15 15 13 9 4 8 8 8 7 6
4 5 1 6 6 12 7 9 7 1 1 5 5 3 3 4 9 18 27 30 34 30 26 28 29 32 36 34 31 30 28 25 24 21 17 14 15 12 8 6 5 8 9 8
6 3 3 5 7 3 7 9 10 5 8 7 4 3 4 8 9 13 18 27 27 29 26 27 30 30 35 31 31 28 28 27 25 22 20 16 14 14 11 9 7 8 11 9
4 3 4 3 9 12 6 5 3 6 3 9 6 4 3 8 12 14 15 20 21 22 24 28 30 30 30 27 26 24 27 25 23 20 23 19 17 15 15 12 9 6 10 9
2 2 4 3 2 3 2 10 13 9 10 1 3 2 3 6 13 16 16 16 16 18 21 23 26 29 26 24 24 21 20 22 23 27 22 25 20 17 18 16 13 11 10 9
4 1 3 5 4 3 2 1 3 2 3 9 8 3 3 10 13 16 17 15 15 17 22 24 25 27 25 26 27 25 24 23 25 28 32 25 22 19 18 18 17 13 12 12
2 2 4 5 1 1 2 2 3 7 9 6 6 7 11 11 10 13 14 14 15 13 16 17 18 21 25 26 23 23 23 22 22 28 28 22 22 20 16 15 16 15 14 13
1 3 3 3 2 8 6 5 3 7 2 9 9 12 16 16 14 14 13 16 17 15 11 12 13 13 15 21 19 18 19 12 10 15 18 16 15 14 16 14 13 13 13 13
3 2 1 3 1 5 4 10 5 3 1 2 6 8 8 19 19 17 15 14 14 16 15 14 18 23 28 28 29 21 19 14 10 11 15 17 21 19 13 9 8 5 6 7
2 2 3 4 5 4 4 7 6 1 1 1 5 4 18 17 20 19 18 14 13 14 16 17 17 26 32 24 20 18 17 16 17 17 19 15 16 18 14 14 10 6 8 7
3 4 1 3 4 8 5 4 4 3 3 3 4 4 15 16 16 17 16 17 17 17 18 19 20 21 22 25 25 22 20 17 19 16 15 15 17 16 18 13 15 7 3 5
3 2 3 3 3 3 3 4 5 7 3 1 5 10 19 21 21 13 16 18 19 20 22 21 22 21 20 20 19 18 19 19 17 16 14 12 12 11 11 11 10 13 9 3
4 4 3 1 3 5 4 4 7 6 3 3 8 16 22 23 7 6 19 23 23 24 23 23 22 24 24 22 19 22 21 20 19 16 15 13 11 8 8 7 6 4 1 5
2 2 5 5 5 2 4 15 3 3 3 6 8 18 24 16 8 26 28 27 27 26 27 25 23 22 21 19 15 16 17 15 15 12 10 10 9 8 6 5 5 4 4 6
1 1 1 2 2 3 9 1 3 6 9 5 10 15 17 8 25 29 31 28 27 27 26 23 22 20 17 13 9 10 10 11 11 10 9 9 8 7 7 7 8 9 9 8
2 2 1 2 2 4 5 3 8 9 10 5 8 13 17 20 23 32 27 27 26 25 24 21 17 14 12 9 8 6 8 8 8 8 8 8 8 8 8 8 8 9 10 10
1 1 2 1 2 2 7 7 10 9 5 2 9 17 19 22 23 27 30 29 28 24 20 17 12 10 8 5 3 4 5 7 8 8 9 8 8 7 7 7 8 8 9 8
1 3 2 3 4 3 2 5 8 9 9 4 8 13 18 23 25 31 31 29 24 20 17 14 11 7 4 4 4 5 5 6 6 7 8 8 7 7 6 5 5 4 3 4
5 3 3 2 1 1 2 3 3 4 3 2 6 12 16 21 30 31 27 23 20 14 13 12 9 5 4 4 5 7 8 8 7 8 9 9 8 8 7 6 5 4 2 2

GFSCGP_850_spd_108.txt.gz
Wind_Speed
16 11 16 16 13 6 8 5 17 7 9 4 5 12 21 25 19 25 24 25 24 22 19 17 17 17 16 15 16 16 14 15 14 12 11 10 9 10 9 8 9 10 8 7
9 17 17 6 4 10 8 9 12 8 4 9 8 11 15 18 20 22 25 24 24 22 21 19 18 17 17 17 16 15 15 16 16 12 11 10 10 9 8 7 9 9 9 8
14 14 7 10 11 9 4 5 11 10 8 10 7 4 13 12 15 22 24 23 24 23 22 21 20 19 17 17 16 15 16 16 17 13 12 13 11 11 9 9 7 6 8 9
11 5 14 13 11 9 8 3 6 18 12 5 7 3 3 11 15 25 21 28 26 24 22 22 21 20 19 18 16 15 15 16 17 15 13 14 10 8 7 7 7 7 7 8
7 11 16 16 13 7 4 0 5 11 6 12 7 4 2 17 14 16 20 26 26 26 25 23 22 22 19 17 17 16 16 17 15 15 13 12 10 7 7 7 8 8 8 8
6 12 11 11 9 8 1 10 3 3 3 5 13 4 5 13 22 26 29 30 27 27 25 23 22 19 19 18 17 17 17 18 17 16 14 14 12 9 9 7 6 8 7 7
6 11 8 6 13 9 8 13 6 7 6 3 4 9 3 15 19 27 33 34 30 26 26 25 22 21 21 21 20 18 17 17 17 15 13 12 11 9 8 7 7 9 8 7
12 14 13 11 12 11 15 17 7 7 7 6 4 7 3 4 18 28 32 34 34 30 27 27 24 23 24 23 21 19 18 17 16 15 14 12 11 8 7 7 10 7 10 7
10 10 9 11 13 9 17 14 17 15 8 6 8 3 6 8 11 18 29 28 29 30 27 25 24 23 23 24 23 21 18 17 16 15 13 11 10 10 7 8 8 8 8 9
4 7 10 15 14 16 14 14 17 10 9 11 7 7 6 12 13 17 19 32 34 30 29 22 23 21 22 22 22 22 19 17 16 15 14 11 10 10 11 9 7 8 11 11
5 8 11 10 15 16 13 12 15 15 14 11 9 7 3 8 11 15 19 26 32 31 30 25 22 21 20 19 26 24 18 18 20 16 14 13 11 10 10 10 8 8 9 11
3 6 9 15 8 11 15 21 17 12 16 9 13 3 3 5 9 10 12 19 24 28 29 26 26 22 22 23 19 24 21 18 17 16 18 14 14 12 11 11 8 9 8 10
2 6 8 9 9 6 13 12 15 18 17 16 13 7 7 9 8 9 13 16 17 21 22 22 23 25 22 24 24 22 23 17 13 13 15 17 17 16 13 12 12 13 11 12
3 11 11 7 4 5 13 11 14 16 11 13 13 8 9 11 12 15 16 16 15 16 17 19 18 25 28 24 25 28 28 24 22 18 19 17 23 16 15 13 14 14 13 10
4 11 7 9 5 4 4 10 14 17 17 17 10 14 10 14 14 15 16 14 15 13 11 18 14 16 21 25 23 22 23 20 23 26 22 19 20 19 14 14 13 14 13 11
3 7 6 7 4 5 5 4 10 15 12 13 8 6 4 12 14 15 14 15 13 12 9 12 16 14 17 20 24 24 19 18 13 11 11 15 20 19 19 14 12 12 12 12
3 4 7 11 8 8 11 3 1 2 5 7 11 4 10 12 13 14 14 13 12 11 9 11 16 19 20 22 25 21 19 16 14 12 13 14 13 17 18 15 11 8 8 8
2 2 5 7 6 13 9 5 6 3 1 3 4 2 9 13 12 13 12 12 12 11 13 13 14 20 26 24 23 24 20 13 18 16 16 14 13 14 15 18 15 13 8 9
4 5 3 8 10 3 8 4 6 7 7 7 2 4 12 15 16 10 11 12 12 13 14 14 16 15 26 23 21 17 14 17 19 16 14 15 13 15 15 14 13 12 12 9
7 3 8 4 9 7 9 7 7 7 4 10 5 6 14 18 7 5 12 14 14 12 15 16 16 18 21 22 20 20 20 19 19 18 15 13 13 12 12 12 13 11 10 13
5 5 8 5 5 4 7 9 5 8 4 11 5 6 16 10 5 21 17 16 16 19 20 19 19 22 21 18 16 18 18 17 16 16 17 16 14 13 13 13 12 11 12 13
4 4 5 3 7 7 13 2 6 9 9 9 4 4 10 4 16 22 21 22 21 22 23 23 21 20 19 17 14 13 13 15 15 15 14 14 16 13 14 13 12 13 15 12
4 3 4 4 5 4 6 7 8 9 9 6 4 3 13 13 18 21 22 24 24 25 23 22 20 18 15 12 10 9 10 12 12 12 13 13 12 13 15 14 13 12 12 10
4 1 3 3 5 4 3 4 8 11 10 7 1 6 10 16 21 22 22 23 26 24 22 18 15 11 10 8 7 6 7 9 10 10 9 10 9 11 11 9 9 7 6 6
3 5 1 3 5 3 4 5 7 9 10 9 6 7 11 16 20 21 23 23 20 20 16 14 13 11 8 4 3 5 7 7 6 6 7 7 7 9 10 10 9 10 10 10
6 2 4 1 4 1 4 3 4 7 8 8 7 7 9 14 20 21 22 27 26 18 18 15 12 8 3 2 2 3 6 8 8 7 7 7 7 7 6 8 9 8 7 7

GFSCGP_850_spd_111.txt.gz
Wind_Speed
20 13 17 20 20 5 3 4 9 8 12 3 8 11 15 20 15 19 21 26 28 21 21 20 19 17 16 16 17 18 16 14 12 11 11 10 8 9 8 8 7 8 6 6
12 17 18 18 11 6 10 13 13 10 15 7 12 12 18 17 20 24 21 23 27 27 23 21 20 19 17 16 15 16 14 14 14 10 9 8 11 8 8 6 7 7 5 5
14 15 19 18 7 9 14 12 17 21 16 8 9 4 14 17 16 12 24 25 21 28 28 23 21 19 19 16 15 14 14 15 17 13 8 8 8 10 9 5 5 6 6 4
14 10 17 10 14 14 2 12 9 12 15 3 13 2 1 12 16 13 15 28 30 25 24 25 25 22 18 17 15 15 14 14 14 14 11 10 7 8 6 6 6 6 6 6
13 9 11 15 18 8 5 10 25 13 11 12 10 6 2 8 14 17 19 21 26 30 29 23 23 23 23 19 16 15 14 14 13 13 11 11 11 6 6 7 8 7 7 7
14 9 11 16 14 9 3 6 7 8 6 7 13 12 14 15 23 24 26 29 25 26 25 27 23 25 22 20 17 16 16 15 15 12 10 12 10 6 9 7 5 6 6 5
12 10 14 14 15 8 10 7 3 1 3 2 9 9 9 24 25 28 32 24 28 36 28 24 27 27 22 21 18 17 17 17 16 11 10 9 7 7 4 6 5 9 8 8
12 13 14 10 13 11 15 13 6 4 3 5 6 4 5 26 25 35 41 37 32 26 32 31 27 22 21 20 19 18 18 17 16 14 12 12 11 6 6 7 17 8 6 8
14 16 19 15 14 15 14 16 19 8 8 7 7 8 8 15 17 22 39 39 40 32 30 28 28 30 24 19 20 19 19 17 16 14 13 11 10 10 9 3 6 3 7 10
7 6 13 12 12 15 18 13 15 12 9 4 3 10 5 12 16 15 25 38 39 34 28 22 28 25 26 23 21 20 19 18 16 15 13 12 10 10 8 6 8 11 14 10
16 9 11 12 18 17 13 14 13 16 14 9 6 1 16 14 13 15 19 35 40 36 34 28 24 27 23 22 23 25 20 18 17 16 14 13 11 10 10 9 6 5 5 10
12 8 13 15 12 17 17 17 15 11 18 14 13 6 6 5 11 16 20 20 29 35 31 28 26 20 19 20 15 21 21 19 19 19 17 15 14 12 12 11 9 8 5 6
9 9 10 11 12 8 14 15 19 19 14 16 13 7 13 11 10 12 13 16 22 27 32 27 22 20 20 19 21 23 26 22 15 14 17 17 18 15 13 12 11 11 9 8
5 14 15 7 12 15 19 19 16 20 14 14 16 16 14 15 13 13 12 12 15 21 28 28 27 30 25 22 22 24 25 23 19 19 18 19 19 18 17 15 14 14 13 11
7 14 12 13 9 19 20 21 20 18 17 17 14 8 16 20 19 18 16 12 12 11 15 21 21 22 24 23 23 22 23 22 17 27 21 19 20 23 19 20 18 15 15 13
10 12 13 14 10 14 14 10 8 17 17 17 19 10 12 11 20 23 18 15 12 10 10 15 15 18 19 18 26 25 23 26 26 16 16 25 24 21 23 22 19 16 14 14
6 12 3 17 12 13 15 12 11 14 16 16 13 7 7 22 11 14 17 15 13 13 13 13 11 12 16 18 17 19 17 14 13 11 12 14 19 22 22 20 16 16 14 10
7 10 11 9 8 10 4 10 7 9 10 4 3 11 4 16 15 15 12 12 12 10 13 12 16 17 15 20 17 19 20 18 16 12 11 11 12 12 14 19 18 18 13 11
4 8 7 12 16 4 19 7 2 6 6 8 10 6 14 15 15 11 10 11 12 11 11 13 13 17 19 24 24 21 15 14 12 12 11 12 12 11 10 17 19 12 12 11
9 6 10 10 13 7 6 25 23 12 8 8 17 7 11 6 3 5 10 14 14 12 10 13 13 14 18 21 21 20 16 12 12 14 15 16 15 14 13 11 15 15 14 14
3 6 7 8 9 8 9 12 25 9 5 11 10 7 8 2 11 17 17 14 14 13 13 13 12 13 15 16 15 15 13 14 15 18 18 16 12 10 8 9 13 16 14 13
3 4 7 7 4 8 11 2 2 5 7 9 10 10 8 7 9 17 18 15 14 16 17 15 18 19 16 14 14 18 17 16 13 13 13 15 14 10 12 11 12 11 11 11
5 5 4 8 3 4 9 10 8 9 7 8 6 9 9 7 11 14 15 17 20 22 22 20 20 19 17 14 11 12 12 12 11 13 12 11 10 11 12 10 10 10 10 5
4 3 6 2 7 5 3 6 8 9 10 8 4 3 7 9 14 18 18 23 20 17 17 18 17 16 15 11 7 8 8 9 8 9 9 8 8 10 10 8 7 7 6 5
4 3 5 7 7 5 4 3 5 6 7 7 6 5 7 12 13 18 19 22 20 22 22 18 15 13 13 10 9 8 8 9 8 8 9 8 8 9 14 15 13 15 15 13
9 6 6 2 5 4 4 2 1 3 4 5 4 5 7 13 17 17 20 19 21 22 18 15 14 11 9 8 7 8 9 11 8 7 7 8 7 7 6 9 9 7 10 12

GFSCGP_850_spd_114.txt.gz
Wind_Speed
16 11 16 19 19 7 6 4 9 9 12 5 3 4 12 11 11 14 25 24 28 26 20 20 24 23 19 18 16 16 21 16 13 12 16 12 12 9 10 5 5 6 6 11
11 16 19 20 6 10 16 13 14 11 15 3 4 14 14 10 8 8 17 25 24 22 19 22 23 22 23 20 19 19 16 17 14 14 12 12 8 11 8 6 5 7 7 10
18 15 19 20 7 6 24 9 13 8 10 3 9 3 8 10 12 18 13 27 28 33 25 26 23 23 25 23 18 18 14 20 17 9 10 18 11 11 9 6 4 9 4 7
16 15 18 18 12 11 8 17 12 11 8 3 13 3 1 14 10 14 22 15 24 25 29 28 25 26 26 22 17 18 16 16 15 15 11 11 12 11 9 5 7 7 6 6
12 12 10 16 17 17 12 12 18 15 8 9 12 4 6 10 11 17 29 18 27 33 29 27 27 23 24 24 24 18 15 15 15 17 16 10 7 7 5 9 10 8 7 7
17 14 7 9 8 12 18 21 16 13 5 4 12 5 8 16 31 24 20 18 17 22 27 29 25 30 25 23 26 21 17 15 17 16 15 13 9 12 9 10 7 3 4 9
13 10 5 10 15 8 7 13 4 3 7 4 15 9 6 23 18 23 22 25 23 29 21 32 20 29 30 29 27 27 22 18 19 16 13 11 9 15 12 11 8 11 7 7
10 12 15 15 17 10 11 12 5 3 3 1 4 2 5 23 26 38 35 31 28 29 23 29 34 27 25 27 27 26 22 17 18 13 14 12 12 9 9 7 11 12 5 10
7 15 14 13 14 13 13 10 16 5 7 6 1 5 2 20 15 24 29 35 31 17 26 25 32 29 26 30 28 31 22 16 17 15 15 16 13 13 11 8 11 12 5 3
6 13 16 13 12 15 16 7 10 5 3 5 6 7 5 9 15 21 24 35 34 30 37 38 32 30 35 34 25 30 23 19 18 19 15 11 8 14 9 6 6 5 8 14
12 11 2 10 10 13 11 12 10 13 8 4 8 4 11 3 10 16 26 36 38 35 34 31 37 38 36 33 33 27 23 19 20 23 17 16 13 9 11 9 9 7 9 16
10 10 8 12 13 16 16 16 17 10 11 10 10 3 12 16 10 16 30 37 38 38 34 28 27 44 42 29 29 35 23 23 26 24 20 18 12 13 11 11 12 10 11 11
11 5 8 13 8 8 13 17 14 15 15 15 9 5 17 17 18 22 20 35 35 38 36 29 32 34 36 23 27 31 18 29 21 27 23 21 18 16 14 15 13 11 10 8
4 12 12 5 8 11 15 18 17 16 12 15 13 15 16 16 14 15 20 33 41 38 33 30 19 19 22 30 24 27 19 23 20 20 20 16 13 18 20 17 15 15 17 13
5 11 13 4 11 10 15 20 20 18 16 17 13 5 9 9 10 11 12 18 37 35 30 38 23 26 30 32 25 30 29 25 18 14 15 20 23 22 19 20 22 19 17 16
10 10 13 14 9 12 15 18 21 18 20 17 16 8 16 13 20 38 8 9 21 26 26 25 25 19 23 24 22 18 21 21 17 24 20 20 20 23 27 26 19 21 22 16
9 13 5 13 7 14 9 10 14 15 9 5 12 10 9 10 18 3 8 5 10 15 15 18 19 14 17 20 23 27 27 23 21 17 17 18 17 24 35 32 29 21 19 16
15 9 3 7 10 11 9 17 17 20 20 19 25 17 17 16 24 18 12 8 4 15 15 12 15 19 16 14 13 15 17 18 14 12 12 12 11 14 17 21 23 21 22 17
3 7 8 1 3 17 1 8 12 14 18 16 17 15 12 17 14 7 9 11 12 13 13 12 16 15 19 19 19 20 19 19 18 14 10 9 8 7 8 8 9 16 11 15
10 7 7 1 5 1 12 15 22 19 6 23 11 18 10 9 2 3 8 14 13 9 11 15 15 15 16 20 24 22 20 18 16 15 11 9 8 6 5 4 10 14 14 11
9 8 9 11 3 3 9 18 13 7 7 16 20 5 13 8 4 13 16 15 10 8 14 13 14 16 19 24 25 19 16 15 16 15 15 14 11 11 10 10 11 11 10 11
5 4 5 6 4 3 13 15 0 2 4 9 14 8 5 18 18 17 15 10 9 13 15 13 14 14 13 13 15 16 15 13 14 16 17 16 16 13 10 12 12 13 12 8
3 2 6 7 3 4 7 11 8 8 6 8 9 3 13 11 15 12 13 9 14 16 17 18 19 20 16 14 13 18 18 17 17 16 16 16 16 15 10 10 6 8 10 10
2 6 4 8 10 11 9 6 6 7 7 8 8 12 9 14 13 14 11 18 19 18 20 19 19 19 18 15 14 13 15 14 13 12 12 13 14 14 16 16 12 13 13 11
5 2 2 6 6 8 5 6 4 5 6 7 6 6 6 13 14 17 22 19 19 18 16 16 15 15 14 12 12 12 11 10 10 10 9 8 8 11 14 14 14 14 14 15
5 6 4 3 8 4 6 4 1 3 4 5 5 7 5 9 12 16 24 22 20 20 20 19 17 14 13 11 11 11 11 9 9 8 8 8 4 6 12 16 12 11 15 15

GFSCGP_850_spd_117.txt.gz
Wind_Speed
17 2 6 10 14 14 4 11 14 9 6 2 6 2 13 17 15 13 8 27 31 28 24 25 30 25 18 24 24 21 17 15 19 22 17 15 14 13 11 10 8 7 15 10
2 8 11 15 5 9 10 15 7 7 13 1 4 5 9 18 7 7 8 15 32 28 28 30 31 23 22 25 23 16 18 19 16 18 17 17 13 10 7 8 6 9 14 7
9 13 17 16 11 10 3 2 9 9 11 4 5 4 6 5 8 13 7 9 32 35 30 35 29 24 27 25 23 20 18 16 17 15 15 15 14 12 13 8 7 9 8 11
9 19 14 13 12 8 5 12 9 20 8 1 5 2 4 6 8 7 15 19 26 30 32 35 31 31 26 27 25 21 18 21 19 16 17 17 15 12 9 6 6 7 7 7
11 11 9 9 12 11 7 13 11 14 9 4 7 2 4 4 9 13 19 19 8 33 33 28 34 31 26 25 25 19 19 23 18 15 14 15 18 12 11 9 8 7 7 7
10 13 7 8 2 20 24 17 5 5 1 1 8 6 4 12 27 23 30 21 10 21 33 27 26 31 29 24 23 19 18 18 20 16 13 15 16 17 13 11 9 6 6 10
8 9 8 5 18 19 15 6 1 1 2 1 9 8 7 23 21 29 26 27 19 24 30 34 27 32 29 28 25 22 20 23 24 21 17 16 16 15 14 14 11 12 10 12
5 4 4 4 8 13 14 9 6 3 1 2 3 2 5 10 26 30 31 30 26 30 30 32 33 28 27 32 30 25 22 21 22 21 20 16 15 14 13 11 10 11 12 10
2 7 6 9 8 8 4 6 8 7 2 3 1 2 11 14 13 27 31 30 35 33 35 26 31 29 31 36 27 28 24 20 18 20 18 17 17 14 14 13 12 12 12 16
7 5 7 11 6 8 3 5 2 3 5 3 5 7 5 9 7 15 27 30 30 21 30 33 34 30 37 33 32 28 28 22 18 20 18 17 14 16 14 11 12 18 14 11
6 1 9 6 5 6 3 4 4 4 5 4 4 4 12 18 16 10 17 31 35 29 31 36 39 32 38 32 33 31 33 24 20 20 17 15 15 17 17 12 12 16 14 13
8 3 6 9 6 9 7 5 6 3 8 2 4 4 12 17 17 23 18 28 35 38 39 37 30 39 37 38 32 30 36 24 18 21 17 14 12 12 14 13 11 13 11 9
7 5 5 9 8 7 4 6 4 4 2 6 2 5 10 15 11 25 21 30 33 37 38 44 36 32 35 39 37 36 34 26 22 20 20 18 16 15 13 11 10 13 13 8
8 3 1 2 2 4 6 9 11 6 2 5 6 5 10 6 7 6 16 29 38 41 38 34 38 40 36 29 22 41 32 21 25 25 25 23 24 20 20 18 15 13 12 11
2 4 6 9 2 3 8 8 9 11 17 4 2 9 10 6 6 4 9 21 28 36 40 33 38 42 42 31 30 27 27 29 30 28 25 20 25 23 26 21 19 20 18 14
5 5 7 8 11 11 10 14 13 15 22 17 7 8 5 5 17 21 19 18 11 19 29 32 34 36 42 46 34 22 26 22 36 26 24 23 21 19 21 23 26 21 20 17
1 1 3 4 8 8 7 15 17 12 16 6 8 6 3 4 7 9 19 28 18 13 18 26 30 27 30 44 39 30 26 29 27 25 26 25 21 21 22 26 26 28 23 24
3 1 2 1 6 1 3 14 15 16 13 12 13 13 7 9 9 11 16 20 19 10 9 18 24 24 25 25 24 26 29 26 24 22 19 18 17 18 19 15 21 27 24 25
14 4 3 3 3 4 1 7 11 6 7 13 7 5 11 8 20 23 12 11 11 4 4 9 14 24 27 24 27 27 25 23 19 14 13 13 10 8 6 7 6 21 22 21
7 7 3 4 1 4 1 7 9 7 3 13 9 2 6 8 4 2 9 8 4 1 2 3 7 12 21 22 19 21 21 18 14 13 12 11 10 8 6 4 5 5 4 11
4 4 1 5 2 2 2 7 6 5 4 5 5 5 7 4 4 13 9 8 2 3 2 9 11 12 19 19 18 18 13 15 18 16 15 13 11 8 7 4 3 3 5 6
4 3 1 2 4 2 6 4 4 4 6 5 9 9 9 10 11 9 5 5 5 5 4 4 8 11 14 16 16 15 15 17 15 16 14 12 12 11 9 7 5 4 5 8
1 5 4 5 5 8 13 6 6 13 15 16 11 14 8 12 9 6 1 3 3 3 6 7 9 11 10 10 11 13 16 14 12 11 12 13 13 14 12 9 7 6 7 8
4 3 3 5 2 7 8 12 10 8 8 12 16 8 11 7 6 5 4 5 9 11 12 11 13 14 14 12 11 12 14 14 14 16 16 15 15 14 13 13 12 13 17 15
4 2 3 3 14 17 13 12 8 6 5 9 11 12 11 8 8 6 10 13 15 15 14 12 13 15 16 15 13 13 13 13 14 14 14 13 13 13 16 15 15 13 14 12
6 1 3 2 9 12 11 9 3 3 4 3 7 10 8 5 12 17 18 15 15 15 14 12 12 12 13 13 13 13 12 10 10 10 9 9 7 9 7 8 7 8 9 12

GFSCGP_850_spd_120.txt.gz
Wind_Speed
4 4 4 11 3 3 4 6 6 8 9 7 3 8 9 9 5 6 5 23 32 38 37 35 32 30 27 27 23 17 20 26 22 20 19 19 19 16 13 10 8 17 13 8
6 6 9 5 5 7 6 7 6 5 9 2 5 8 10 12 4 6 2 10 39 32 35 37 35 32 28 27 25 18 19 19 20 23 19 18 16 14 13 11 10 17 14 9
7 8 8 6 6 8 1 9 9 7 8 1 5 4 4 6 8 7 3 6 25 39 40 41 38 33 26 28 27 19 18 22 23 20 18 17 16 16 14 12 13 13 15 9
6 14 9 9 12 6 3 6 14 11 8 3 4 2 5 8 5 5 7 6 18 29 40 41 37 32 26 26 28 20 20 23 19 21 19 18 19 16 13 10 13 13 12 12
9 6 7 7 17 9 6 10 11 7 2 1 3 0 3 5 8 7 13 13 16 17 40 42 37 31 26 27 29 24 24 21 22 20 18 17 16 13 13 11 11 13 11 9
10 16 5 6 10 15 18 13 11 6 2 0 2 3 4 5 6 11 15 18 17 18 30 41 36 31 27 26 28 26 26 20 25 20 19 20 19 15 13 13 14 10 9 12
7 6 6 21 17 7 15 6 3 1 1 2 4 5 8 4 9 16 20 24 22 17 26 29 36 35 33 30 28 26 25 20 27 22 20 18 20 18 14 14 13 11 13 15
4 6 10 6 11 12 8 7 6 6 4 3 4 4 6 12 20 25 25 28 24 18 23 19 31 38 37 31 28 27 27 24 25 23 21 18 17 18 14 16 13 11 11 12
0 5 4 7 7 11 5 5 5 7 3 2 3 6 8 7 5 6 21 27 28 21 28 28 26 37 38 34 30 28 27 23 24 24 22 19 18 18 20 18 15 13 13 12
3 2 2 8 8 7 9 7 4 2 5 2 2 5 5 5 9 12 18 26 29 32 25 32 28 38 39 36 30 30 26 21 21 25 24 22 20 19 18 17 15 14 12 11
3 4 8 4 1 9 2 2 5 5 5 5 3 6 8 12 9 12 20 28 32 29 33 33 32 40 34 32 33 32 29 26 22 23 25 22 21 22 19 16 14 14 15 11
3 4 2 4 8 4 4 3 4 5 4 1 4 6 3 9 7 15 23 33 33 38 35 35 40 35 37 32 34 36 30 30 24 22 24 22 20 20 20 17 14 12 14 12
5 4 4 8 7 7 6 5 2 3 3 2 3 6 6 12 9 17 19 26 37 37 39 36 45 39 41 37 38 37 32 31 26 24 24 20 18 17 18 18 16 13 11 11
5 3 4 4 6 4 8 9 6 6 4 5 5 8 2 6 7 4 9 13 34 40 42 42 44 41 41 34 37 37 34 29 26 23 24 21 18 15 15 14 14 12 8 11
5 3 4 3 7 18 16 12 11 8 2 4 9 7 12 13 5 8 7 9 23 30 34 38 41 43 39 36 34 33 35 30 26 25 27 26 21 20 19 20 21 20 17 14
3 1 2 3 6 16 12 12 13 8 9 2 6 4 10 16 23 22 9 18 13 22 26 27 34 43 40 39 36 38 35 32 27 31 30 25 25 22 23 21 26 22 24 22
3 3 3 2 6 4 7 7 9 8 8 2 8 5 9 10 13 10 12 14 16 18 22 23 25 35 38 38 37 36 32 31 37 34 23 24 24 21 22 23 27 27 27 25
3 3 2 1 4 3 5 3 5 13 9 4 3 7 8 9 16 19 15 13 14 11 6 14 19 26 30 35 31 30 32 32 36 29 26 31 21 20 25 26 23 25 27 29
4 4 3 3 1 1 2 3 3 1 3 5 4 5 8 17 8 18 13 13 11 7 6 4 7 11 18 23 28 24 23 32 33 31 27 26 24 24 22 18 8 9 20 25
4 6 4 3 3 4 3 4 4 5 3 3 9 4 5 12 4 3 6 9 10 8 4 3 8 20 25 24 20 21 23 29 28 26 25 24 17 13 11 10 7 3 8 22
4 4 4 3 2 2 4 5 1 4 5 3 5 5 3 4 3 6 1 5 5 4 4 5 6 8 16 21 24 28 26 22 19 17 15 14 15 14 11 8 6 4 7 7
4 4 1 2 3 2 2 1 5 4 8 6 3 5 5 7 9 9 4 2 2 3 6 8 8 6 10 15 19 21 21 14 16 17 16 16 13 10 8 7 6 7 7 11
1 5 5 5 5 4 2 10 11 11 11 6 3 4 2 7 7 5 4 3 3 2 4 8 10 9 8 7 8 11 10 11 11 12 12 13 11 12 11 11 9 8 8 8
3 7 4 4 3 4 5 7 12 10 15 12 7 3 6 4 7 4 1 2 6 6 6 6 9 10 10 9 8 7 11 11 11 10 9 11 12 13 15 13 10 10 13 13
5 4 6 1 4 10 9 7 9 8 11 8 7 4 3 4 2 2 4 6 6 7 10 10 10 13 11 9 7 8 9 11 13 14 15 15 13 12 13 12 13 14 16 16
3 5 4 5 18 10 16 12 8 8 10 8 7 8 5 2 1 3 6 9 10 10 9 9 10 10 13 11 8 9 10 8 7 9 10 10 10 10 9 9 11 12 13 13